GFSWCAN_700_spd_000.txt.gz
Wind_Speed
41 39 41 40 44 45 50 45 39 36 37 35 33 33 33 32 29 30 30 29 30 33 32 31 30 28 28 28 27 26 23 24 21 19 20 23 20 24 25 28 28 29 19 19 22 18 19 20 24 29 37 50 48 49
32 38 35 34 40 44 46 47 42 40 38 37 35 35 33 35 34 33 34 31 31 34 37 34 35 29 32 27 29 30 29 26 25 27 29 27 35 40 40 39 31 25 37 35 36 36 39 46 50 49 44 48 50 49
28 32 40 38 37 38 35 40 49 45 45 42 39 36 34 35 35 36 37 34 34 36 40 42 38 31 32 30 29 34 35 36 27 33 36 41 45 46 38 34 37 33 23 48 48 51 49 48 49 47 46 49 49 51
27 30 31 38 40 43 39 38 39 37 37 45 48 51 44 38 37 38 38 33 35 38 44 52 48 39 37 39 37 35 34 24 34 36 41 48 50 44 49 51 48 48 52 51 53 54 59 45 45 48 48 45 46 49
27 29 32 32 35 41 45 43 38 37 37 35 41 43 45 39 39 39 45 46 38 38 43 45 49 40 36 37 43 34 32 39 44 46 43 49 51 51 56 58 55 48 48 44 60 55 50 55 47 41 46 47 48 49
25 26 29 31 32 34 36 44 48 44 36 37 39 41 42 45 39 44 42 49 41 45 40 57 60 50 41 40 44 41 39 42 39 36 42 44 43 37 48 47 48 43 40 56 52 45 46 46 44 42 45 46 46 47
22 23 26 29 31 33 34 34 32 37 35 32 30 33 37 35 38 48 47 44 39 38 42 51 51 50 38 31 28 24 23 30 37 41 44 44 43 42 52 59 49 48 49 42 41 39 42 37 42 43 45 45 46 49
19 18 20 22 25 30 32 34 32 31 37 36 32 33 37 38 41 46 45 45 45 33 39 37 33 32 31 27 24 24 29 32 38 40 41 41 40 42 48 52 46 40 31 29 31 33 36 39 42 42 42 47 49 51
19 14 11 12 15 20 24 26 27 27 28 29 29 32 36 36 38 37 37 41 42 33 24 34 40 30 18 16 19 21 27 30 30 42 42 40 45 42 46 42 38 28 25 32 31 33 36 37 37 42 46 45 42 41
21 18 14 10 8 7 9 15 18 21 23 25 28 31 30 29 30 33 34 33 35 36 33 42 40 31 30 32 29 26 27 23 22 33 25 33 41 38 35 26 24 23 26 28 30 30 33 38 42 44 44 42 36 34
23 21 18 15 13 11 10 9 9 9 11 14 19 22 20 21 23 24 20 20 20 23 29 42 42 42 39 37 27 21 18 15 19 25 23 25 28 27 24 24 19 20 20 24 29 27 36 41 44 43 39 36 33 25
21 20 18 17 16 14 13 12 11 11 11 10 9 9 8 6 8 7 8 8 9 8 9 10 13 14 18 21 24 19 24 14 15 22 20 19 18 16 18 13 19 20 23 30 35 37 41 44 41 38 35 31 24 19
19 19 19 18 17 16 15 14 14 13 11 10 9 7 6 8 13 8 10 10 9 10 11 15 18 19 17 16 15 11 9 11 11 8 7 12 11 7 18 22 23 27 33 35 38 41 42 38 34 32 25 21 18 13
18 19 19 18 18 17 16 16 15 14 13 12 9 9 7 8 8 14 18 13 16 17 16 16 13 8 10 17 15 11 22 19 13 16 20 14 15 25 32 34 37 41 41 41 40 42 37 36 33 25 18 18 14 10
17 17 17 17 16 16 16 15 15 15 14 14 8 8 15 15 15 11 10 13 17 19 18 20 23 23 23 14 14 13 11 12 16 20 18 23 32 34 37 40 43 44 42 42 41 44 41 37 32 23 16 19 9 12
17 16 16 16 16 16 15 14 15 15 17 16 14 14 15 12 13 15 17 20 22 23 24 26 16 14 22 13 18 18 19 24 28 32 34 37 41 41 41 42 43 45 44 43 43 41 38 35 29 21 20 10 9 15
17 15 16 17 17 17 18 18 18 18 17 20 27 29 29 28 26 25 27 28 28 29 27 23 16 19 19 18 24 24 35 36 34 36 39 43 47 45 46 47 47 48 47 43 39 34 30 30 23 19 13 6 11 14
15 18 19 19 19 20 20 21 21 22 29 33 34 31 28 27 24 22 21 21 22 22 23 26 24 24 22 28 33 36 38 38 35 36 35 40 44 42 42 44 44 43 41 36 35 28 26 25 21 13 6 6 12 12
18 18 19 19 20 21 21 23 25 29 32 32 30 27 24 22 20 18 17 17 19 21 24 28 18 26 27 28 30 31 38 39 39 40 41 40 41 43 43 41 44 31 32 32 23 23 23 22 14 9 4 9 10 11
14 13 13 14 14 16 18 19 23 24 27 26 23 19 22 22 20 19 18 18 20 23 28 33 37 37 39 42 42 42 41 40 40 42 43 43 44 44 42 41 36 32 32 20 21 20 18 16 10 3 6 9 10 11
14 11 11 12 15 17 18 19 20 18 18 23 24 22 25 25 25 23 21 23 25 30 34 36 39 39 35 33 32 33 35 34 38 38 42 43 40 40 37 37 25 23 20 21 21 16 14 9 2 5 7 8 10 11
16 16 16 17 20 23 26 26 23 23 22 26 29 31 32 32 30 29 26 28 30 29 30 33 34 33 33 33 34 34 33 32 36 37 37 37 37 37 34 29 23 19 19 19 18 13 5 3 6 6 8 9 10 10
19 19 21 27 24 28 19 19 24 26 30 30 29 33 37 35 34 33 31 30 32 30 26 28 26 26 31 36 37 36 32 30 33 33 33 33 35 32 27 26 21 18 17 13 7 4 6 7 7 8 9 9 10 12
20 23 26 22 24 21 25 27 33 37 31 33 35 37 37 40 36 31 37 33 31 28 24 20 24 27 26 25 26 27 26 29 30 31 30 31 29 22 21 20 17 15 11 8 8 8 9 9 9 9 9 9 11 11
24 22 27 27 33 32 37 38 40 39 39 31 31 32 35 23 26 33 41 35 25 19 18 19 23 27 28 26 25 26 25 28 25 22 20 19 20 20 20 16 13 10 11 12 10 9 10 10 10 10 10 10 11 11
22 20 21 25 30 32 34 34 37 36 36 33 37 31 27 25 27 26 32 26 17 15 18 21 24 28 22 20 23 24 23 21 14 16 15 16 18 17 17 15 13 11 12 10 7 9 11 11 11 10 11 11 11 12
30 27 27 30 35 33 31 38 32 29 28 32 28 23 25 24 23 26 22 19 21 22 24 25 28 28 23 21 21 21 22 14 13 13 15 14 13 12 15 15 15 12 11 8 8 11 12 12 12 12 11 11 12 13
39 38 38 35 37 36 34 35 37 39 38 38 35 31 24 26 29 27 26 23 22 23 25 26 26 24 20 20 21 18 17 16 14 13 12 11 9 11 14 15 13 12 10 8 10 12 12 13 13 13 14 14 13 13
41 41 38 38 39 38 41 45 47 43 41 38 38 39 44 37 34 28 21 22 21 21 23 25 24 22 22 21 20 19 16 17 21 10 10 10 10 9 11 13 12 13 11 10 12 14 14 15 16 16 16 15 15 15
42 41 41 41 40 40 36 35 33 31 32 32 30 30 26 21 19 20 23 25 26 27 28 26 25 25 27 26 22 22 20 20 18 19 16 11 9 10 12 13 17 14 11 13 16 15 15 17 17 17 18 17 16 15
25 23 31 36 39 38 35 36 34 31 28 26 26 27 21 21 23 25 27 27 28 28 28 25 25 28 27 24 22 21 21 21 22 22 22 18 18 14 18 21 17 12 11 15 17 18 18 18 19 20 19 17 16 16
27 25 25 28 28 27 29 28 27 24 23 22 22 21 21 23 26 29 30 28 25 24 25 26 24 22 19 17 17 17 17 15 11 11 12 15 17 18 16 14 11 11 14 16 17 18 19 19 19 18 17 16 16 16
34 33 30 28 29 29 28 26 27 26 24 23 23 22 22 23 25 27 24 22 23 24 24 22 18 16 14 15 16 15 13 13 15 16 15 14 13 13 12 12 12 13 14 16 17 18 18 17 17 16 16 16 17 18

GFSWCAN_700_spd_003.txt.gz
Wind_Speed
46 55 52 47 44 42 42 38 37 37 35 33 32 30 28 29 31 31 28 25 27 30 28 30 26 25 25 26 25 23 23 24 23 20 19 19 17 17 19 22 26 29 24 12 20 18 18 13 22 25 37 58 50 45
24 38 47 60 53 51 50 42 40 38 34 37 36 33 30 31 34 35 33 31 32 33 33 32 32 26 28 25 27 26 30 23 21 19 22 23 28 36 37 41 32 35 34 36 31 31 35 40 48 44 45 47 50 43
24 23 26 32 42 47 52 53 52 53 51 44 44 35 34 31 33 35 33 31 32 38 40 41 37 30 33 33 30 35 36 32 32 32 35 39 40 37 36 35 39 36 29 41 47 48 39 48 45 40 39 43 46 43
22 26 26 28 34 34 36 33 37 39 39 40 41 41 39 37 38 36 35 31 33 35 42 49 40 39 35 34 40 37 36 33 36 31 37 42 41 38 48 52 46 44 44 47 57 46 50 43 36 44 46 43 41 47
23 23 26 27 27 33 38 39 36 40 38 35 44 50 48 46 44 40 44 44 42 37 39 38 36 36 20 26 30 34 33 30 37 39 41 46 49 49 56 55 54 50 50 50 57 50 39 49 46 46 44 46 43 43
25 26 27 27 28 31 31 34 36 37 39 38 38 39 36 32 33 41 41 44 43 44 42 52 52 56 46 45 47 47 42 38 35 44 47 50 47 41 47 55 50 25 28 49 49 43 44 43 47 41 37 41 41 42
24 26 25 27 28 30 31 33 33 35 38 39 39 33 38 38 42 44 47 49 44 39 44 43 45 43 32 26 25 28 34 37 36 38 47 49 47 45 52 59 53 46 45 39 33 37 40 38 36 35 38 40 44 49
23 23 24 26 28 29 30 31 32 32 34 35 40 43 40 37 42 40 40 42 40 38 39 31 40 39 35 22 19 24 27 31 39 42 48 47 47 46 49 56 49 37 31 31 32 34 34 35 36 34 38 45 52 52
22 23 22 22 23 25 27 29 31 32 32 32 32 33 38 40 36 36 38 43 43 43 32 36 46 34 27 23 21 22 27 34 37 41 47 39 43 42 52 43 36 33 33 38 38 36 30 28 32 38 47 49 50 51
24 24 23 20 18 19 20 21 23 26 28 29 29 31 29 29 29 30 31 35 35 38 39 39 37 29 29 23 21 23 22 24 18 33 34 41 45 36 35 33 29 32 38 40 28 24 27 33 36 40 44 47 46 43
26 26 25 23 19 16 14 13 14 17 20 22 23 24 25 24 23 24 22 17 15 16 25 34 36 37 36 33 30 22 18 14 14 23 21 22 26 18 19 21 28 26 19 17 20 26 32 37 42 45 44 43 41 37
26 26 26 24 21 19 16 14 13 11 11 11 12 15 16 17 12 10 10 10 11 8 11 11 11 14 15 14 12 10 14 9 13 19 19 19 17 18 20 26 17 19 21 23 29 34 39 40 42 42 42 40 38 33
24 25 25 24 22 20 19 18 17 15 14 14 14 14 8 10 14 10 12 7 8 12 14 13 14 16 17 16 13 12 9 11 10 7 7 13 18 17 15 16 19 26 35 38 38 38 40 43 43 44 39 37 30 29
22 23 23 23 22 21 20 19 17 16 16 15 13 11 10 9 11 12 14 15 16 14 14 16 19 14 14 11 11 7 12 16 13 16 19 21 16 20 26 32 39 44 43 43 45 47 48 46 46 42 38 37 30 27
20 20 21 20 20 20 19 19 19 18 17 15 9 9 15 15 11 7 8 12 14 13 14 16 18 19 20 13 11 9 9 11 14 19 19 22 28 37 42 48 50 48 50 51 50 52 49 46 43 41 37 36 30 25
19 20 20 19 19 18 18 19 19 18 19 18 13 13 12 9 12 11 9 11 14 17 19 21 15 12 13 10 15 15 16 27 31 28 31 33 34 43 48 45 46 46 45 46 46 44 43 40 38 36 34 33 26 17
19 19 18 19 18 18 19 18 17 18 13 15 22 24 21 17 17 18 20 21 25 27 28 27 18 18 15 16 23 22 31 37 38 39 39 39 44 45 48 47 45 44 43 46 48 44 39 32 34 31 29 26 17 14
18 18 19 19 19 20 20 20 20 20 25 28 27 26 23 23 24 25 24 24 24 24 23 21 17 21 22 26 33 35 36 39 41 43 47 45 46 48 44 42 42 43 45 45 41 41 35 34 27 24 22 17 14 8
19 18 18 18 19 19 19 21 23 26 30 31 31 29 27 27 24 21 19 19 21 19 20 25 17 24 29 30 33 35 36 41 45 47 50 50 47 46 43 44 44 43 42 40 40 37 32 23 21 20 18 14 9 9
16 16 16 17 17 19 20 23 25 27 29 30 27 22 21 19 18 17 17 18 19 22 28 34 37 38 37 35 33 36 38 40 42 46 48 47 46 44 43 44 41 38 38 38 33 26 20 19 17 17 15 9 9 11
14 14 14 14 12 14 17 17 16 14 16 19 16 15 17 18 19 20 19 19 23 30 34 35 36 33 30 33 35 36 38 40 43 44 48 50 48 46 45 43 39 36 34 32 27 20 19 16 15 14 10 8 11 13
13 14 11 13 13 15 20 19 16 15 17 20 21 22 24 25 27 26 24 25 28 30 24 23 26 28 29 32 35 37 39 41 43 45 45 44 44 42 40 37 34 33 30 27 22 19 17 16 14 10 8 11 13 13
16 15 14 15 16 16 16 16 20 23 22 22 21 20 23 25 29 29 30 29 23 18 23 24 27 30 32 35 34 36 37 36 37 37 36 36 37 35 37 35 32 29 26 22 19 20 18 12 8 11 12 13 14 13
20 21 23 17 19 15 19 22 26 24 24 26 27 28 29 25 25 30 31 24 21 24 20 20 23 26 25 25 29 33 34 33 35 35 33 33 34 31 30 25 22 22 22 20 18 16 11 11 12 13 14 14 14 14
20 19 24 24 29 26 29 28 29 30 33 27 27 24 22 20 25 27 35 26 16 14 16 19 21 20 24 29 27 28 29 30 31 29 31 33 27 25 21 19 20 24 22 17 14 13 14 13 13 14 15 15 14 14
21 18 20 22 25 29 29 29 28 31 29 22 24 24 23 21 20 23 31 25 15 14 15 16 20 25 26 28 30 28 26 27 27 29 22 15 17 18 19 20 24 23 16 12 14 15 14 12 13 15 15 14 14 14
26 23 23 25 26 29 28 30 27 25 23 24 22 20 24 19 19 30 21 15 16 21 21 21 23 25 25 24 21 22 24 24 24 22 20 18 17 16 16 17 20 14 12 13 14 14 13 13 14 14 15 15 15 15
34 34 33 32 33 32 32 31 29 30 33 28 26 25 25 24 30 23 25 26 29 29 27 24 22 23 24 24 22 23 23 24 24 22 21 20 16 12 11 10 11 13 14 14 14 13 13 14 15 16 16 17 17 17
38 36 34 34 33 33 38 40 41 40 39 32 34 36 35 32 31 30 30 27 22 23 24 23 23 27 29 29 26 24 26 27 25 22 22 18 13 13 12 11 12 16 16 15 16 15 15 16 16 17 18 19 20 20
34 33 37 35 36 39 40 39 36 33 35 35 35 37 38 34 27 30 27 25 24 22 23 25 27 30 31 28 25 26 27 24 23 23 23 20 20 16 15 15 14 13 16 20 22 17 16 17 19 19 20 22 22 22
26 24 26 26 29 27 27 28 30 31 32 32 31 33 32 28 28 28 27 26 25 24 25 27 27 27 26 26 27 25 22 19 19 21 23 22 23 23 22 20 19 20 22 23 19 17 17 18 20 21 22 23 23 23
32 31 30 32 33 31 26 25 26 27 29 29 28 26 27 26 26 29 26 26 26 25 24 25 26 27 26 25 23 20 18 17 18 16 14 13 12 12 13 15 16 17 17 16 14 13 16 19 20 21 22 22 21 21
31 31 32 34 36 38 38 34 34 34 33 31 29 27 26 25 28 30 26 23 23 24 25 25 23 21 19 17 16 16 17 17 16 14 15 16 16 15 15 14 14 13 13 14 16 17 18 20 21 21 21 21 21 21

GFSWCAN_700_spd_006.txt.gz
Wind_Speed
54 45 44 46 45 44 43 40 38 38 35 35 32 29 28 26 24 24 23 23 25 28 25 26 24 21 21 22 22 23 22 22 22 21 21 24 17 16 18 18 20 22 22 26 26 19 20 12 24 29 49 53 48 60
49 51 48 43 45 45 44 41 43 39 37 37 35 32 30 29 27 28 25 25 29 31 31 31 29 27 23 22 25 25 27 22 16 18 22 21 26 32 33 36 31 21 19 29 31 30 49 50 49 50 50 51 48 43
20 36 43 48 40 39 44 46 43 41 41 39 37 34 31 31 30 30 29 28 29 33 39 38 34 28 33 33 31 36 34 33 33 32 34 34 35 38 39 28 33 23 34 39 43 50 49 48 42 42 42 44 49 32
22 18 27 46 46 46 43 48 47 47 45 43 39 37 38 40 38 38 35 32 33 35 42 46 38 38 34 37 41 32 37 31 35 34 34 42 46 38 43 48 37 37 45 47 54 49 44 43 47 47 42 45 37 41
16 18 20 19 21 25 34 46 58 59 53 49 48 47 47 45 43 40 37 38 36 36 38 41 46 46 44 40 27 23 25 26 29 40 41 46 45 45 51 53 48 40 43 41 45 41 45 50 40 38 42 35 47 32
17 24 18 20 23 21 23 26 30 31 30 31 32 35 31 33 38 40 44 43 43 43 46 56 53 44 43 35 39 35 36 36 38 43 49 47 49 41 46 53 49 42 38 37 50 35 36 41 43 42 38 49 23 30
24 21 22 20 18 21 20 21 23 26 29 31 32 32 36 36 36 36 42 43 36 31 40 44 42 43 35 31 24 23 28 31 34 38 43 45 47 46 49 55 49 49 47 40 31 36 35 35 36 38 28 25 30 38
21 21 20 22 24 23 21 22 24 25 26 27 29 32 34 34 40 41 45 42 41 39 35 36 43 43 32 27 29 29 28 29 37 43 46 44 44 47 53 52 52 42 32 29 38 40 40 41 42 38 36 34 41 46
22 21 19 19 19 21 25 25 23 25 26 26 26 27 29 35 37 39 37 35 36 36 35 38 44 38 32 27 23 21 27 36 37 42 43 44 49 48 52 48 40 33 41 40 45 33 30 38 37 34 37 41 49 53
23 22 21 20 20 20 20 21 23 25 25 25 24 24 26 32 34 35 40 44 42 42 38 41 37 30 29 35 32 24 19 21 22 37 30 37 48 42 42 42 32 32 31 34 35 36 29 29 33 38 44 47 46 46
26 26 24 22 21 20 18 18 20 23 24 24 26 27 30 32 32 33 23 17 16 15 20 32 35 36 34 30 29 23 10 10 12 21 20 23 29 24 11 17 24 26 29 33 33 28 27 35 42 45 45 44 42 44
27 27 26 25 23 20 19 17 15 16 19 20 20 21 22 22 18 13 12 13 12 10 11 13 16 18 21 20 11 9 11 8 11 17 16 21 22 17 21 23 26 25 26 27 30 38 43 47 49 49 48 48 46 44
27 27 26 25 23 21 20 18 15 13 13 13 13 13 9 11 15 10 12 8 8 13 16 16 14 12 12 11 8 8 8 11 14 11 15 19 12 19 12 12 17 21 30 37 46 51 51 49 47 46 46 46 42 40
26 25 24 24 22 22 21 20 19 17 16 14 11 10 8 7 8 10 13 14 16 15 14 14 14 9 12 12 11 8 11 12 10 17 21 23 15 15 20 26 28 34 45 50 50 48 48 47 44 45 45 45 40 36
23 22 22 22 23 21 21 20 20 20 18 17 9 7 13 15 14 10 13 16 15 15 16 16 17 17 17 11 9 8 7 10 14 19 19 20 21 24 28 36 42 48 51 49 46 49 43 41 43 45 42 36 34 34
21 22 24 23 22 21 20 19 21 20 21 20 14 13 15 13 15 15 11 10 12 14 15 16 15 11 14 11 15 14 14 24 27 25 26 30 33 39 46 48 49 50 49 48 47 46 45 46 46 41 36 33 32 29
22 22 19 19 19 20 22 23 20 19 13 16 21 26 23 14 6 8 9 10 15 18 22 23 13 15 13 14 21 22 28 30 31 33 36 41 42 44 49 50 49 48 51 51 46 43 42 41 41 37 34 29 24 20
20 18 18 18 20 21 21 19 18 18 22 25 23 23 20 17 16 17 18 21 26 27 26 26 23 24 24 29 32 32 32 37 40 43 43 42 42 43 46 48 47 47 46 43 41 37 38 38 37 32 26 19 17 16
19 18 18 18 17 17 16 17 20 21 24 26 27 28 25 24 24 23 25 24 24 23 22 24 20 29 36 37 35 36 35 36 39 41 42 42 45 46 46 45 43 43 43 43 41 40 38 37 34 24 18 16 16 14
17 17 17 16 16 17 17 20 22 24 26 27 28 26 24 23 21 18 17 19 20 24 29 35 41 41 41 39 36 36 36 37 40 43 44 42 42 42 43 43 42 41 39 36 37 35 34 33 24 18 16 14 15 13
17 17 18 18 18 16 19 20 19 16 17 21 20 16 14 14 16 14 13 16 24 33 36 36 35 35 33 32 31 32 35 36 38 39 43 46 43 40 40 38 35 33 33 32 31 32 31 26 21 16 12 14 13 12
15 17 17 17 17 18 21 21 15 13 17 19 17 17 19 21 22 22 22 27 29 29 28 29 28 26 27 29 32 34 36 38 37 36 39 40 40 39 39 36 34 35 34 33 32 29 26 21 15 15 14 12 11 13
14 13 12 12 15 14 13 13 15 17 18 20 19 18 20 21 24 25 27 28 27 16 18 23 24 26 30 33 35 35 31 26 31 35 34 33 35 37 35 33 35 33 31 28 24 22 20 17 18 17 12 10 13 15
13 15 16 12 14 14 15 16 18 19 21 20 19 23 27 28 27 29 34 32 22 23 22 22 23 26 28 28 28 27 27 29 32 33 32 34 35 34 37 29 25 25 23 20 19 21 18 19 17 12 10 13 15 17
21 18 22 21 23 20 23 23 23 22 25 24 26 24 26 21 23 28 33 27 23 17 17 18 19 20 22 24 25 26 24 27 30 32 27 30 33 27 23 22 23 23 19 21 21 22 21 16 12 13 14 14 16 17
22 17 16 20 25 27 26 24 26 28 27 25 26 25 23 21 20 23 28 22 17 14 14 15 18 20 22 23 26 25 25 26 26 27 26 27 28 25 24 24 25 19 20 22 18 14 13 12 14 14 13 15 16 16
23 20 20 25 25 24 24 28 28 25 22 25 27 22 20 17 19 32 22 16 17 16 18 20 23 27 28 29 28 25 26 27 27 27 26 27 25 26 26 24 21 17 18 16 10 11 13 14 14 14 15 16 16 16
33 30 30 29 29 31 31 31 30 28 29 28 26 26 25 25 31 27 22 28 32 32 32 32 32 31 29 28 27 29 30 32 30 28 27 27 24 23 20 18 19 17 14 12 13 14 14 15 15 17 18 18 18 18
38 38 36 35 33 31 33 36 37 37 34 34 35 35 37 36 34 34 31 33 35 32 30 30 29 28 26 27 30 31 32 30 28 28 29 27 23 21 19 19 19 17 15 15 16 17 17 18 18 19 20 20 20 20
38 33 33 34 34 37 37 36 36 31 33 35 34 34 36 32 27 28 29 32 33 32 31 31 30 28 28 29 30 29 27 28 29 29 28 25 22 22 21 21 21 20 18 18 17 17 19 21 22 21 20 20 20 22
30 27 29 29 31 30 29 27 27 28 28 24 22 25 26 26 26 27 29 28 27 27 26 26 26 27 29 29 29 29 29 29 26 23 22 22 22 19 18 19 20 23 24 21 23 21 18 17 16 18 21 20 21 23
33 35 32 35 40 37 33 34 35 36 34 33 35 36 34 32 31 32 30 25 23 23 24 23 24 26 27 27 28 27 25 22 19 19 20 20 18 16 15 15 14 14 14 14 15 17 19 20 20 19 19 21 22 23
34 33 33 33 33 32 30 32 35 35 34 33 32 31 29 29 29 32 30 26 25 24 23 24 24 24 23 23 22 21 20 19 19 19 18 17 16 17 16 15 15 15 15 15 15 16 17 18 19 20 21 22 23 23

GFSWCAN_700_spd_012.txt.gz
Wind_Speed
53 48 46 41 38 36 34 32 31 30 29 28 27 26 24 22 20 19 20 19 18 17 17 15 14 14 15 16 17 18 18 22 21 18 16 18 15 15 18 21 20 21 16 21 17 12 14 14 15 32 46 54 42 45
48 44 48 41 36 34 34 33 33 32 30 29 29 28 26 25 22 22 22 21 22 21 19 18 17 17 16 17 19 22 24 25 17 16 19 20 24 29 31 33 32 28 28 31 29 30 39 41 42 38 41 40 45 43
44 45 48 42 39 35 35 35 34 34 33 31 31 29 28 27 25 24 23 24 25 26 27 27 26 26 25 25 26 28 29 30 33 29 31 33 35 37 37 28 22 28 37 40 37 50 41 39 34 35 38 41 41 45
30 47 52 47 45 41 39 38 37 36 35 35 34 33 31 29 28 26 24 25 25 27 35 35 31 23 23 29 34 34 30 28 26 31 33 37 39 33 37 39 41 41 31 43 46 37 36 35 37 42 41 43 47 43
21 30 43 49 45 44 43 43 40 38 39 36 35 34 33 30 33 27 28 29 29 31 33 35 35 35 42 46 41 38 36 35 30 33 40 41 41 40 44 48 44 41 46 38 45 35 36 42 40 44 44 44 49 29
16 28 34 42 42 48 43 40 42 40 38 35 36 35 35 33 32 30 32 31 28 30 38 47 50 53 43 35 24 26 32 36 36 42 39 42 39 35 38 36 50 43 42 40 36 38 35 37 38 42 46 28 27 26
11 12 12 10 16 28 42 41 37 35 33 33 30 27 33 36 33 33 36 38 32 34 36 35 32 18 17 16 13 21 22 25 27 32 40 40 40 42 47 50 45 47 41 44 31 31 37 40 39 38 30 24 30 36
16 14 15 11 11 9 13 18 24 36 36 31 32 33 34 35 37 37 37 36 30 27 29 23 21 23 19 27 27 24 18 20 30 34 37 37 39 41 47 46 43 37 36 39 35 39 38 36 36 22 23 27 34 39
21 17 15 13 11 13 12 13 10 13 17 17 19 23 25 31 37 34 29 25 29 30 31 32 26 26 23 16 12 22 34 37 31 35 34 34 39 39 45 40 36 37 36 38 31 36 40 32 33 25 27 31 39 44
25 20 16 16 18 17 16 14 16 17 14 14 17 22 25 25 21 22 21 21 22 24 35 38 35 29 30 33 34 28 18 21 20 29 25 31 38 35 27 25 27 31 33 34 35 32 35 24 25 27 36 41 48 51
23 22 22 20 15 14 13 12 13 17 21 18 19 20 22 21 23 21 16 16 15 20 24 31 33 37 35 29 23 18 12 9 10 14 13 14 21 16 20 22 24 26 28 29 31 22 22 22 31 37 43 48 55 53
23 22 21 20 19 18 16 14 13 13 15 18 18 18 16 14 11 10 12 13 14 13 16 16 16 16 19 19 15 12 15 8 8 10 8 7 9 17 19 21 25 26 21 27 31 26 27 32 42 48 52 55 52 46
23 21 20 19 18 18 17 16 15 15 14 13 15 16 12 14 15 11 15 15 15 18 20 18 14 12 14 13 11 9 7 10 11 7 6 11 15 15 16 14 21 23 25 29 28 36 44 50 54 54 52 49 47 45
23 21 20 19 19 18 17 17 16 13 11 12 11 11 10 9 11 19 18 14 17 14 12 11 9 8 10 9 10 6 8 7 5 6 13 17 20 19 20 21 23 27 32 38 44 49 53 56 53 49 47 45 44 43
22 20 19 18 17 16 17 17 15 13 13 11 8 8 15 16 11 7 11 14 14 13 12 12 15 16 12 10 7 8 6 6 8 10 15 18 18 23 27 32 37 43 47 51 53 51 47 47 46 47 46 44 41 39
21 20 19 17 16 16 18 16 15 15 16 15 12 13 9 7 9 11 11 12 12 12 12 11 12 8 9 8 10 10 7 13 15 18 17 22 29 34 39 43 44 46 50 46 43 43 44 45 45 46 46 42 39 36
20 18 14 15 15 15 16 15 14 15 11 12 16 19 18 15 10 10 11 13 13 14 14 12 8 8 8 10 12 17 25 25 24 26 29 30 35 41 45 48 43 40 40 40 41 43 44 43 42 42 41 37 33 32
14 12 13 15 15 16 17 17 15 15 17 20 15 14 13 14 14 12 12 13 14 12 13 17 19 21 19 22 33 35 31 31 31 34 38 39 40 41 39 38 37 39 38 39 40 40 38 40 39 37 36 34 30 29
15 14 15 15 16 16 18 18 21 16 19 18 18 17 16 14 13 11 12 14 17 20 23 28 21 29 37 36 33 30 30 32 33 35 35 35 38 37 36 35 36 35 37 39 39 41 40 36 35 37 34 32 30 26
15 14 15 16 15 17 16 14 17 18 16 18 17 15 15 13 13 16 18 21 24 27 31 36 38 34 31 25 27 29 30 32 35 37 37 34 32 34 35 32 33 35 36 37 40 40 40 36 29 29 28 25 23 18
16 17 16 14 16 18 19 11 10 11 11 12 12 12 13 12 13 13 16 18 23 31 34 29 27 26 27 31 32 32 33 31 32 31 33 35 34 31 30 31 31 33 36 38 35 29 25 25 26 23 20 19 16 12
15 14 14 16 16 16 16 15 11 11 13 16 17 17 19 16 14 14 15 21 27 25 23 26 24 25 28 28 25 27 27 28 30 29 26 25 29 30 30 30 33 34 33 34 33 30 27 22 19 20 20 15 11 12
15 15 15 15 13 10 10 13 16 16 16 18 14 14 18 17 16 13 18 20 24 22 22 23 24 23 24 25 28 28 24 22 23 23 24 26 28 28 30 31 31 32 33 31 31 30 25 20 16 16 16 14 15 17
14 14 14 10 11 12 13 13 14 12 13 13 13 15 17 17 18 22 27 25 20 19 18 18 19 21 23 25 24 21 18 20 23 25 25 28 28 27 27 29 31 32 32 32 31 26 24 19 18 17 16 17 20 18
15 13 9 12 13 13 16 16 14 13 13 14 18 19 23 21 21 26 29 25 17 15 16 15 18 19 20 19 18 19 22 26 27 32 33 32 31 30 29 32 33 30 29 29 27 23 20 19 20 19 19 18 16 14
13 8 8 10 13 15 14 15 14 14 15 15 20 21 22 22 26 24 28 18 14 14 15 17 16 17 19 22 25 26 28 30 33 34 33 32 29 29 32 34 29 26 28 27 24 23 21 17 14 13 14 13 14 15
18 14 16 19 20 18 17 18 18 18 19 22 24 23 22 22 24 28 24 22 21 19 19 21 25 27 30 33 35 35 33 34 36 35 31 28 27 30 32 32 30 29 27 25 24 23 20 18 15 14 14 14 15 16
24 28 29 26 27 26 24 24 25 26 27 28 27 29 30 31 34 28 27 27 28 30 32 34 36 37 37 36 36 35 35 35 33 31 28 26 29 31 32 31 30 28 26 24 22 21 21 19 17 18 17 17 17 19
30 30 31 32 29 27 28 30 34 35 32 30 30 31 32 31 30 31 29 29 30 32 33 30 26 28 30 31 32 33 33 31 29 27 26 27 27 29 28 26 24 23 23 23 22 22 22 23 22 22 22 23 22 22
30 28 30 30 30 33 33 29 29 25 25 27 29 31 31 30 27 28 30 29 28 27 24 26 30 32 31 30 30 28 28 26 25 25 26 27 27 25 23 21 20 21 20 18 17 17 19 22 24 24 24 24 22 21
23 25 29 30 32 30 27 26 28 28 28 28 30 34 36 34 33 33 33 32 30 30 32 33 32 31 31 30 29 27 27 26 25 25 24 23 22 21 21 20 20 19 18 18 17 17 17 16 15 14 13 13 15 17
25 27 29 32 34 31 31 32 33 33 33 33 34 33 33 31 31 31 28 26 25 23 23 23 24 26 28 28 26 25 24 22 21 21 21 20 20 20 19 19 19 19 18 18 18 18 18 18 17 17 16 17 18 19
26 26 27 30 33 33 34 32 33 34 32 32 30 27 25 24 24 27 26 22 22 21 20 20 20 20 20 20 19 19 19 19 20 20 19 19 20 20 20 21 21 21 22 22 22 22 22 23 23 23 23 23 22 22

GFSWCAN_700_spd_015.txt.gz
Wind_Speed
51 49 46 43 41 38 36 35 34 33 30 29 27 25 24 24 23 21 19 18 16 16 16 14 14 16 17 18 18 18 15 18 19 18 17 18 14 15 18 20 20 19 16 24 20 10 14 19 20 26 40 48 44 45
46 48 46 45 44 43 40 35 33 32 32 30 28 26 25 24 24 22 21 20 18 18 15 13 16 18 19 20 21 22 22 21 14 17 17 16 21 26 30 30 32 28 30 30 23 19 39 44 46 47 39 39 41 40
51 47 49 48 47 43 39 38 36 33 32 31 29 28 27 26 26 24 23 22 21 21 21 21 19 21 21 24 25 26 25 24 26 28 31 32 34 33 34 28 29 28 32 37 38 41 46 39 42 37 30 36 41 36
36 44 54 50 45 45 42 38 35 33 32 31 29 29 28 28 28 28 26 25 24 24 27 23 21 20 25 29 32 24 18 24 28 30 34 36 37 33 36 38 34 39 40 40 42 43 38 40 39 41 32 41 39 47
23 34 43 50 49 50 43 39 37 34 33 32 29 28 29 30 29 29 30 29 27 26 24 22 24 27 29 29 34 28 33 37 34 39 36 38 40 39 45 44 40 41 34 42 43 37 42 45 49 39 37 39 45 47
20 27 34 44 43 41 44 41 37 35 35 34 31 29 31 33 33 32 33 32 28 27 29 33 34 34 37 38 38 41 40 29 27 35 37 39 38 37 40 38 35 37 41 33 46 41 37 38 44 40 31 40 37 18
15 23 28 35 42 52 47 43 43 39 38 36 31 30 31 33 34 34 35 32 25 23 29 33 30 15 7 6 8 11 13 19 23 28 35 32 29 35 42 49 43 40 39 40 33 35 37 40 34 31 39 33 33 22
12 24 23 30 33 42 50 49 46 40 38 35 32 34 33 33 33 35 33 34 28 27 33 27 25 23 23 18 18 20 23 22 26 28 30 33 40 36 36 41 35 34 34 32 35 38 36 35 34 35 36 27 25 28
13 15 14 13 12 15 21 38 45 41 40 38 41 35 31 33 34 35 32 29 29 27 30 33 27 23 19 16 16 20 22 20 28 37 37 31 28 24 25 24 34 34 35 33 33 33 32 30 31 36 35 29 33 36
22 18 21 14 14 16 13 10 13 12 21 31 36 26 29 37 32 31 27 29 36 35 38 37 30 23 25 24 16 21 26 31 21 23 21 24 31 28 32 30 30 29 32 32 31 25 27 30 32 35 42 41 45 49
24 23 20 17 16 15 15 14 15 16 18 21 25 29 22 19 18 19 13 13 13 13 19 33 31 28 25 22 20 24 13 9 13 19 20 17 22 24 25 25 27 27 28 29 27 28 28 32 32 37 43 51 51 46
25 24 20 19 17 16 17 18 17 19 21 21 21 19 22 19 14 11 11 12 12 12 14 15 18 19 21 21 15 11 16 9 9 9 8 6 14 18 22 22 23 25 24 19 25 29 32 34 45 51 52 52 51 51
24 23 22 20 19 17 15 13 11 12 12 15 18 16 11 12 12 13 14 11 10 17 22 19 15 13 14 13 10 11 8 9 9 7 6 13 19 21 19 19 21 21 23 26 30 38 45 48 52 54 52 50 49 49
24 23 21 20 19 18 17 16 13 12 12 15 13 12 11 9 11 22 24 21 20 17 16 13 12 8 11 9 10 6 9 7 5 6 14 21 21 21 21 23 25 27 32 37 45 49 51 54 52 49 48 47 48 46
23 21 20 19 18 17 16 14 12 11 12 12 9 8 16 17 14 10 14 18 17 15 14 11 11 13 12 9 7 8 6 6 7 8 13 17 19 21 23 27 32 38 43 49 52 53 51 44 44 45 45 44 43 44
25 21 20 18 17 16 14 12 12 12 14 13 12 11 9 8 9 11 11 10 10 11 10 10 10 7 10 8 9 9 6 11 13 13 14 17 22 28 33 38 43 44 47 48 44 41 41 41 43 43 42 41 42 40
25 23 22 20 18 16 14 14 14 14 11 12 14 18 17 12 8 8 8 8 8 10 11 9 8 9 8 9 10 15 20 17 17 18 21 25 32 36 40 44 45 41 40 38 39 40 41 41 42 44 45 39 38 38
22 21 19 18 17 15 13 14 14 13 15 16 12 11 13 12 13 14 15 15 15 16 15 19 18 17 13 17 25 22 22 26 29 32 34 36 39 40 38 37 36 34 36 37 35 36 38 41 44 43 40 37 35 33
20 19 19 17 16 16 16 17 18 11 15 15 14 14 14 13 12 13 14 13 13 14 17 22 17 21 27 28 25 25 27 30 33 34 35 36 36 35 33 31 33 32 32 33 34 36 37 39 38 34 32 31 31 27
20 19 19 18 17 18 18 15 15 17 13 14 13 12 12 11 12 14 16 18 20 22 27 33 34 33 29 25 24 25 27 33 36 37 35 31 28 29 31 30 28 30 31 32 34 35 36 35 32 32 30 25 25 23
21 19 16 16 17 18 16 9 11 10 11 13 10 11 12 12 14 15 18 20 25 31 35 32 27 20 20 25 28 31 32 31 32 32 31 31 30 30 28 28 30 31 32 33 34 33 34 34 35 31 26 24 23 18
15 15 16 16 16 16 17 13 10 10 11 11 11 11 13 14 14 14 18 23 29 27 23 20 21 24 27 29 29 29 31 31 31 31 29 28 28 27 28 29 29 28 28 32 35 35 35 35 33 26 22 20 17 15
14 14 14 13 12 11 10 13 14 14 13 14 11 11 12 10 9 10 17 20 19 16 18 24 25 27 30 30 29 28 27 27 27 26 24 23 24 25 29 31 32 32 33 33 36 33 32 33 30 25 23 19 16 16
13 13 13 9 11 10 11 12 11 11 11 9 9 9 12 12 13 17 23 20 16 16 19 23 23 23 21 20 21 19 18 19 20 21 23 26 30 31 33 34 34 34 33 36 32 31 31 29 28 26 23 19 18 20
14 12 8 11 11 11 14 13 11 10 8 7 11 12 14 17 20 24 27 24 17 17 19 21 19 18 20 17 15 17 19 23 26 29 30 33 35 34 33 33 30 27 30 32 31 31 30 26 24 24 22 19 17 16
12 10 8 8 11 12 10 9 7 7 9 11 13 16 17 20 25 25 28 22 15 16 16 17 19 20 21 21 23 25 27 31 35 35 34 35 36 35 33 32 28 27 31 31 31 31 30 26 23 23 21 19 18 18
13 9 13 14 13 11 11 11 13 15 17 19 21 21 23 23 25 26 19 19 23 24 23 21 22 24 26 30 33 35 35 35 36 37 35 35 33 31 31 30 29 29 30 30 29 28 27 25 23 21 22 22 20 19
15 18 18 16 18 17 19 22 23 25 25 25 25 27 25 25 30 29 28 28 28 30 30 33 33 35 35 35 32 31 32 34 33 32 31 31 30 28 28 28 29 30 29 28 26 25 25 24 24 24 24 25 25 25
25 25 25 24 22 24 29 32 34 32 29 28 29 32 34 33 33 33 31 29 28 28 30 30 30 30 28 27 28 33 35 35 33 31 31 29 27 27 27 27 27 26 25 25 24 24 22 21 21 23 26 27 27 27
23 24 27 29 28 28 28 28 29 25 24 27 31 35 37 37 34 32 31 32 33 33 34 34 33 32 33 34 36 38 39 37 34 30 29 28 27 26 26 24 23 22 22 22 21 20 20 20 20 20 21 20 19 18
19 21 23 24 28 30 31 31 33 34 35 36 35 37 39 37 35 35 35 35 36 36 35 33 31 31 31 30 29 30 32 32 31 28 27 25 23 22 22 22 21 21 20 20 20 20 20 20 21 21 20 19 18 17
19 21 22 25 27 27 28 30 31 34 36 39 42 40 36 32 31 32 32 32 32 32 28 25 25 24 25 24 23 23 22 22 21 19 19 20 21 21 21 21 20 21 21 21 22 23 23 23 24 24 24 24 23 23
20 19 19 21 23 25 24 25 29 28 24 26 27 25 23 25 30 32 30 28 28 27 23 23 24 22 21 20 18 19 20 20 20 20 20 20 20 21 21 21 21 22 23 24 25 25 25 24 23 23 22 21 21 21

GFSWCAN_700_spd_018.txt.gz
Wind_Speed
44 42 40 38 37 37 38 35 33 32 29 27 26 25 24 22 21 20 19 18 17 16 15 14 16 16 17 17 17 16 16 19 20 19 16 15 11 12 17 20 19 20 16 22 17 11 12 11 22 25 42 44 46 51
44 53 44 41 39 39 37 36 34 33 31 29 28 27 25 24 23 22 21 20 19 18 15 15 17 17 17 17 17 19 21 24 15 15 12 11 16 24 27 29 27 26 30 23 22 26 38 43 42 38 41 44 47 50
35 47 49 49 46 42 38 37 35 34 32 31 29 28 27 26 25 24 22 21 21 20 20 21 20 20 19 18 20 22 24 26 26 25 25 26 30 30 31 28 30 31 28 32 37 40 37 34 32 37 41 46 43 46
32 39 48 52 48 43 43 39 35 33 33 32 31 29 28 27 26 25 24 24 23 23 25 22 17 19 23 21 19 23 28 32 32 30 28 30 35 32 35 39 31 38 37 43 43 39 33 36 34 39 35 47 40 31
19 33 43 47 50 44 45 42 39 38 35 33 32 31 29 28 26 26 26 25 25 23 22 19 19 23 28 22 22 25 27 29 27 30 36 41 38 40 40 39 35 32 35 33 39 39 35 47 40 36 44 40 43 32
11 23 33 42 51 50 43 44 39 37 36 34 33 30 29 27 26 26 27 28 26 26 29 33 32 29 29 31 30 33 33 34 38 41 42 39 32 32 38 32 35 31 34 38 40 38 44 35 39 36 40 39 29 45
12 14 23 31 40 51 42 42 40 41 38 35 34 32 30 27 27 27 28 26 24 24 27 28 30 33 31 27 16 16 21 18 23 30 37 35 34 35 42 42 37 39 30 29 30 35 35 38 39 39 32 32 33 34
13 15 21 24 28 36 46 44 46 42 39 35 33 30 30 30 29 30 30 30 29 28 27 21 23 25 24 22 24 25 24 22 26 29 32 32 31 30 32 36 34 28 30 29 32 35 37 33 32 31 30 31 34 32
12 14 18 25 31 35 40 41 43 48 40 37 32 32 35 31 32 34 29 31 30 29 31 31 27 22 19 17 22 25 24 23 27 28 26 23 28 27 27 27 31 33 32 36 31 30 31 31 31 28 28 29 40 44
13 12 23 19 27 30 35 44 44 37 37 38 35 33 36 38 39 32 33 30 35 34 35 35 25 24 15 12 16 23 22 18 17 23 29 30 24 26 27 33 34 34 30 27 30 30 29 24 25 29 36 41 48 54
19 14 11 15 8 7 15 27 42 48 48 40 41 44 34 33 35 31 26 20 19 17 22 35 37 36 30 27 24 11 12 9 14 17 16 16 22 26 28 29 30 30 28 27 29 31 32 32 35 41 45 49 54 54
22 20 17 17 12 14 14 10 10 24 23 27 26 19 17 12 8 6 7 10 10 13 13 11 10 13 18 20 20 14 20 11 9 11 8 7 19 21 26 27 24 23 26 27 30 31 33 38 43 50 55 55 50 48
23 23 21 17 16 16 17 17 18 17 14 14 14 15 8 7 9 8 12 9 9 11 13 15 16 16 15 13 10 10 8 10 10 7 7 16 22 22 22 24 24 24 25 30 33 36 41 48 52 54 52 46 45 47
24 25 27 21 17 17 18 18 17 17 19 20 19 14 8 6 9 19 19 16 18 19 17 15 15 11 13 10 11 7 9 6 5 7 16 21 19 19 20 20 23 27 31 34 39 45 51 52 50 45 42 44 46 45
24 21 21 20 17 17 16 16 15 12 16 12 9 8 14 15 14 9 12 16 17 18 15 12 12 12 11 9 7 8 5 5 6 7 12 14 15 17 21 25 30 35 40 44 48 49 46 42 41 42 42 42 45 47
26 23 20 20 18 15 15 15 15 16 18 11 10 9 7 9 11 13 12 11 9 11 11 11 10 6 9 8 8 8 4 7 11 11 13 13 17 24 28 33 38 43 46 44 40 39 38 39 40 41 41 43 44 39
27 24 23 21 19 18 15 14 15 17 13 12 12 14 12 10 8 9 9 10 10 11 11 9 7 9 7 8 8 11 18 16 12 11 18 25 30 35 39 39 39 38 37 36 35 36 35 37 37 38 40 41 40 38
29 24 21 19 18 17 18 19 16 16 17 17 11 10 12 14 15 15 15 16 16 16 16 19 18 17 12 15 20 17 14 16 24 29 33 36 37 35 37 38 35 32 31 32 32 33 34 35 37 37 39 39 40 36
28 25 21 19 18 17 19 19 19 13 14 12 12 11 11 12 13 14 15 15 15 16 18 21 15 18 22 25 23 21 23 29 33 37 38 36 35 33 30 28 28 29 29 29 30 31 34 36 35 36 38 38 38 32
25 24 22 21 20 19 13 11 13 14 11 11 11 12 12 11 13 15 15 15 17 20 24 28 28 28 27 26 26 27 29 31 33 34 34 32 31 29 29 29 27 27 28 28 27 28 31 36 37 35 36 36 33 28
25 26 26 20 18 16 14 8 10 10 10 14 12 10 13 13 15 15 17 19 23 29 31 30 27 25 21 23 24 27 30 33 34 34 34 31 29 29 28 25 26 26 29 30 30 31 33 38 39 34 33 33 30 26
21 19 19 19 19 18 17 12 10 10 8 7 8 10 13 13 14 17 20 24 27 26 24 21 20 22 24 25 28 30 31 32 32 33 31 30 30 26 24 25 28 30 33 34 35 36 35 37 35 32 31 30 29 26
17 17 16 14 12 12 10 14 14 13 11 11 11 12 14 12 12 13 17 19 16 14 16 20 23 25 28 28 28 26 24 26 27 24 23 22 22 24 28 31 33 35 35 34 36 34 32 33 32 31 30 27 26 24
16 17 15 12 12 10 9 10 13 13 13 13 13 12 10 11 11 14 19 20 14 16 19 22 24 27 28 28 26 24 24 22 19 20 22 25 27 30 32 32 33 35 36 36 34 31 32 34 32 31 30 28 25 23
15 13 8 10 10 10 12 13 11 11 10 10 10 9 10 10 14 20 25 24 16 16 19 21 23 24 24 22 21 21 20 22 26 29 28 32 36 36 33 32 33 34 33 32 31 32 32 33 32 31 28 26 23 23
11 8 7 7 9 10 9 7 7 9 9 11 10 12 13 16 21 21 28 23 18 17 18 22 25 26 26 26 26 25 26 28 32 35 34 32 31 33 32 31 32 30 29 28 30 31 31 30 30 28 26 24 23 23
7 7 10 9 6 4 4 6 7 8 10 14 18 20 20 21 25 25 19 14 17 21 27 29 31 30 28 28 30 33 35 37 35 30 28 29 30 31 31 31 30 28 27 28 30 31 30 29 28 27 26 25 24 24
8 8 8 8 8 8 11 13 16 18 19 21 24 26 19 20 25 25 27 29 32 33 34 34 34 32 30 29 30 32 33 31 29 29 32 34 36 34 32 30 29 29 29 28 28 28 28 28 28 27 26 25 24 25
13 13 14 15 16 19 22 22 25 28 25 23 26 31 34 35 35 37 39 40 40 39 38 38 35 33 33 35 36 37 37 36 36 36 37 38 36 33 31 29 28 28 26 25 25 25 26 26 26 26 25 25 24 24
16 16 18 19 21 23 23 22 25 25 27 30 35 39 41 42 43 45 46 45 44 42 40 38 37 37 37 38 38 36 34 32 31 32 33 32 31 29 27 26 24 22 22 22 23 23 24 25 25 25 25 25 25 24
19 18 19 21 23 23 24 27 30 31 31 31 30 34 37 35 38 42 44 43 41 38 36 36 37 37 36 33 30 27 28 28 29 27 24 23 22 21 21 21 21 22 22 23 24 24 25 25 26 27 28 28 27 27
17 18 19 21 22 22 23 24 25 26 25 25 25 21 22 25 28 32 32 29 30 30 31 32 33 29 28 27 27 28 27 25 24 22 21 20 20 21 21 22 22 23 23 24 25 25 26 27 28 27 26 24 23 22
16 16 16 18 19 21 21 23 25 27 26 24 19 17 21 24 26 28 28 27 28 29 27 25 25 24 23 21 18 17 17 17 18 19 20 20 20 20 21 22 24 25 26 26 25 25 26 25 24 24 23 23 23 23

GFSWCAN_700_spd_021.txt.gz
Wind_Speed
40 39 39 39 38 36 34 33 32 31 29 27 26 24 22 21 19 18 17 15 14 12 12 11 13 14 14 15 14 12 11 13 13 13 11 13 11 13 14 16 15 19 16 20 13 8 10 7 22 27 37 43 49 42
42 40 40 40 40 37 35 33 31 30 30 28 27 25 23 22 21 20 19 17 16 14 12 13 16 16 17 17 16 16 17 14 11 12 10 11 15 18 19 23 22 23 24 25 24 27 33 39 42 37 39 39 46 42
30 44 39 45 41 39 36 35 33 31 30 29 27 26 25 24 22 21 21 20 19 17 17 18 18 17 18 19 19 18 18 17 18 20 24 25 28 27 25 21 22 32 30 34 33 35 33 36 28 35 40 44 43 35
22 34 47 42 41 37 37 35 35 34 33 30 29 28 27 26 24 24 23 21 20 19 20 20 16 17 22 23 22 21 20 20 20 24 29 31 31 27 27 26 32 40 39 29 35 33 31 35 35 40 38 44 31 35
12 24 32 43 47 43 38 36 33 34 33 32 31 30 28 27 26 25 23 23 22 20 16 13 14 20 23 22 20 25 23 22 25 31 34 34 34 31 38 41 45 22 27 31 39 33 32 41 35 43 29 35 40 30
10 11 26 29 36 46 46 40 38 34 34 31 31 29 29 28 27 26 26 26 24 22 24 25 25 25 25 26 26 22 30 30 29 30 33 35 34 31 32 28 22 32 26 36 36 33 33 32 37 23 37 35 32 28
10 9 12 29 29 34 43 43 40 37 37 34 32 30 28 27 28 28 27 24 21 21 23 24 26 26 26 26 25 26 28 26 27 32 35 29 27 31 31 35 38 39 35 34 26 26 32 32 27 32 33 33 31 28
14 12 8 17 29 26 39 42 43 39 38 34 32 29 26 26 28 29 28 26 23 23 23 18 23 24 23 20 20 22 24 29 34 35 33 32 27 28 33 35 30 33 34 28 27 34 31 26 29 30 30 29 28 32
14 12 11 10 20 23 28 40 44 41 40 36 33 30 30 31 33 33 28 26 25 24 26 25 23 16 17 15 22 24 25 30 28 26 25 25 24 21 21 28 33 30 28 31 32 27 23 25 27 27 29 35 41 46
14 9 10 11 14 21 22 30 46 42 39 36 33 33 33 35 37 33 28 30 30 31 34 33 32 33 29 30 23 24 24 17 16 21 20 23 30 30 33 30 27 27 26 24 24 25 26 27 31 36 40 44 49 53
16 10 9 11 14 18 21 26 29 44 45 41 43 42 43 42 41 37 31 21 22 19 25 35 35 31 27 20 18 12 8 7 10 16 17 14 20 26 25 25 25 26 24 24 25 27 29 34 38 41 44 49 54 51
18 13 9 9 7 11 19 25 32 37 41 44 48 45 41 31 22 18 17 15 12 17 10 12 16 20 18 13 12 11 11 8 8 10 8 7 19 21 21 21 23 22 21 23 24 29 34 36 39 45 50 47 43 43
22 18 14 14 8 9 8 15 31 33 31 31 28 29 18 16 11 12 14 10 10 10 8 8 8 12 14 14 9 10 8 9 9 7 9 21 21 19 17 17 18 18 19 23 30 34 38 42 46 43 40 39 41 42
23 21 17 16 15 9 11 7 7 5 8 10 6 5 9 6 7 7 7 5 7 6 8 10 14 11 13 10 12 6 9 7 6 10 20 20 17 14 13 14 19 21 25 31 37 42 43 41 38 37 37 38 40 41
24 23 21 19 15 13 16 16 14 10 12 6 1 0 2 3 5 4 4 4 7 10 13 11 12 11 10 9 7 9 5 6 8 13 14 12 11 13 16 21 24 29 35 40 41 39 38 37 36 35 36 38 38 40
24 22 21 20 24 19 15 18 20 17 17 8 7 6 4 7 8 8 7 7 8 9 9 9 9 6 9 7 7 8 6 8 15 17 14 11 14 19 23 28 33 38 39 38 38 36 33 33 33 35 36 37 37 38
28 24 19 19 23 20 18 17 15 15 10 7 8 8 6 4 4 6 7 7 7 9 9 8 7 8 6 7 9 13 21 21 19 12 12 18 24 30 33 35 33 35 35 32 30 30 30 30 32 32 33 35 36 36
27 22 20 17 20 21 20 19 17 13 12 14 12 10 9 10 11 11 10 10 11 12 12 14 14 14 11 15 19 19 17 15 14 19 27 31 33 34 32 32 32 31 30 29 29 28 30 30 30 30 33 38 37 34
26 24 23 22 21 20 19 16 15 10 14 13 11 11 11 11 12 12 11 12 13 13 15 18 12 15 19 20 21 20 21 23 27 33 36 33 30 32 31 31 31 30 29 28 28 29 30 32 33 34 35 37 36 33
28 27 24 22 19 18 16 11 18 20 9 10 10 11 12 12 12 12 13 13 14 17 20 24 23 22 20 20 21 23 28 32 34 33 29 29 31 31 31 29 29 28 27 27 27 29 33 34 35 35 34 34 33 32
27 24 23 21 20 19 13 8 11 8 10 11 10 10 11 11 12 13 15 16 20 24 25 22 20 19 20 23 25 26 26 28 28 30 32 32 31 31 28 27 25 25 26 29 32 33 35 35 36 34 31 32 32 31
27 33 31 24 19 18 15 10 8 8 7 6 7 9 11 12 13 15 17 21 22 20 19 16 16 17 18 20 22 25 27 28 30 30 29 29 30 29 26 23 25 28 31 33 33 34 36 35 34 32 32 34 32 30
31 27 23 19 17 14 10 13 10 9 8 9 9 11 13 13 15 16 19 19 12 10 13 15 17 19 21 22 24 26 28 29 28 27 26 27 26 25 25 28 31 35 35 34 33 35 34 32 31 31 33 33 31 29
21 22 19 15 12 10 9 10 12 13 14 13 13 13 12 12 12 15 18 16 10 13 17 17 19 21 23 25 26 26 26 25 25 25 24 27 28 29 31 33 33 33 33 33 33 32 32 30 29 31 32 31 29 28
16 13 7 9 8 8 10 11 11 12 14 12 11 10 9 9 12 17 20 20 17 16 19 18 20 22 24 27 28 28 28 28 29 30 28 29 32 35 32 30 30 30 30 30 30 30 28 28 29 30 29 28 28 27
10 7 7 6 7 8 8 7 9 12 10 10 8 8 9 12 17 17 24 19 21 21 19 22 24 28 29 31 32 28 25 27 30 34 33 33 34 32 28 28 29 30 30 29 29 29 28 29 28 27 26 26 27 27
6 4 8 7 5 5 6 7 6 5 6 6 10 12 13 13 17 19 17 15 15 16 20 24 29 34 36 36 37 37 34 31 30 31 33 33 32 31 32 33 34 34 32 31 30 29 29 28 27 26 26 26 27 27
5 6 5 6 6 6 6 6 7 10 11 13 15 17 11 14 17 19 23 28 32 37 40 40 41 40 41 40 40 40 37 36 37 38 37 36 34 33 33 33 33 32 29 29 30 29 27 26 26 26 27 27 27 27
5 5 5 5 7 10 12 13 14 17 17 19 22 24 26 28 33 36 38 40 43 45 47 48 48 47 44 42 41 39 37 36 38 39 37 32 28 27 29 30 28 26 25 26 24 24 25 26 26 27 28 28 28 29
6 6 10 11 13 15 15 16 18 19 21 24 28 30 30 32 35 34 36 37 35 37 41 44 45 41 39 36 35 36 36 35 34 30 28 27 27 27 25 24 22 21 21 22 23 23 25 26 27 28 28 29 29 30
13 13 13 14 16 15 18 22 24 25 26 25 24 25 25 28 30 30 26 26 28 29 29 28 31 33 32 32 31 31 28 26 25 26 26 27 26 25 23 22 22 23 23 23 24 25 26 26 27 28 28 28 27 26
14 14 14 15 16 18 20 22 23 24 23 23 21 23 26 27 26 25 27 25 23 24 25 28 31 35 31 28 27 26 26 26 26 24 23 21 19 18 20 21 22 22 23 24 26 28 28 27 26 26 26 25 24 24
10 14 16 18 18 19 19 21 24 25 25 24 23 18 16 17 20 26 23 20 23 21 18 16 18 17 16 15 17 17 17 17 17 17 16 17 18 19 20 22 23 24 25 26 25 23 25 25 25 25 24 25 25 25

GFSWCAN_700_spd_024.txt.gz
Wind_Speed
42 39 39 39 37 37 37 36 34 32 29 26 24 22 21 20 18 17 15 14 13 12 11 11 12 12 13 14 14 12 12 15 12 11 7 7 9 10 11 15 13 14 9 12 7 9 7 5 19 20 27 40 38 37
38 40 40 38 37 34 34 36 35 34 32 29 26 24 22 21 19 18 17 16 15 14 11 14 14 14 15 16 16 17 17 11 10 9 8 7 11 15 18 14 15 16 13 10 12 19 22 29 31 31 32 36 36 40
32 34 39 39 37 36 33 32 33 33 33 31 28 26 24 22 20 19 18 17 16 16 15 16 15 15 16 18 17 18 19 19 18 17 17 17 19 21 22 19 21 22 24 26 29 29 20 23 27 33 36 41 33 38
25 34 34 38 37 35 35 34 33 32 32 31 29 27 25 24 22 21 20 19 19 18 18 17 13 16 18 19 18 18 19 20 21 21 21 23 26 22 25 25 27 26 25 29 29 30 25 22 35 39 39 34 35 30
6 25 38 40 40 39 38 37 35 34 31 30 29 28 26 25 24 23 22 21 20 19 12 14 19 22 21 20 19 17 19 25 25 26 27 28 30 30 31 31 32 27 29 27 28 25 27 35 33 28 33 21 31 33
5 8 23 42 40 42 39 37 35 35 34 31 31 29 27 27 26 25 23 23 22 22 22 24 24 25 24 22 21 19 21 23 25 30 33 35 35 27 21 27 31 30 24 23 30 34 32 33 26 31 24 28 29 29
9 9 11 21 40 43 40 40 33 33 33 31 29 29 28 29 28 26 26 23 23 23 23 23 25 26 25 25 25 25 25 26 28 33 38 37 32 26 36 33 34 32 31 35 30 28 25 27 31 26 25 28 29 30
13 11 12 13 26 35 45 46 40 37 33 31 28 29 29 29 29 28 26 25 23 20 22 16 15 17 16 16 16 17 19 22 29 32 34 31 29 25 29 35 34 32 31 26 24 26 29 30 24 24 26 28 31 34
15 14 13 12 15 27 30 33 42 39 35 34 31 31 29 31 31 30 26 25 24 24 21 28 28 21 20 20 19 20 19 25 28 32 33 28 26 18 25 28 30 25 25 30 27 25 22 19 22 24 29 33 39 44
16 15 14 12 12 18 27 28 31 39 40 39 36 35 35 38 34 30 26 25 29 29 32 34 32 26 22 18 18 21 22 22 17 21 19 23 31 28 29 30 28 30 24 20 20 19 19 20 25 32 37 41 44 48
16 15 12 11 10 11 21 25 29 40 42 40 41 40 43 37 37 34 30 22 23 24 30 41 36 27 28 27 25 17 13 10 9 15 16 12 22 23 20 20 22 22 20 20 19 20 22 26 32 39 41 44 42 40
16 15 11 9 8 9 13 19 24 25 49 49 48 47 45 37 25 22 18 16 16 26 24 20 25 26 28 25 22 13 11 7 8 10 9 10 18 17 18 19 20 18 19 18 19 21 25 33 39 41 39 38 38 36
18 17 12 8 6 7 11 17 17 22 30 47 47 43 26 20 16 16 17 14 17 11 18 19 18 19 20 17 9 6 8 10 7 7 9 17 17 17 15 12 13 14 15 17 21 26 34 39 38 37 37 34 34 35
17 19 15 10 8 7 11 13 16 19 21 28 22 19 15 9 10 10 15 15 14 15 16 14 12 10 9 6 8 6 9 7 7 8 16 20 15 11 9 9 14 15 19 23 29 35 36 36 36 34 31 31 32 33
20 19 18 14 10 12 10 8 10 12 11 9 8 5 9 10 12 13 12 12 9 7 4 2 5 8 9 8 7 7 5 6 7 9 12 10 7 9 14 15 17 21 27 32 34 34 34 34 32 30 29 30 31 33
20 20 19 17 13 15 16 16 15 6 8 2 3 9 11 11 9 8 7 5 4 4 5 8 8 7 10 7 9 10 7 10 14 14 12 14 15 15 16 19 25 30 33 32 33 33 32 31 32 32 31 31 31 32
22 23 21 18 15 20 18 9 8 4 3 8 7 7 6 5 5 3 3 4 5 7 10 9 8 9 7 7 9 12 19 20 19 18 18 17 17 18 24 30 31 30 31 32 33 32 31 30 31 32 33 32 34 36
29 24 20 20 17 23 22 16 15 11 8 5 7 6 5 4 5 7 8 9 9 10 12 13 11 11 7 11 15 16 16 16 18 20 19 21 26 29 32 29 29 31 32 33 31 30 29 29 31 32 34 35 36 37
30 24 20 18 23 23 23 20 18 10 11 9 6 6 6 8 9 9 9 10 10 12 14 14 9 11 13 14 13 12 12 15 20 24 27 29 30 27 27 30 32 32 32 31 30 29 29 30 32 35 36 37 38 35
26 27 23 20 20 24 19 13 19 13 9 9 9 11 10 9 9 9 10 10 11 14 15 16 14 12 12 14 17 19 21 24 26 26 25 24 25 28 29 30 30 30 29 28 27 27 29 32 33 34 36 37 35 32
26 25 23 23 18 18 14 9 13 10 14 11 9 11 11 11 12 12 13 13 16 18 16 14 12 13 17 18 17 17 17 18 20 23 26 28 29 29 28 28 28 26 24 26 29 32 34 35 35 35 36 34 30 30
30 29 25 24 24 19 15 9 10 9 10 8 12 12 11 12 12 14 14 17 18 14 14 13 11 11 12 13 14 17 19 22 25 27 28 28 29 29 29 27 25 26 28 32 35 36 36 36 35 35 33 31 29 30
27 26 30 25 19 16 11 15 11 10 9 9 10 10 11 12 13 13 17 16 10 9 10 10 10 13 13 14 17 20 23 25 26 26 26 26 26 27 28 28 29 32 34 36 35 35 34 32 32 33 31 30 31 31
28 30 28 25 13 11 9 12 14 14 12 11 11 12 11 12 12 14 17 12 5 9 11 15 14 15 15 17 20 23 24 26 28 29 27 28 29 29 29 31 34 36 36 33 32 32 32 32 31 30 29 30 30 29
23 16 10 10 13 10 11 11 12 12 13 11 10 10 8 8 10 13 13 9 12 12 12 17 18 19 22 25 25 26 28 31 31 28 27 28 32 33 34 35 34 32 30 31 33 35 34 32 30 29 29 29 28 27
13 7 9 12 13 11 11 10 11 12 10 9 8 8 8 9 9 9 14 12 15 16 18 20 22 24 26 29 32 33 35 39 40 38 34 32 32 31 33 34 34 33 31 32 34 34 33 30 28 28 27 26 26 25
7 6 11 12 10 9 9 10 8 8 10 9 9 9 8 7 7 9 13 15 16 17 19 22 26 30 34 38 41 44 45 38 36 40 40 38 36 35 35 36 35 33 31 30 31 31 28 27 26 25 24 25 26 27
8 10 10 9 10 8 6 7 7 6 7 9 11 11 7 8 13 15 18 23 28 31 34 38 41 43 45 46 47 48 48 47 45 42 40 37 34 34 35 33 30 27 28 28 27 25 24 23 23 24 25 26 27 28
8 8 7 7 7 7 8 9 10 12 13 15 17 18 22 24 26 28 31 33 35 36 36 34 32 33 35 37 37 39 37 33 33 32 32 31 32 32 30 28 27 27 27 26 24 22 23 24 25 26 27 28 29 30
6 5 6 7 8 10 11 13 15 16 17 17 19 22 24 28 30 30 30 31 32 32 30 31 35 33 33 30 29 29 26 31 31 24 25 26 27 27 27 26 27 26 23 20 20 22 23 24 26 27 28 29 29 29
11 11 11 10 10 10 13 16 18 19 19 20 21 22 24 27 29 30 31 32 28 27 30 31 31 31 27 24 25 26 24 24 26 26 27 27 27 27 27 26 24 21 19 20 21 22 23 25 28 29 27 26 26 26
7 10 11 12 12 14 16 17 19 20 19 19 20 21 24 28 30 29 24 19 22 28 27 27 26 26 27 27 24 21 20 20 20 21 23 23 23 22 21 20 18 18 19 20 22 24 25 26 25 25 25 25 24 24
6 8 11 14 16 16 16 16 19 21 21 21 23 22 20 20 21 22 22 23 29 27 28 32 32 31 30 28 26 26 26 24 24 23 22 22 22 22 21 20 19 19 22 24 24 23 24 24 23 23 23 23 24 24

GFSWCAN_700_spd_027.txt.gz
Wind_Speed
41 40 41 41 42 41 40 38 35 32 28 25 22 21 20 20 18 16 15 14 13 13 12 16 17 16 15 15 15 16 14 16 15 13 11 11 9 8 7 6 10 7 7 9 8 7 8 5 13 14 18 29 31 27
38 40 39 40 40 41 40 38 36 34 30 27 24 22 21 20 19 17 16 15 14 14 10 14 14 15 16 18 16 15 15 11 12 11 13 10 10 10 11 6 7 8 11 9 10 11 16 26 29 33 27 32 32 37
47 38 37 39 38 38 39 39 36 34 32 30 27 24 22 21 20 19 17 15 15 15 14 15 16 16 17 17 17 18 19 20 18 19 16 16 18 18 16 16 15 16 13 26 24 22 19 27 26 32 32 34 39 32
37 40 40 38 36 37 35 36 36 36 34 31 29 27 25 23 22 20 19 17 16 15 17 16 15 19 19 18 18 18 20 19 21 21 23 24 24 21 19 17 20 25 19 22 28 27 31 32 28 25 33 36 33 27
22 34 42 37 39 37 37 34 33 33 33 32 31 29 27 26 24 22 21 20 19 18 11 14 20 21 19 17 17 18 19 21 23 24 26 26 25 27 32 32 36 31 22 22 26 30 33 26 32 32 34 28 26 26
8 19 31 38 42 35 36 36 34 32 30 29 29 28 28 28 26 23 23 23 21 20 21 22 21 21 17 17 18 21 24 26 25 26 27 28 29 24 24 32 32 29 30 27 29 27 30 33 35 28 29 23 23 24
3 5 17 28 38 37 37 34 34 33 33 31 29 28 28 28 27 26 26 23 22 22 22 23 24 27 26 25 25 25 26 28 27 29 33 32 32 29 35 43 30 33 32 30 28 26 29 25 27 31 27 23 25 28
7 6 6 10 26 39 38 36 36 34 33 31 30 29 28 29 29 27 26 24 22 21 22 17 15 18 19 22 23 25 28 28 31 32 33 31 30 30 35 36 30 28 22 25 27 25 23 28 25 21 19 23 28 32
10 8 7 9 12 24 38 37 38 34 32 31 29 28 29 30 30 26 24 24 26 26 24 28 29 23 23 22 21 22 23 24 26 29 31 29 29 24 27 29 31 27 27 29 22 23 26 22 19 20 22 27 34 40
14 12 10 9 11 13 25 36 43 38 37 32 31 31 33 32 28 23 24 25 29 31 33 37 34 28 22 17 17 20 20 18 19 24 21 25 35 33 29 27 27 26 24 25 28 24 21 18 20 23 28 35 41 41
15 14 14 12 11 13 16 26 31 30 35 38 38 39 39 32 28 23 24 19 23 29 36 41 41 37 31 27 25 22 18 11 12 18 16 12 21 23 19 22 19 20 21 22 21 18 18 20 23 29 35 39 39 39
15 14 13 12 12 12 13 22 28 31 41 43 41 42 39 35 24 24 27 25 22 25 29 25 29 29 30 30 30 25 25 12 10 12 10 7 16 13 12 14 16 19 22 20 17 18 20 24 29 36 37 37 37 35
14 13 12 10 10 11 11 15 23 29 35 42 45 42 26 19 18 15 22 25 30 32 28 27 27 25 28 34 25 14 11 10 9 8 7 9 15 14 13 15 17 20 18 16 17 20 25 31 34 34 35 34 33 32
13 15 13 11 9 9 9 10 14 17 19 23 28 20 18 8 11 13 19 26 25 26 23 17 21 27 28 22 11 8 10 7 6 6 8 14 13 14 13 13 14 13 16 18 22 28 31 32 32 33 33 32 32 31
16 14 15 12 10 8 7 6 8 12 14 13 10 7 10 9 9 11 15 17 18 16 15 20 24 17 12 7 8 7 5 5 5 5 10 9 8 8 9 11 14 15 19 25 30 32 31 32 33 33 32 31 32 32
17 17 16 15 12 8 10 9 7 10 5 5 4 9 14 15 16 16 16 18 15 14 15 10 7 5 6 4 5 6 4 4 8 15 13 11 11 13 14 15 17 22 28 32 30 31 32 33 34 33 31 31 31 32
18 17 17 15 13 11 11 5 12 9 4 6 11 13 13 9 9 8 10 10 11 7 7 5 3 5 3 3 4 7 17 20 15 13 13 14 18 18 17 21 26 31 30 29 31 33 34 34 34 32 32 32 34 35
19 18 18 18 15 13 14 13 4 4 7 10 10 7 8 7 6 5 4 3 2 2 4 10 7 10 6 10 12 12 11 13 15 19 21 19 19 21 25 29 28 27 29 31 32 32 32 31 31 31 31 33 34 34
20 20 18 18 17 15 16 14 11 5 7 8 5 7 7 7 7 7 7 8 9 10 14 14 8 12 14 18 17 17 17 18 19 21 21 22 23 23 24 25 27 29 30 30 30 30 29 28 29 32 34 36 36 36
22 19 18 17 16 16 17 13 16 13 9 10 9 11 11 10 11 11 11 11 12 13 12 14 12 9 12 16 17 18 18 18 18 19 19 20 23 26 26 27 29 30 30 29 28 27 28 31 33 36 36 37 36 36
22 26 22 20 20 20 18 12 12 11 13 12 13 13 12 12 12 12 12 13 15 13 12 9 10 14 16 16 14 13 12 14 16 19 21 24 25 27 29 29 28 28 28 28 28 30 32 35 37 37 36 35 34 34
26 27 24 23 20 22 23 12 10 9 13 11 15 13 13 12 12 13 12 14 13 10 12 11 12 11 9 9 11 12 14 16 19 21 24 27 29 29 29 29 30 30 29 30 33 37 37 37 35 34 34 34 34 33
18 26 25 25 16 14 9 13 12 12 10 9 10 12 13 13 13 12 14 10 7 10 9 8 9 9 10 12 13 16 17 20 23 26 28 30 31 31 30 30 29 31 32 32 36 37 37 34 32 33 35 36 35 34
21 28 27 20 17 13 10 14 15 13 13 12 12 13 13 13 12 13 14 8 6 9 10 11 12 12 14 17 18 21 24 28 29 31 32 35 34 34 31 31 33 36 37 34 33 35 35 34 34 36 37 36 34 33
25 22 16 18 16 14 16 13 17 18 17 15 15 13 9 10 10 11 7 8 11 12 12 12 15 17 20 22 24 27 29 32 33 36 36 33 36 40 41 36 35 36 37 36 36 37 36 35 35 35 34 32 31 30
14 8 11 16 17 15 15 14 14 15 13 13 12 11 11 11 10 6 9 11 13 14 16 17 20 22 23 26 29 31 34 36 40 45 48 48 47 43 47 43 39 39 38 36 36 35 34 32 33 32 29 27 26 25
10 7 13 14 15 16 14 14 11 11 13 11 12 10 8 6 7 14 14 15 17 18 20 22 23 25 30 35 39 43 45 42 40 42 44 43 44 42 40 41 38 38 36 35 35 32 30 30 29 26 24 23 25 26
10 8 11 13 13 11 9 9 9 8 9 9 10 9 7 8 14 14 14 17 19 21 25 30 37 39 39 39 39 39 38 38 37 36 36 33 31 30 31 34 34 29 33 33 32 29 29 28 25 22 23 25 26 28
10 12 12 11 10 8 8 9 10 11 11 11 12 15 20 20 21 23 24 27 30 33 34 33 34 35 35 34 36 39 39 39 37 36 34 33 30 27 26 27 29 30 31 30 29 29 27 24 22 22 24 25 27 30
8 7 7 8 9 11 11 12 12 13 14 15 16 18 21 24 26 28 29 29 30 31 32 34 33 31 32 33 34 35 34 32 32 32 31 30 30 29 28 28 28 28 28 29 28 26 23 21 21 22 24 26 28 28
7 8 9 9 12 13 14 14 15 16 17 18 19 22 25 27 27 27 29 30 32 33 31 27 27 30 33 34 34 34 35 35 35 34 32 29 29 28 28 28 28 27 26 24 23 21 20 20 21 23 25 26 27 27
7 7 9 11 12 13 14 15 16 18 19 20 21 22 24 25 28 29 29 27 25 26 26 27 31 33 38 40 38 35 34 33 32 32 32 31 31 30 28 26 25 24 23 22 21 19 19 20 21 22 24 24 24 24
7 7 8 10 13 15 16 18 20 20 21 21 22 22 24 25 25 24 23 24 25 26 28 31 37 37 36 36 35 34 34 35 36 36 35 34 33 31 30 29 26 25 24 23 23 21 20 20 21 21 20 20 21 22

GFSWCAN_700_spd_030.txt.gz
Wind_Speed
44 40 41 43 41 39 37 35 32 28 26 22 21 19 18 16 15 14 13 13 12 12 10 17 18 20 18 14 15 13 14 16 16 13 10 11 10 12 11 7 8 7 6 5 4 6 8 5 9 17 16 21 32 31
42 42 39 39 40 39 38 35 33 30 26 24 21 19 18 17 17 16 15 14 13 13 8 12 15 16 18 20 15 15 12 13 11 10 12 9 11 11 14 8 7 10 13 8 9 10 14 19 21 22 31 34 33 37
36 41 38 39 38 39 37 36 33 31 28 25 23 21 19 18 17 17 15 15 14 13 13 13 15 16 16 17 18 17 17 15 16 18 16 14 14 12 15 17 16 16 16 20 19 24 18 23 34 34 35 37 37 36
40 32 35 36 36 37 38 37 34 33 30 28 25 23 21 20 19 18 17 16 16 14 16 14 13 17 16 18 19 20 19 19 21 19 20 20 22 19 22 21 19 21 20 24 27 24 21 31 31 33 33 30 34 27
38 39 34 35 35 35 36 36 36 34 31 30 28 26 24 22 20 19 19 18 17 18 10 15 19 17 17 17 19 19 21 21 21 22 23 23 25 25 29 29 32 29 30 24 25 25 28 28 32 31 31 33 27 26
30 41 32 34 34 33 33 31 33 33 33 31 29 28 26 25 23 22 22 22 20 20 20 21 19 18 15 17 21 22 22 23 25 25 25 24 25 23 20 27 32 25 18 28 31 29 28 28 30 29 27 26 24 22
8 22 42 40 34 34 33 32 30 30 30 30 30 29 27 27 25 25 25 22 23 21 21 21 23 24 22 21 23 25 24 24 25 26 30 27 26 26 32 39 33 29 31 36 30 28 26 24 30 22 23 21 20 21
7 4 16 30 38 33 34 34 32 30 29 29 28 26 26 26 26 25 24 23 20 21 22 17 16 17 19 22 23 26 27 27 29 30 33 31 29 28 29 37 33 28 32 25 24 26 27 24 21 21 18 19 22 26
6 7 4 10 24 35 40 34 31 31 31 30 28 27 27 27 27 23 23 24 25 25 24 29 28 23 24 24 21 21 23 25 27 30 32 29 32 31 34 34 31 33 27 27 25 23 21 23 20 18 19 22 26 31
6 4 4 3 2 9 28 34 35 33 30 29 26 27 28 30 25 24 24 25 29 31 33 35 32 28 24 21 20 19 22 19 19 24 22 28 38 34 33 31 32 30 25 22 21 23 23 20 19 20 21 25 32 36
9 8 7 5 4 3 8 17 30 33 34 31 31 32 30 28 22 24 20 20 23 30 37 40 39 35 30 28 23 18 15 10 13 21 19 18 29 29 23 22 19 22 24 20 21 22 19 18 19 21 26 32 36 36
11 10 9 8 6 4 6 8 15 27 33 36 36 33 29 27 17 20 19 18 22 23 31 26 25 29 31 30 26 22 23 13 13 15 10 12 19 19 12 12 13 15 16 18 18 17 16 17 22 29 33 35 34 35
10 10 9 8 7 6 5 7 9 18 23 27 39 35 25 18 16 13 21 26 29 28 22 22 23 24 24 21 17 14 12 13 15 9 9 13 12 12 12 10 11 14 15 15 15 16 19 23 29 33 33 33 34 35
9 9 8 7 5 3 4 5 9 15 23 20 21 15 13 8 12 14 20 24 29 28 28 26 20 14 25 20 18 10 11 8 7 6 5 7 8 8 10 10 11 13 12 14 19 22 26 30 33 31 32 34 35 34
9 8 8 7 5 4 4 5 7 9 13 12 7 6 10 10 10 14 17 19 19 19 18 16 20 25 21 15 10 9 6 5 6 3 7 1 7 10 7 7 12 16 19 20 24 28 32 32 31 32 34 34 33 32
9 9 7 9 7 5 5 4 6 6 4 4 5 3 3 6 8 9 10 10 11 13 16 19 16 6 6 5 6 5 4 4 4 5 12 9 5 9 14 16 17 18 21 26 30 31 30 32 33 33 33 32 31 31
11 10 11 10 10 9 7 6 6 5 3 4 7 8 12 12 13 11 10 10 12 10 9 6 4 4 3 2 4 3 1 8 12 13 14 14 15 17 17 17 20 24 27 28 28 29 31 32 33 34 33 30 30 32
11 12 10 12 10 9 6 4 4 4 4 9 12 9 8 6 5 7 8 8 9 8 5 2 2 1 1 2 5 8 10 10 12 15 18 17 17 18 20 23 24 25 27 29 30 31 32 32 32 29 29 31 33 33
12 15 12 12 12 11 8 8 8 3 6 8 6 6 8 8 7 6 4 4 2 1 1 3 2 4 8 11 13 14 16 16 17 18 19 18 19 19 19 21 24 27 28 29 30 30 30 29 27 28 31 34 35 37
12 15 13 13 12 12 9 7 6 6 7 9 8 10 9 9 8 8 8 9 10 9 8 10 11 11 13 16 15 16 17 16 17 17 17 16 18 22 24 26 27 29 30 31 31 31 29 28 29 33 36 37 38 35
12 17 18 18 15 13 12 8 7 7 11 14 12 15 14 13 12 12 11 11 9 9 10 8 10 13 14 15 15 15 15 15 14 16 18 20 22 25 27 29 32 33 33 31 30 29 29 31 34 38 38 38 36 34
15 19 18 19 17 17 16 9 9 10 10 11 13 15 14 13 13 11 11 12 9 8 10 11 13 14 14 14 13 13 14 15 17 19 21 23 27 29 31 34 36 35 34 32 31 33 35 36 39 37 36 37 35 34
14 16 19 18 18 16 12 20 16 14 9 9 11 14 15 13 11 11 12 8 7 10 11 12 12 11 11 12 13 15 17 20 21 24 26 30 31 33 33 34 34 34 36 39 40 39 36 36 37 38 38 38 36 35
15 12 20 15 14 12 10 11 15 12 12 11 11 11 10 9 9 10 10 10 13 15 14 14 13 13 14 14 16 19 23 25 26 29 32 34 36 38 39 41 42 44 43 45 45 39 35 34 37 40 40 38 35 34
14 13 9 15 17 14 14 11 14 16 16 14 12 11 7 8 10 12 11 15 16 14 14 14 15 14 15 19 21 25 28 29 32 35 37 40 44 46 43 41 39 39 43 42 46 47 44 37 38 38 38 33 32 30
11 9 11 11 16 13 15 15 14 13 13 13 11 11 12 12 12 7 13 15 14 13 14 15 17 18 21 25 27 29 31 35 40 43 42 38 38 41 42 41 41 39 34 32 34 32 35 40 36 36 34 30 28 25
10 7 11 12 13 15 17 16 13 11 13 13 14 12 10 7 7 13 12 12 13 16 18 20 23 25 28 30 32 37 42 40 39 39 39 39 40 40 39 39 37 38 35 31 30 34 34 32 33 33 31 28 25 24
8 7 11 12 14 11 10 11 13 12 10 11 11 9 6 7 12 13 12 14 16 20 23 26 27 30 36 39 38 38 38 38 37 36 35 37 39 38 36 38 38 36 31 28 28 32 33 32 31 31 29 27 24 24
10 11 10 10 9 9 10 10 10 10 9 8 9 11 15 16 18 19 21 22 24 26 30 32 34 33 34 36 37 37 36 35 37 39 38 37 36 35 36 36 35 35 35 34 33 33 33 31 30 28 26 25 24 24
9 9 9 9 9 9 8 8 8 10 11 13 15 18 21 21 22 24 26 27 28 29 30 31 32 34 33 31 31 32 37 41 45 45 43 40 38 36 35 35 35 33 32 32 31 30 29 28 26 25 25 23 22 22
8 7 7 8 8 7 10 12 14 15 16 17 18 21 24 24 26 26 27 27 28 30 30 29 28 28 29 31 34 37 41 41 39 38 38 38 39 39 38 36 34 34 33 31 29 27 25 23 23 23 22 21 20 20
5 6 7 8 8 9 11 12 14 16 17 18 22 22 23 24 26 26 26 27 26 25 25 26 27 29 31 36 37 33 32 33 33 34 35 36 37 38 38 38 36 33 31 30 29 27 25 23 23 21 21 19 20 19
7 7 7 8 9 11 13 15 17 20 21 22 24 22 23 24 26 24 23 23 23 24 25 26 28 33 31 27 28 29 29 30 31 33 35 37 40 39 37 33 31 29 27 26 25 24 23 23 22 20 19 19 19 18

GFSWCAN_700_spd_033.txt.gz
Wind_Speed
57 44 39 42 41 38 36 33 29 26 24 21 19 18 17 16 15 14 13 12 11 12 12 17 19 19 15 13 15 15 16 17 16 15 13 13 11 13 13 12 10 10 7 8 8 8 9 9 13 15 21 25 27 29
49 44 43 42 40 38 36 33 30 27 24 21 19 18 17 16 16 15 13 12 11 11 9 16 18 17 19 17 15 13 15 13 13 11 13 10 12 11 16 11 16 13 15 12 12 10 19 23 23 28 32 30 32 36
41 43 38 40 39 38 36 33 30 28 25 22 20 18 17 17 16 15 14 12 11 11 11 13 15 16 18 21 18 17 15 14 16 16 15 13 13 14 15 17 18 13 16 19 15 15 17 25 27 29 33 36 33 35
49 37 33 33 37 38 37 34 31 28 25 23 21 19 17 16 15 15 15 14 13 13 14 12 13 15 16 17 17 17 17 17 17 17 17 19 19 16 20 20 22 21 22 27 28 25 27 32 31 32 34 34 36 33
38 41 37 32 36 37 35 33 31 29 27 25 23 21 19 17 16 16 16 16 16 15 6 16 17 15 16 18 18 19 19 19 20 21 22 22 21 23 27 29 29 24 27 29 33 30 29 28 27 30 32 34 31 27
41 40 39 37 34 34 34 33 31 29 28 27 25 23 21 19 19 18 17 18 17 17 17 18 15 13 16 20 20 20 19 20 21 23 24 25 24 24 21 29 29 25 25 25 30 29 28 30 30 35 30 25 26 23
34 41 32 34 35 31 32 32 32 31 29 28 26 25 23 22 22 21 20 19 20 19 20 19 20 20 19 20 21 21 20 21 22 25 29 26 24 26 32 37 32 29 33 32 30 29 30 30 31 26 26 21 21 19
20 34 38 31 33 32 30 29 28 30 29 28 27 26 25 25 25 24 22 21 20 18 21 15 12 14 16 19 20 21 23 24 27 28 31 30 28 28 34 36 32 27 29 29 24 23 26 26 26 20 19 20 19 19
9 12 28 36 32 31 32 30 29 28 26 26 26 26 25 27 25 23 23 23 23 24 21 24 24 20 21 20 19 20 21 24 27 29 30 29 30 30 33 34 32 31 30 25 20 24 25 22 20 17 19 19 20 21
14 9 9 17 34 35 31 30 32 27 27 26 25 25 25 23 20 21 22 23 26 28 30 29 26 25 22 21 19 18 19 19 19 22 19 26 35 31 30 30 30 29 26 22 26 24 21 20 18 18 17 19 22 28
10 10 9 7 6 19 32 34 30 25 28 29 29 27 25 23 22 23 20 18 19 24 30 34 33 31 30 27 23 21 15 11 15 18 17 19 33 30 24 21 22 21 20 21 20 19 18 18 18 16 17 23 29 33
9 8 8 7 6 7 6 11 30 35 31 29 29 25 21 21 17 13 15 19 19 18 22 21 21 24 29 28 25 19 19 12 11 12 10 12 23 18 13 14 17 16 16 18 16 13 15 16 16 20 25 31 33 32
9 9 8 6 6 5 5 8 9 16 27 32 30 25 18 16 14 13 18 13 16 22 22 19 17 19 22 21 17 16 12 15 18 10 11 15 13 15 13 10 8 8 10 9 11 16 16 18 22 27 31 32 32 32
9 9 8 6 6 6 6 6 8 14 15 19 21 15 11 7 13 15 17 18 25 21 18 20 18 12 19 15 16 9 12 10 8 6 4 8 10 7 1 3 3 4 8 14 15 18 21 24 28 30 29 31 32 32
8 8 8 6 5 4 4 6 7 9 15 12 8 8 11 11 10 10 14 14 15 17 18 18 18 20 18 16 10 9 6 5 5 3 8 8 5 5 4 2 10 14 14 17 19 21 25 29 28 28 29 30 31 32
6 6 5 6 5 4 3 3 3 6 8 8 6 5 3 5 9 11 12 11 10 10 11 16 15 8 9 5 5 5 5 4 4 3 7 8 4 6 9 11 13 15 16 19 23 26 25 26 29 30 31 31 31 30
4 5 5 4 4 5 2 2 4 4 4 5 6 7 6 6 6 6 6 8 10 11 14 10 7 6 5 4 5 6 3 2 6 11 14 11 10 12 12 12 14 18 21 21 22 24 26 28 30 32 32 31 29 27
4 6 5 5 5 5 4 2 4 4 4 6 9 8 9 7 7 7 7 8 9 10 9 8 5 6 5 5 3 4 8 11 11 11 11 11 13 14 14 16 17 19 22 23 26 27 29 31 32 31 29 27 29 31
6 6 7 5 7 6 5 5 5 5 5 8 8 7 7 7 8 7 7 7 6 4 4 3 1 2 1 3 6 7 7 9 12 14 15 14 14 15 15 16 19 21 24 26 28 31 32 33 32 28 28 31 33 37
8 7 9 7 7 9 7 5 6 6 8 9 8 8 7 9 9 9 7 5 4 3 5 4 5 5 7 8 9 10 11 12 14 15 15 15 15 17 18 20 23 26 29 32 33 32 31 30 29 31 33 34 37 39
9 10 11 10 10 9 8 6 6 6 8 11 12 13 14 14 13 11 9 9 8 7 7 7 8 10 11 12 13 13 15 17 15 14 15 16 18 20 21 25 28 32 33 31 30 29 30 32 35 35 35 34 34 34
9 10 13 13 14 12 12 6 8 8 8 7 12 14 16 16 14 12 11 10 9 9 10 11 12 11 12 13 14 14 14 15 15 16 18 21 23 25 29 32 35 36 35 36 38 38 39 40 40 40 40 35 32 35
11 10 15 12 18 16 11 14 13 11 8 8 10 11 14 14 13 12 12 9 12 13 12 12 10 12 13 13 15 19 18 18 19 21 23 24 27 31 34 36 39 42 43 42 40 41 41 42 44 43 40 38 34 35
10 10 10 6 10 10 12 13 10 16 13 11 10 11 10 11 12 12 13 14 16 12 13 14 14 14 15 20 20 20 20 20 22 25 28 31 34 38 42 43 43 41 41 41 40 38 40 40 40 36 34 32 34 35
11 6 7 10 14 15 15 13 12 11 14 12 12 11 8 9 10 12 14 17 13 12 13 13 14 15 17 19 20 21 23 27 30 32 34 38 44 44 42 41 41 41 40 40 39 36 35 36 30 23 21 29 34 32
9 8 8 8 15 14 15 16 13 13 12 15 13 12 13 13 12 9 14 11 11 10 13 14 15 17 19 21 23 26 29 31 34 37 43 43 43 42 41 41 42 40 38 36 36 37 37 35 30 29 33 30 31 32
16 9 14 12 14 16 16 16 15 14 13 14 13 13 10 8 8 11 12 8 9 11 12 15 18 20 23 26 29 32 34 39 41 40 40 42 41 39 41 44 45 44 42 39 36 35 34 32 29 30 32 33 32 31
15 12 10 12 15 13 13 14 15 14 12 11 11 10 7 7 8 8 8 9 11 14 16 18 21 25 28 32 36 37 36 37 37 34 34 38 41 44 44 43 41 42 42 40 39 36 34 35 35 34 32 31 31 31
12 14 15 14 12 10 10 10 10 9 9 9 9 10 11 11 11 12 14 16 18 21 23 26 29 31 32 33 34 36 34 32 34 36 38 40 39 35 35 36 36 37 38 38 36 36 34 33 32 31 29 30 28 27
11 12 11 9 8 7 5 6 5 7 8 9 11 13 14 15 17 19 21 22 23 25 27 28 28 29 31 30 29 31 35 36 38 39 36 35 34 35 35 35 36 37 38 37 37 35 33 30 27 27 27 26 25 24
9 8 8 8 7 6 6 7 8 10 12 14 17 19 18 19 21 22 24 24 24 25 25 26 26 26 27 28 31 31 34 32 31 31 32 33 34 36 38 39 43 43 40 37 33 30 29 26 25 24 24 22 21 21
6 6 6 6 6 8 9 10 12 14 14 15 18 18 19 21 22 24 22 21 22 21 22 23 24 26 27 30 33 29 27 28 29 29 30 32 34 38 39 42 43 38 31 28 26 23 21 22 21 20 21 21 21 20
5 6 6 6 6 6 9 11 12 14 15 17 20 21 21 21 21 20 19 18 19 22 23 24 24 27 29 27 25 26 27 28 28 29 30 33 35 37 39 39 34 28 24 22 19 18 19 18 17 17 17 16 16 16

GFSWCAN_700_spd_036.txt.gz
Wind_Speed
51 45 43 43 41 41 35 33 31 29 27 25 23 22 23 22 20 19 17 16 17 17 19 23 22 21 19 19 17 17 18 20 18 17 15 15 12 14 15 15 12 10 9 12 12 10 10 10 13 16 21 23 23 25
42 50 43 42 39 40 35 32 31 28 27 25 24 23 21 20 18 17 16 15 15 16 17 20 20 19 18 17 16 15 16 13 14 11 15 12 13 12 17 13 18 15 19 15 14 9 19 23 24 24 24 24 27 27
53 46 42 41 39 38 35 32 30 28 26 25 23 22 20 19 17 16 15 14 14 13 12 18 20 19 16 16 15 15 14 15 14 15 16 14 13 13 15 17 20 19 19 23 23 26 26 24 27 26 26 30 31 30
50 39 37 39 37 37 37 31 30 28 26 24 22 21 19 18 17 16 16 15 15 13 13 15 18 19 18 19 19 19 17 15 14 15 16 17 18 16 20 21 20 20 21 26 28 29 29 29 28 31 30 27 25 27
49 50 35 36 37 35 36 31 29 28 26 24 22 20 19 18 16 16 16 15 15 15 9 15 15 16 17 17 17 17 16 17 18 19 20 20 20 23 26 27 29 24 26 28 32 29 31 32 32 29 29 28 32 32
46 40 36 36 38 35 33 33 29 27 25 24 22 20 18 17 15 14 14 15 15 16 16 12 12 16 19 17 15 17 18 19 21 22 23 25 24 24 21 30 29 25 25 25 27 26 27 27 27 27 29 35 31 32
36 44 37 35 33 33 33 32 32 28 26 24 22 21 19 18 17 16 14 13 14 15 16 15 16 18 17 16 16 17 18 20 22 24 27 27 27 28 34 37 32 30 29 28 28 27 27 27 27 30 33 30 29 24
41 42 35 32 30 31 32 34 31 29 27 25 23 22 21 20 19 18 17 17 16 16 17 12 10 14 16 17 18 18 20 22 25 28 29 28 29 30 34 34 30 28 26 25 24 23 24 26 28 28 30 26 20 18
34 34 37 38 29 28 28 31 31 31 29 27 25 24 23 22 21 20 19 19 20 20 18 21 20 18 18 17 17 18 20 24 27 29 30 28 31 31 32 31 29 28 27 24 24 24 23 25 28 25 20 15 16 17
20 29 37 40 38 35 32 29 28 27 28 27 27 26 24 23 21 21 20 22 25 26 25 25 23 21 19 19 19 19 21 19 19 20 19 26 35 31 27 28 28 27 26 23 22 25 24 29 22 13 12 14 17 20
18 16 20 34 38 31 29 29 27 27 27 26 26 24 22 20 20 20 18 13 15 17 23 28 27 27 26 25 22 19 15 11 16 18 18 19 30 29 25 23 22 21 20 21 24 24 27 12 9 13 14 16 20 26
18 17 16 14 17 34 29 27 28 29 27 26 25 22 21 21 17 13 13 13 13 14 17 16 19 21 27 27 23 18 19 12 10 12 11 13 24 19 14 13 17 19 18 19 16 10 8 11 14 16 18 23 28 30
13 13 14 15 14 11 19 35 32 25 26 26 25 22 15 15 15 13 17 12 16 18 18 14 12 14 18 19 18 15 11 13 15 9 9 15 16 10 12 14 12 8 5 3 5 10 14 16 18 21 25 30 30 28
11 11 11 10 11 12 12 9 16 31 31 28 26 20 16 9 12 16 19 22 21 19 18 19 16 10 17 15 14 8 11 10 8 7 7 8 9 9 8 5 5 4 3 9 12 15 17 20 22 26 28 27 29 29
11 11 11 10 10 10 10 11 12 14 15 10 9 8 12 12 10 9 13 15 17 19 19 17 18 18 16 12 9 9 6 5 6 4 7 12 9 5 6 3 5 6 10 14 16 18 20 24 25 24 26 27 29 31
11 11 11 10 9 10 10 10 9 11 15 9 6 4 6 9 11 10 9 8 10 13 14 15 16 10 16 9 7 6 4 5 6 10 13 10 9 3 2 4 8 12 14 16 19 23 22 23 24 26 28 30 32 34
10 9 9 9 9 8 8 8 9 9 7 6 7 9 7 7 8 7 7 6 7 8 11 10 7 8 6 5 7 7 6 7 5 2 4 8 9 7 6 9 13 16 18 21 20 21 23 26 29 31 34 34 35 34
6 6 7 7 7 8 7 6 6 5 5 6 7 8 8 6 4 4 4 4 5 7 9 10 8 9 5 7 5 6 5 4 6 9 9 8 8 10 12 14 16 18 19 20 22 24 27 31 34 35 35 33 32 30
2 3 5 7 7 7 7 7 6 6 7 8 9 8 7 6 6 7 8 8 8 8 8 9 5 5 5 5 3 2 4 4 6 8 11 12 12 13 15 16 17 19 20 23 26 30 33 34 34 32 32 33 34 35
3 3 5 6 8 8 7 6 9 8 9 10 8 8 7 7 7 7 7 7 7 6 6 5 4 4 4 6 6 7 8 9 11 12 13 14 15 15 17 19 21 22 26 29 33 35 37 38 38 39 40 41 40 40
6 6 6 9 9 9 8 6 9 7 11 12 13 13 12 11 10 11 11 8 7 7 7 7 7 8 9 8 9 11 12 13 13 14 13 14 17 19 20 22 25 28 32 36 40 42 43 43 42 41 41 40 40 42
7 7 8 9 12 10 9 8 10 10 10 7 10 14 16 15 14 14 13 12 12 12 12 11 11 10 11 13 15 16 15 15 15 15 16 17 19 21 24 28 32 35 39 43 45 45 44 44 44 43 41 40 39 42
8 9 8 8 9 8 9 13 11 10 8 9 9 10 13 14 15 14 14 14 16 14 13 12 12 15 16 15 16 15 16 16 17 18 19 21 24 29 32 35 38 43 45 45 46 47 46 44 44 43 41 37 37 30
10 9 7 8 8 8 14 15 15 16 14 14 12 10 9 10 10 14 17 17 16 12 13 13 14 16 17 16 16 17 18 19 20 22 25 28 32 35 38 43 47 48 47 48 47 45 44 44 43 41 38 36 34 31
11 7 7 10 12 11 12 13 15 15 12 11 13 10 8 9 10 13 16 16 13 14 16 16 16 16 16 16 18 19 20 21 24 27 31 36 39 42 46 46 45 46 46 46 47 48 46 44 41 39 36 32 33 34
9 7 5 6 12 13 14 16 15 15 12 12 10 11 12 13 13 11 14 12 14 15 13 14 14 16 17 18 20 22 24 27 30 34 38 42 44 44 46 46 46 46 48 49 49 47 44 41 39 37 36 33 31 30
11 9 7 11 13 16 16 17 18 17 16 14 13 13 11 9 9 13 13 12 12 10 12 13 14 16 18 21 24 26 30 34 37 40 41 41 42 42 44 46 48 48 46 45 45 45 45 44 42 38 35 33 32 32
12 11 15 16 15 18 16 18 18 16 16 14 14 10 7 7 8 9 8 9 9 9 12 15 18 21 24 26 29 32 35 35 35 37 37 38 40 42 43 41 40 41 41 42 43 43 44 44 42 38 35 31 32 30
15 16 16 16 13 14 13 12 12 10 9 8 8 11 13 12 11 11 12 13 15 17 18 21 23 26 28 31 31 31 31 31 30 32 34 36 34 32 33 34 35 37 40 41 41 44 44 41 36 33 31 28 26 24
16 13 12 14 13 9 8 6 6 9 8 8 9 9 10 11 13 15 17 19 20 21 23 25 28 28 28 28 28 29 30 32 35 37 35 32 31 31 32 33 36 39 41 43 41 36 31 29 27 25 24 25 25 25
8 8 6 6 6 6 6 7 7 7 8 10 12 13 14 16 17 18 19 20 23 25 26 26 25 24 24 25 26 29 32 34 33 31 30 31 32 31 32 35 38 39 39 34 31 30 28 24 22 21 21 21 21 22
6 6 5 5 7 7 8 8 9 10 12 14 15 15 16 18 20 22 22 21 21 22 21 20 21 23 24 25 28 31 30 29 29 30 31 31 30 30 31 33 34 33 28 27 28 28 25 23 23 22 20 19 18 18
6 5 6 6 7 7 8 10 12 14 15 16 17 18 19 19 18 15 15 16 18 19 20 21 22 23 25 27 27 28 31 32 32 31 29 29 29 28 29 29 29 28 25 25 27 26 24 22 22 21 19 17 16 15

GFSWCAN_700_spd_039.txt.gz
Wind_Speed
47 48 45 45 43 41 39 37 33 28 31 32 31 30 33 38 37 22 18 16 16 19 22 24 23 20 20 19 18 17 17 19 19 18 16 15 12 15 16 18 16 12 8 12 14 11 13 15 17 18 14 21 24 23
46 45 44 42 43 44 37 35 32 29 25 29 31 31 30 30 28 21 19 18 19 20 20 24 21 20 18 17 17 16 17 14 14 13 17 13 12 13 16 16 19 16 20 15 14 9 15 13 16 22 23 26 26 24
44 44 43 42 41 45 37 35 32 30 28 25 25 28 29 26 24 21 20 19 18 18 15 21 22 20 18 18 18 17 17 17 16 13 15 15 14 14 15 16 19 18 20 25 26 26 25 26 28 29 29 28 26 28
51 42 44 40 39 46 35 35 32 30 29 27 26 26 26 25 23 21 19 18 17 17 14 19 20 20 19 18 17 16 16 16 16 17 17 18 18 16 20 20 20 19 23 25 28 28 29 29 28 27 28 28 33 28
53 41 40 37 36 43 35 35 31 28 27 26 25 24 24 23 21 20 19 17 16 16 12 16 18 20 20 19 19 19 19 18 17 18 19 18 20 22 25 26 29 24 26 28 31 27 29 29 29 29 30 29 27 29
48 40 36 36 34 42 36 34 30 27 26 25 24 23 22 21 20 19 18 17 17 16 11 12 17 18 17 17 17 18 18 19 19 19 20 22 22 23 20 27 29 26 24 25 28 27 29 28 28 27 27 27 28 28
41 39 38 36 32 37 37 33 30 27 24 23 21 21 20 19 18 17 16 15 16 15 15 14 12 13 13 16 17 18 18 19 21 22 24 25 26 27 32 34 29 30 30 29 30 29 28 26 26 26 26 27 32 31
48 36 35 36 33 29 35 34 29 26 24 22 20 19 18 17 16 15 14 12 12 14 15 10 8 11 13 15 17 18 19 21 24 26 27 27 29 30 35 32 33 29 26 25 23 22 24 26 26 25 28 28 28 23
41 42 32 30 33 31 28 30 36 27 23 22 22 21 19 17 16 15 15 15 16 16 14 16 17 15 14 14 15 17 19 24 25 27 27 27 31 30 31 31 31 30 29 28 28 27 26 26 25 28 29 24 13 13
36 33 33 30 32 32 31 29 25 27 30 24 22 21 20 19 17 16 17 18 20 21 21 20 18 18 17 17 17 19 20 18 16 19 20 27 34 31 30 30 29 29 27 27 27 23 23 22 28 21 12 10 12 14
32 33 33 34 32 29 30 29 28 28 26 26 26 25 22 19 20 19 17 13 14 15 21 24 24 24 23 23 20 17 12 10 13 16 18 19 29 26 26 24 24 24 23 23 19 20 22 18 9 6 8 12 15 18
26 33 32 33 36 27 24 25 27 26 25 25 24 23 22 19 15 12 11 11 11 13 13 12 15 20 25 24 21 17 17 11 9 13 11 12 22 20 19 18 18 17 16 15 14 15 11 6 9 12 13 15 20 25
18 20 30 35 31 27 25 24 24 22 21 21 21 18 12 14 15 11 13 11 13 17 18 14 13 16 18 19 16 13 10 12 14 9 9 15 19 18 17 13 9 9 13 13 10 4 10 13 12 15 20 24 28 28
16 16 16 18 27 35 33 28 27 25 23 21 20 15 12 9 11 17 20 20 24 20 14 12 13 10 15 12 13 7 10 9 7 7 7 12 10 12 14 12 12 11 6 4 9 11 13 16 19 22 26 27 27 28
14 14 14 14 15 16 19 27 31 31 25 23 14 10 17 15 12 11 15 18 18 16 14 14 14 12 10 9 7 9 6 6 7 6 9 6 12 12 7 4 1 4 7 9 12 16 19 21 24 24 25 26 29 32
13 12 13 13 12 13 13 14 14 15 21 9 8 6 7 11 11 10 10 13 13 13 13 14 15 9 13 8 8 8 5 6 7 9 12 12 12 8 3 1 2 5 9 14 18 20 24 24 24 24 26 30 34 37
13 12 12 12 11 11 11 12 13 15 11 7 8 9 5 4 5 6 7 8 9 12 15 12 8 9 6 6 6 7 7 8 8 11 13 10 9 5 3 5 10 13 16 20 22 22 23 24 26 30 34 36 38 39
10 10 10 10 10 10 10 10 10 7 7 8 8 10 10 9 8 7 7 7 7 9 13 11 8 8 5 5 9 9 9 10 8 7 3 5 7 6 10 12 15 18 20 21 22 23 25 29 33 36 38 40 42 41
6 6 5 6 8 10 10 9 7 6 7 9 9 10 10 9 7 5 4 4 5 6 8 8 6 6 9 8 7 6 4 4 4 4 3 8 10 11 14 17 19 20 20 22 24 27 32 36 39 42 45 45 45 44
4 3 3 4 6 8 7 6 8 5 8 9 10 10 9 8 7 7 7 7 7 7 7 5 5 5 6 6 6 6 7 7 8 10 11 13 15 17 17 18 19 21 24 26 29 33 37 40 44 45 45 45 46 45
3 3 3 5 8 9 7 6 10 9 10 11 11 9 9 8 8 8 8 8 9 9 8 6 7 9 10 10 11 11 11 12 13 14 16 17 16 17 18 21 23 26 29 32 36 40 44 47 48 48 49 48 46 45
6 6 6 6 7 9 9 10 11 11 11 11 13 13 13 13 12 11 11 13 13 12 10 10 11 13 13 13 13 12 13 13 13 13 14 16 18 20 22 24 26 31 36 40 44 48 49 50 51 51 50 50 49 48
7 7 8 7 7 8 9 12 11 11 11 11 11 11 12 13 15 15 16 18 17 15 15 14 14 15 14 13 13 13 13 13 14 16 17 19 21 23 26 31 35 39 42 47 48 49 50 51 52 53 53 52 49 45
7 6 6 4 7 7 10 10 13 13 12 11 12 12 10 10 10 14 17 19 17 13 13 15 16 15 14 15 15 14 14 15 17 19 20 22 25 29 33 37 41 46 47 48 50 51 52 53 52 50 47 45 43 40
7 5 5 6 7 9 10 10 13 16 16 13 12 12 9 9 11 14 17 16 14 13 15 17 18 17 17 18 16 17 18 20 22 23 25 28 31 35 40 44 44 45 47 48 50 51 50 48 46 45 44 43 41 39
5 5 6 4 7 11 12 10 11 14 15 14 9 9 11 12 11 9 11 12 13 15 17 15 15 16 17 17 18 19 21 23 26 28 31 35 39 41 42 43 44 45 48 49 48 47 47 47 48 48 48 46 43 41
7 6 8 9 8 11 13 16 15 16 16 13 12 12 9 6 7 11 11 12 13 13 13 15 15 15 15 16 18 21 24 27 31 35 38 39 39 40 42 44 46 46 44 43 44 46 49 50 50 50 48 43 38 34
11 13 13 11 12 16 14 15 14 14 14 14 15 12 6 7 6 7 8 8 8 9 10 12 14 17 19 22 24 27 30 34 36 36 36 37 38 40 42 42 40 39 39 40 43 46 47 46 42 40 38 35 32 26
16 15 15 17 15 14 13 13 13 12 12 10 11 11 12 12 11 11 11 10 11 12 15 18 21 23 25 27 29 31 31 31 31 32 33 35 37 37 35 34 35 35 36 38 39 40 37 36 35 34 33 32 29 25
20 19 15 14 10 11 10 9 7 8 7 5 6 7 8 9 10 11 13 16 18 19 21 23 25 27 29 30 29 28 28 29 30 33 35 35 33 32 33 33 32 31 33 33 34 31 30 30 30 27 28 29 27 25
9 8 7 5 7 5 2 3 4 5 6 7 8 10 11 14 15 17 18 19 21 23 24 25 25 25 25 25 26 27 30 32 34 34 32 33 34 34 33 31 30 30 30 30 31 30 28 29 28 27 26 26 24 23
3 3 4 5 6 6 6 6 8 10 11 12 13 14 15 17 18 20 20 21 22 22 22 22 22 22 24 26 27 28 30 31 30 31 32 32 31 30 29 28 28 28 27 28 29 29 27 27 27 26 25 24 22 21
7 7 6 6 7 8 9 10 12 14 15 16 17 17 18 20 22 21 18 17 18 20 21 22 23 24 25 26 27 29 29 30 31 30 30 29 29 28 28 27 27 26 26 27 28 28 27 26 26 25 24 23 22 20

GFSWCAN_700_spd_042.txt.gz
Wind_Speed
57 53 48 46 45 45 42 37 34 33 33 34 33 33 34 37 40 35 29 21 18 18 28 27 23 21 22 20 19 18 18 18 15 18 17 16 11 13 14 18 16 15 9 11 10 9 11 14 15 15 13 14 19 24
51 49 48 48 46 42 38 35 33 34 33 33 31 31 36 40 41 38 28 19 17 19 25 26 21 21 18 19 19 17 16 11 12 12 17 15 14 15 17 17 18 15 19 15 13 8 14 20 20 19 22 23 25 27
44 45 46 44 43 38 35 33 30 32 32 32 31 31 35 36 32 26 11 17 16 17 19 23 23 21 20 18 17 16 16 15 16 16 16 14 15 15 16 16 19 18 18 23 22 23 24 24 24 27 28 28 28 27
42 42 44 44 38 36 35 32 29 28 31 31 31 31 30 30 28 23 19 17 17 18 17 23 22 22 20 18 18 17 16 15 16 16 17 19 20 18 19 19 17 17 22 25 27 25 26 24 25 26 27 28 29 28
41 41 39 37 39 39 35 32 30 29 28 30 31 32 30 29 27 24 19 18 18 18 18 19 21 21 20 19 18 18 17 16 18 19 20 19 20 20 23 23 25 22 23 24 27 22 24 25 26 26 28 28 27 26
41 38 39 39 40 42 35 33 29 28 28 27 28 25 25 24 24 23 21 20 19 20 9 16 18 20 20 19 19 18 18 19 19 18 19 21 22 22 15 21 25 23 22 26 28 27 27 28 28 27 25 23 23 24
39 39 37 36 27 39 31 33 27 28 27 27 26 25 24 24 23 22 22 20 18 17 15 11 11 17 17 16 17 17 17 18 19 20 22 24 24 25 27 28 26 26 26 27 28 27 27 26 26 25 25 24 23 24
36 34 34 32 22 44 33 31 30 27 25 24 24 23 22 21 20 19 17 15 17 16 15 10 8 11 14 15 16 16 17 18 21 23 25 26 27 27 30 29 28 27 27 26 26 27 27 27 27 26 26 26 25 30
33 29 31 28 26 40 33 32 29 31 24 22 21 20 18 18 17 16 15 14 14 15 11 11 12 10 10 11 13 16 19 23 24 26 26 26 29 24 26 29 30 30 30 30 28 27 26 25 24 24 26 27 26 16
37 28 29 27 25 35 35 33 29 27 25 22 21 19 15 14 13 13 14 14 15 16 16 14 12 13 12 13 15 18 19 17 15 19 19 24 30 27 28 29 29 30 29 28 25 25 24 19 22 24 18 14 12 9
33 34 29 28 25 23 27 33 31 30 28 25 22 19 17 14 15 13 12 10 11 10 13 17 17 18 19 20 19 14 12 9 10 14 18 17 22 23 24 24 24 23 23 22 20 17 15 18 17 14 11 9 13 17
33 33 29 28 27 26 24 23 23 26 31 29 26 22 21 16 11 9 8 9 7 9 11 13 16 20 24 22 17 13 15 10 8 13 10 11 20 20 19 17 18 20 20 18 15 14 15 12 8 8 13 17 19 21
29 31 31 34 29 27 25 26 25 24 21 17 17 15 9 10 13 9 12 9 12 16 14 13 15 17 18 18 13 10 8 10 13 8 9 14 19 17 16 16 12 13 13 14 13 9 5 9 15 18 18 19 22 23
26 29 28 28 31 30 29 26 23 23 22 22 19 14 12 9 9 16 18 17 17 14 12 11 12 10 13 11 11 6 10 8 6 7 8 13 14 11 11 12 13 12 11 8 6 10 13 15 17 19 23 24 24 25
13 23 28 28 31 25 25 23 25 26 27 18 14 9 13 14 12 9 11 16 16 17 16 14 13 14 11 8 6 8 6 6 7 8 10 8 13 13 13 13 10 7 7 9 11 11 13 17 21 23 23 24 26 29
11 11 9 11 19 25 27 29 29 25 23 17 12 10 9 13 14 13 13 14 14 13 10 12 12 6 10 7 8 8 5 6 7 9 8 12 13 11 8 5 4 5 6 10 11 15 19 22 23 23 24 27 31 35
12 9 10 12 11 10 7 10 16 22 14 7 9 12 9 9 9 10 8 9 9 10 15 11 7 9 5 7 8 9 11 11 10 8 9 14 17 11 4 1 3 7 11 14 18 20 22 23 24 27 30 34 38 40
11 10 10 10 10 10 10 11 10 8 6 5 7 8 8 9 10 11 12 14 15 16 16 15 11 11 6 5 7 8 9 7 6 8 10 12 9 7 5 9 11 14 16 18 20 21 23 26 29 34 37 40 44 46
10 9 9 9 9 9 9 9 7 5 7 9 9 11 10 8 9 8 8 7 8 9 10 9 6 7 9 10 9 7 5 5 6 6 3 7 7 13 14 14 16 17 19 21 22 25 27 31 35 40 44 48 49 49
6 5 5 5 6 7 5 4 7 4 6 8 8 10 9 8 7 6 5 6 6 7 8 7 9 8 6 5 5 5 6 6 7 7 8 10 13 14 16 17 18 20 22 24 26 29 32 37 41 45 47 49 51 52
1 1 1 1 1 3 3 3 6 5 5 7 10 10 8 7 6 5 5 5 6 6 6 6 6 6 8 8 9 9 9 9 11 12 14 15 16 17 18 19 21 24 26 28 31 36 40 44 47 49 51 52 54 54
4 4 5 5 4 4 5 5 5 6 7 7 11 11 10 9 8 8 7 9 10 9 9 9 9 10 11 11 12 12 12 13 14 15 16 16 17 19 21 22 25 27 30 34 39 43 46 47 49 51 54 55 54 53
8 8 6 6 5 5 6 9 9 9 8 9 11 10 12 12 12 11 13 12 13 14 14 13 13 14 14 13 13 14 14 14 15 15 16 18 20 22 24 25 27 31 35 39 43 45 46 49 51 52 52 51 50 49
9 7 6 3 3 3 5 5 8 11 11 11 11 11 10 10 11 12 15 16 14 14 14 14 15 16 16 16 15 15 16 17 17 18 18 20 22 24 26 30 33 38 41 42 44 46 48 49 49 48 48 49 49 49
8 5 3 4 3 5 5 7 7 8 12 12 13 13 10 8 10 11 14 11 9 12 14 16 17 18 16 16 16 17 17 18 18 20 21 23 25 28 32 36 38 39 41 42 44 46 46 45 45 46 47 48 47 45
2 1 2 2 4 4 5 7 9 9 9 10 9 8 9 8 8 7 8 7 10 12 13 15 15 14 15 16 16 17 18 19 21 22 25 27 30 33 35 36 37 39 43 44 45 44 42 42 43 44 42 41 40 38
2 3 4 5 8 7 9 11 10 12 11 9 11 12 10 7 6 9 9 10 11 11 13 14 15 15 15 15 15 17 19 21 24 27 31 33 34 35 36 38 40 42 44 42 41 40 39 39 39 39 37 36 35 33
4 6 9 11 12 11 12 14 14 13 11 13 14 10 6 7 6 7 5 5 8 10 10 11 13 13 15 17 20 22 25 27 30 32 33 34 34 36 38 41 42 40 38 39 39 37 36 36 36 36 35 33 31 31
11 14 16 15 16 16 14 11 10 11 11 9 9 8 8 9 10 10 8 7 9 10 11 13 16 19 21 23 25 27 30 31 31 31 32 33 35 37 38 37 36 37 37 35 34 34 33 34 34 33 33 33 31 30
15 14 13 11 9 7 8 7 5 7 7 6 7 7 5 5 7 9 9 11 13 16 18 19 21 23 25 27 28 27 26 26 27 29 31 34 35 34 33 33 33 32 31 30 30 30 29 30 31 30 29 29 29 28
8 7 5 6 6 5 5 5 4 3 3 4 4 7 8 11 13 14 15 17 18 20 22 24 25 25 25 25 25 25 26 28 30 32 33 32 31 31 31 31 31 30 29 29 28 27 27 28 28 28 28 27 26 26
2 2 4 6 6 6 6 6 7 8 9 10 11 12 13 15 16 18 18 19 20 22 22 21 20 21 23 25 25 27 28 30 31 30 29 30 30 30 30 29 29 28 27 27 27 26 27 28 28 28 28 27 26 25
7 7 7 7 7 8 8 9 11 12 13 15 16 16 18 19 20 21 20 18 16 17 19 21 23 24 24 25 26 27 29 30 29 29 30 30 29 29 28 28 28 27 27 26 26 26 27 28 28 28 27 26 26 24

GFSWCAN_700_spd_045.txt.gz
Wind_Speed
42 64 70 62 55 54 49 44 40 37 37 39 42 44 44 43 41 37 35 29 27 23 19 26 28 29 32 28 23 21 21 20 18 16 13 12 9 11 11 13 12 12 7 8 9 7 8 5 7 8 11 13 16 17
54 52 53 52 48 44 40 36 35 35 36 37 38 39 40 40 39 36 33 28 26 23 22 26 27 21 25 27 23 21 19 15 17 14 13 9 11 11 12 13 14 13 16 13 11 8 13 18 21 19 17 17 21 22
53 52 49 46 43 41 38 35 33 33 34 34 34 35 37 39 39 37 33 32 21 20 24 27 27 23 22 21 21 21 19 18 15 15 13 12 14 13 14 13 15 16 17 20 19 20 18 20 22 21 20 22 22 23
52 51 47 44 43 39 36 33 33 33 33 33 32 34 36 38 39 39 27 20 18 20 24 30 26 24 21 19 20 18 16 16 15 15 16 18 18 16 16 16 14 17 20 22 23 21 20 20 21 21 22 25 25 25
47 45 42 42 38 34 32 30 29 31 32 30 30 32 33 35 33 31 31 18 15 18 17 27 25 23 22 20 17 17 17 17 16 17 17 16 18 19 20 18 19 18 19 20 21 18 21 22 24 25 26 26 27 26
38 39 41 35 35 33 32 30 37 32 31 29 30 32 32 31 28 27 19 14 17 20 13 24 23 23 21 20 19 18 17 16 17 17 19 19 20 18 12 14 18 20 18 22 23 23 24 25 25 25 25 25 24 24
40 38 37 37 36 39 31 27 32 35 32 31 27 30 32 31 29 28 24 21 19 20 12 18 18 21 20 19 18 18 18 18 17 18 19 20 19 19 21 21 21 22 23 23 24 23 23 22 23 23 21 21 21 23
32 38 38 33 35 37 33 26 26 27 27 34 27 28 27 26 25 24 23 22 20 18 16 10 9 16 19 18 18 17 17 18 19 20 21 22 21 21 19 23 23 22 23 23 23 24 25 25 23 22 22 20 19 23
27 32 31 25 29 38 38 33 30 28 23 21 33 25 23 23 22 19 18 16 18 16 12 13 14 10 13 14 15 16 19 20 20 22 23 22 22 17 21 22 25 26 26 26 26 26 24 21 21 19 17 20 21 18
21 24 25 20 22 25 34 33 31 29 27 25 25 23 22 21 19 18 16 15 15 16 15 11 12 13 12 13 15 17 16 13 12 16 16 21 24 21 22 24 26 26 26 23 20 19 19 19 17 15 15 15 15 12
28 23 20 19 23 32 33 31 31 28 25 24 24 24 21 19 16 15 11 12 10 10 13 16 15 15 15 16 16 11 10 8 7 13 15 12 17 19 20 21 21 21 20 19 18 16 16 15 14 13 12 9 10 15
27 27 23 21 19 34 30 25 27 30 28 24 21 20 18 16 9 8 8 9 7 11 13 15 16 18 20 19 15 11 12 8 8 11 9 8 16 17 17 16 17 17 18 17 14 12 10 10 9 6 9 14 16 16
25 27 25 23 20 21 26 29 23 23 26 25 24 22 14 15 10 9 12 13 13 13 12 12 15 18 18 17 12 8 7 9 9 6 8 15 16 16 16 16 15 13 13 12 9 8 4 6 11 12 12 14 15 16
27 28 29 27 24 21 21 21 19 18 19 20 16 12 8 6 9 13 14 15 13 12 13 13 15 11 14 13 10 6 8 6 6 8 11 15 11 12 13 12 10 10 9 8 7 6 7 7 9 12 16 18 18 20
27 29 28 26 24 23 24 22 22 19 17 13 9 8 13 12 10 11 14 16 16 14 14 14 13 14 10 8 6 8 5 6 7 7 8 8 8 9 11 12 11 7 3 2 2 4 7 11 14 18 19 21 22 25
20 22 25 29 28 26 24 25 26 24 23 15 13 8 10 12 14 14 13 13 14 16 14 13 11 6 10 7 8 9 5 5 3 4 6 7 9 12 12 9 6 3 3 5 9 11 14 17 19 20 22 24 27 31
13 9 14 19 20 21 21 25 23 24 20 12 11 14 10 11 11 12 12 13 12 13 13 9 8 8 5 5 8 7 6 8 8 7 4 8 11 12 10 6 5 5 7 11 15 17 19 20 22 24 26 29 33 36
11 9 8 8 8 8 12 16 23 7 10 15 13 13 10 9 7 8 7 7 8 10 12 12 9 10 6 5 6 5 7 8 5 3 7 12 16 10 8 6 7 11 14 16 19 20 22 23 25 29 32 36 41 44
10 9 10 11 11 11 11 9 5 4 6 7 7 9 8 10 10 10 11 11 12 13 13 12 7 6 8 9 8 6 5 5 4 5 7 7 10 10 11 10 15 17 19 20 21 23 25 28 31 35 40 45 47 49
12 10 9 8 9 9 6 7 7 5 9 10 10 12 10 9 9 8 8 7 7 7 7 6 7 6 5 3 3 3 4 3 5 5 7 8 10 13 15 17 18 20 21 23 25 27 29 32 36 41 45 47 49 52
7 7 7 7 5 5 6 6 6 7 8 9 10 11 10 9 7 6 6 6 5 5 5 5 4 4 4 5 5 6 7 7 8 10 11 12 14 16 18 19 20 21 23 25 27 30 34 38 43 45 47 49 50 52
3 3 4 4 4 4 3 4 4 5 5 6 9 8 8 7 5 5 5 6 5 6 6 7 7 7 8 9 9 10 11 12 13 15 16 17 17 18 19 20 22 24 26 28 32 36 40 43 44 46 48 49 50 49
6 6 5 4 2 1 1 1 2 2 3 4 7 8 9 9 8 8 9 8 9 9 10 10 11 11 12 12 13 13 14 15 15 16 17 18 18 19 21 23 25 27 30 33 37 39 41 42 44 45 46 45 45 44
8 6 4 2 2 2 2 2 2 3 4 5 6 7 6 6 7 8 9 9 10 11 11 13 14 14 14 15 14 15 15 15 16 17 18 19 20 21 23 25 27 31 34 36 37 39 41 42 43 42 42 41 40 40
6 6 5 6 5 5 4 4 3 3 5 7 8 8 6 7 8 9 11 10 9 10 12 14 15 15 15 16 15 15 16 17 17 18 18 20 21 23 26 29 32 34 35 36 37 39 40 40 39 38 37 36 36 36
7 8 6 7 8 7 7 8 5 4 4 5 4 7 7 9 8 6 8 8 10 11 12 13 14 16 16 16 16 16 16 16 17 18 20 21 24 27 30 31 33 34 36 38 40 39 37 37 37 34 33 33 33 32
9 6 7 5 6 6 6 7 8 10 6 4 6 8 8 7 7 8 7 8 8 8 9 10 11 12 13 14 14 15 15 16 18 21 24 27 29 30 31 32 33 36 38 39 37 37 36 35 32 31 30 32 32 31
5 4 5 8 9 6 8 10 10 7 4 4 7 7 4 4 5 7 5 4 4 5 7 8 9 10 12 13 15 17 20 22 25 27 29 29 30 31 32 35 38 38 36 36 35 35 33 32 31 30 30 31 31 30
5 8 8 6 7 7 7 6 5 7 9 9 9 7 5 5 4 5 5 4 4 6 8 9 10 13 15 18 20 23 25 26 27 27 28 29 31 33 36 36 34 33 33 33 33 32 32 31 30 29 30 30 30 30
8 7 5 4 5 4 3 2 5 6 5 5 5 5 5 5 4 4 5 6 8 11 14 15 17 18 20 22 23 23 24 24 25 27 29 31 32 33 32 31 31 31 31 31 30 31 30 29 29 29 30 31 31 31
6 4 5 6 6 4 4 4 4 2 3 3 5 6 7 9 10 11 12 13 15 16 18 19 19 20 20 20 20 22 24 26 27 28 30 32 32 31 30 30 30 30 30 29 29 28 28 27 27 27 28 29 30 29
5 4 3 4 5 5 5 6 6 7 8 9 10 11 12 14 15 16 16 16 16 17 19 18 17 18 20 22 23 24 26 28 29 30 30 30 31 31 31 31 30 30 29 28 28 27 27 27 27 27 28 28 28 28
7 6 6 6 6 7 7 8 9 10 12 12 14 16 17 17 16 15 14 14 14 14 15 17 19 21 22 23 25 26 28 29 30 30 32 33 32 30 29 29 28 28 28 28 28 28 27 27 27 27 27 27 27 26

GFSWCAN_700_spd_048.txt.gz
Wind_Speed
40 43 43 37 35 39 39 66 62 52 54 52 53 54 55 53 49 48 42 32 28 24 22 26 34 32 36 33 30 27 22 22 21 19 19 12 10 13 12 11 7 7 6 7 8 6 6 2 3 4 9 17 15 16
36 45 54 46 45 56 61 48 49 51 51 50 52 52 52 51 48 44 36 32 29 25 22 21 30 28 35 31 30 25 25 18 21 20 17 12 11 10 14 8 11 11 14 10 8 5 10 15 16 14 16 17 17 18
37 46 46 51 48 50 49 46 43 42 45 49 51 50 50 48 46 40 32 29 28 26 22 22 29 30 30 33 29 27 23 22 19 20 16 13 11 11 12 13 13 13 14 16 14 13 12 17 19 20 20 21 22 23
52 46 51 52 49 46 44 44 43 43 43 45 47 48 46 44 41 36 30 26 24 25 26 27 28 29 24 28 31 28 23 21 18 17 18 17 16 14 15 14 13 14 16 16 17 17 17 19 19 20 22 23 25 26
53 51 49 45 42 40 39 39 39 40 41 42 45 45 44 41 39 34 29 28 24 23 19 30 30 28 25 24 23 22 21 19 19 18 18 18 19 17 16 16 17 16 18 17 17 17 17 21 22 24 25 26 24 25
47 46 43 41 39 38 38 37 36 38 39 39 39 39 40 39 37 31 26 28 29 8 14 30 31 29 25 21 20 22 21 19 20 20 19 19 17 16 11 13 16 17 17 17 19 20 22 23 23 23 23 24 25 24
41 40 37 34 33 35 34 34 34 34 35 35 35 36 36 35 36 33 23 22 30 11 9 22 27 26 27 27 26 22 20 19 19 18 19 19 18 16 17 17 19 20 20 21 21 22 22 21 22 24 24 23 22 22
36 35 33 31 28 36 37 36 34 38 33 34 35 35 34 33 33 27 25 19 16 15 15 12 14 24 24 23 21 20 20 18 19 19 19 18 17 18 15 20 21 21 20 21 21 20 21 24 24 23 22 19 17 17
30 29 28 30 25 29 38 39 37 35 34 34 34 34 32 33 35 31 22 20 20 17 13 10 13 15 23 22 21 20 20 19 19 19 20 18 18 14 21 20 21 22 22 22 23 24 24 21 19 18 17 16 17 18
28 25 22 23 26 23 24 36 40 38 37 38 36 34 31 29 28 21 22 28 23 19 16 14 17 14 15 20 20 18 16 14 12 16 18 20 21 23 24 24 24 23 23 22 19 17 17 16 16 14 12 13 12 10
23 23 18 17 24 27 29 25 24 17 41 37 34 30 28 24 24 23 16 19 13 14 19 17 16 18 17 16 17 13 9 7 6 12 14 11 16 19 20 21 20 18 16 14 14 13 13 12 11 11 9 8 7 8
16 18 17 17 22 21 32 31 27 27 30 28 23 25 30 26 14 8 15 14 11 12 16 21 19 17 17 15 14 11 12 7 7 11 9 8 17 20 18 15 14 14 13 12 9 8 8 9 9 7 5 6 7 8
18 13 14 14 16 25 33 33 30 29 30 25 31 29 21 12 9 10 13 13 12 12 18 17 18 17 16 16 11 8 8 9 9 7 8 15 16 14 13 13 11 9 7 6 6 6 6 4 4 5 6 8 10 11
22 23 18 15 17 25 24 32 32 31 26 27 22 18 10 8 9 9 17 17 17 14 15 16 19 15 16 12 9 6 9 7 6 8 12 15 12 11 8 7 6 6 6 6 6 5 5 5 6 8 10 12 13 15
24 24 21 18 19 20 25 21 16 18 23 18 11 7 11 11 16 13 15 15 16 17 17 17 17 15 12 8 7 8 6 6 8 9 7 5 6 7 8 9 10 10 9 7 5 5 7 9 12 14 16 17 19 22
24 20 22 23 22 21 21 20 16 15 16 10 7 9 13 13 13 16 18 17 16 15 14 14 13 7 10 7 8 9 6 6 6 5 4 5 6 9 10 12 12 10 8 8 9 9 11 14 17 18 19 21 24 27
17 22 25 22 23 21 20 20 18 18 12 8 13 15 10 11 16 17 15 15 14 16 17 10 7 9 6 6 7 7 7 7 6 5 5 5 6 10 12 11 9 9 9 10 12 15 18 20 21 22 24 25 28 32
13 14 17 21 25 26 25 25 25 11 9 14 15 15 15 15 16 16 15 13 12 14 15 12 9 11 6 6 8 6 5 5 5 3 2 6 11 12 12 11 9 8 11 14 17 20 21 22 24 25 28 31 34 38
9 10 12 11 10 11 19 13 9 12 16 15 18 15 14 13 13 12 10 10 10 11 12 11 6 8 9 8 7 6 5 6 4 5 8 12 13 11 11 13 14 12 15 18 20 22 23 24 27 30 33 36 41 44
13 11 11 11 12 11 8 7 8 8 10 11 10 12 11 11 11 10 10 11 11 10 10 9 9 7 5 5 5 4 5 5 5 6 9 12 11 11 13 15 18 19 20 21 23 24 26 29 31 34 38 42 45 47
13 13 12 11 8 5 9 9 8 12 16 15 14 13 12 12 11 10 9 9 8 8 7 7 5 5 6 5 5 4 5 6 7 8 9 11 13 15 17 19 20 21 22 23 25 27 29 32 35 39 42 44 46 47
7 8 8 8 8 10 9 9 10 12 10 15 14 12 12 11 10 9 8 8 8 8 7 7 7 7 7 8 8 8 8 9 10 12 13 14 16 18 19 19 20 21 23 25 27 30 33 37 39 41 43 44 46 44
4 4 3 4 5 5 8 8 9 8 7 11 11 10 10 10 9 10 9 9 10 10 10 10 10 10 11 11 12 12 12 13 14 15 16 17 17 18 19 20 21 23 26 28 30 34 37 39 40 41 43 42 40 39
4 1 4 3 4 6 6 5 5 5 6 6 6 6 6 8 9 12 12 12 12 13 13 14 15 15 15 15 15 16 16 16 16 16 16 17 18 19 20 22 24 25 28 32 35 36 37 38 40 40 38 37 36 34
4 4 6 7 6 6 5 6 4 3 2 0 2 3 3 5 6 8 9 11 12 13 15 16 16 16 16 15 15 15 15 15 15 16 17 18 18 20 21 24 27 30 32 33 34 35 37 38 36 35 35 34 32 31
7 7 5 6 8 7 6 7 7 6 3 2 1 2 4 6 7 6 8 11 13 13 13 15 15 15 15 16 17 16 15 15 16 16 17 18 20 23 26 29 31 31 32 33 35 36 35 33 33 32 32 31 30 30
10 9 9 8 6 4 3 2 2 3 4 1 2 2 3 4 5 9 9 10 9 9 10 10 11 12 13 14 14 14 14 14 15 17 19 22 25 27 28 29 29 31 34 36 35 33 32 31 31 31 30 29 29 28
7 5 2 2 2 2 1 1 2 2 2 2 2 3 3 3 5 8 8 8 8 7 7 8 8 10 11 12 13 14 16 17 20 22 24 25 26 26 28 30 32 34 33 32 32 31 31 30 30 29 28 28 27 28
2 2 2 1 0 0 1 2 2 0 2 4 5 6 6 6 6 4 4 3 3 4 5 6 7 9 11 14 16 18 20 22 23 23 24 25 27 29 31 32 33 32 32 31 31 30 30 30 29 29 28 27 27 28
3 3 3 3 2 3 3 2 0 2 1 2 3 3 4 4 4 3 3 4 6 8 10 12 13 15 16 17 18 19 20 20 22 24 25 27 28 30 32 32 32 32 31 31 31 31 30 30 29 28 28 27 27 28
7 6 6 6 5 3 2 1 2 1 1 2 2 4 6 8 9 10 11 12 13 14 15 16 16 16 17 17 17 19 21 23 24 25 27 29 31 32 32 33 34 33 32 31 30 29 28 27 27 27 27 27 27 28
2 1 1 1 2 2 2 3 4 5 6 7 9 10 11 12 13 15 15 14 14 14 15 16 15 14 15 17 19 21 23 25 27 28 30 31 33 33 33 32 31 30 29 28 28 27 27 27 27 27 27 27 27 27
4 3 3 3 3 4 5 6 7 8 9 10 12 14 16 16 15 15 13 12 12 12 12 13 14 16 18 20 22 24 26 28 30 31 31 30 30 30 29 29 28 28 28 28 28 28 28 28 28 27 26 26 25 25

GFSWCAN_700_spd_051.txt.gz
Wind_Speed
46 42 37 37 32 39 41 39 40 40 37 71 53 69 72 68 66 51 43 34 28 24 33 32 29 31 27 29 30 30 26 23 20 16 15 12 11 11 10 8 9 8 9 9 12 8 8 11 7 4 6 14 20 17
45 48 43 39 34 34 36 43 35 36 62 45 67 70 68 66 62 47 40 34 25 25 25 34 38 30 35 28 26 27 24 23 21 14 17 15 13 11 15 8 13 9 11 6 9 4 10 9 11 18 18 18 22 22
35 36 38 40 41 42 33 35 44 45 46 70 73 70 64 63 58 43 39 37 28 22 21 25 34 33 29 36 37 30 30 26 22 21 17 16 12 14 14 15 11 13 16 14 15 8 11 13 18 22 22 21 22 22
39 38 35 34 33 36 39 46 42 55 65 60 60 61 59 58 54 44 37 33 28 24 22 23 27 33 31 32 35 32 31 24 20 18 19 20 15 12 14 12 10 11 13 12 14 15 13 17 21 19 20 23 24 25
46 44 40 45 48 50 54 60 50 55 56 54 54 55 54 52 48 43 37 33 29 24 22 22 24 29 31 30 34 31 28 26 20 22 23 22 19 16 16 16 14 16 13 14 11 16 17 21 21 23 24 25 26 25
51 49 47 47 48 47 47 47 47 49 50 50 50 50 50 50 43 36 31 33 24 23 23 26 27 29 30 29 30 34 32 28 26 23 23 21 18 17 11 15 17 19 18 19 21 20 21 24 25 25 25 23 24 26
37 38 39 39 41 41 42 42 43 45 46 47 47 46 43 45 36 32 17 21 22 18 24 21 26 29 30 28 28 28 27 26 25 23 23 20 18 18 20 17 20 20 20 21 21 22 25 25 24 23 24 26 25 24
41 40 37 37 35 34 36 38 40 40 40 41 41 41 41 42 33 26 14 13 19 15 16 10 15 31 32 31 29 28 27 25 24 23 21 20 19 20 17 21 23 23 23 24 24 23 23 22 24 26 25 23 20 18
32 34 36 34 34 36 36 37 39 40 40 40 40 39 37 38 33 26 16 18 16 18 4 7 16 23 31 31 29 28 28 25 20 22 23 21 20 15 21 23 23 24 24 23 23 22 23 25 24 20 18 18 15 16
25 28 37 35 33 35 36 37 38 39 40 39 38 38 37 37 33 23 21 17 14 10 10 10 16 17 25 27 27 24 21 17 12 20 20 23 23 22 24 25 25 25 23 24 23 23 21 18 17 16 13 13 14 13
18 18 19 38 35 34 34 37 37 38 38 40 40 38 40 30 28 28 13 13 11 12 15 16 16 14 17 26 25 19 14 10 8 13 14 10 17 21 23 26 25 23 21 19 18 18 16 15 13 13 12 11 10 11
15 15 18 21 32 41 41 38 38 39 35 32 31 33 32 24 13 8 12 11 9 14 14 21 18 18 19 20 15 20 10 9 7 9 9 7 19 21 23 21 19 16 15 15 14 13 13 11 11 10 10 10 10 11
20 18 18 19 14 27 34 37 39 36 33 34 37 26 13 8 6 6 14 13 11 16 16 20 21 19 17 16 12 9 8 9 8 8 8 16 17 18 17 15 13 13 12 10 8 8 8 8 9 10 11 11 12 13
9 11 15 18 19 18 23 22 27 39 37 34 21 17 9 8 12 12 20 20 17 13 19 18 21 19 18 15 9 6 9 7 8 7 10 13 13 13 12 11 9 7 7 8 8 8 9 10 10 10 11 13 15 17
9 9 6 8 16 24 27 25 23 27 29 20 10 10 11 12 11 11 18 19 20 19 15 15 17 15 12 8 8 8 7 6 7 10 11 8 10 9 8 7 7 8 8 9 10 11 10 10 11 13 15 18 19 20
13 11 9 11 13 14 19 28 30 29 26 13 7 10 17 12 14 17 18 16 15 14 16 16 13 8 9 6 8 8 6 6 10 8 8 6 6 7 10 10 10 11 11 11 11 11 12 13 15 18 20 21 23 25
13 13 14 10 12 14 15 13 16 24 12 10 12 12 13 15 15 14 15 15 15 15 15 10 8 9 6 7 8 9 12 10 9 8 6 6 8 10 11 11 13 13 12 13 13 13 15 18 20 22 24 25 27 30
13 15 15 15 15 12 14 12 8 6 8 11 17 17 15 13 15 16 14 13 13 14 15 12 10 11 7 7 9 9 8 8 5 4 6 9 10 11 13 14 14 14 14 14 14 16 18 21 23 25 26 28 31 34
11 14 13 15 17 16 13 15 17 11 10 13 14 16 16 15 14 14 13 12 12 11 11 10 6 9 11 8 7 7 6 6 6 7 6 7 9 11 12 13 15 14 14 16 17 21 23 23 25 27 29 31 34 38
12 13 10 9 8 11 12 10 15 12 18 18 16 14 13 13 13 12 11 10 10 10 10 8 8 5 5 6 7 7 6 7 6 7 9 11 13 14 13 15 16 16 18 21 22 24 24 26 27 29 32 35 38 41
12 11 9 8 6 4 7 9 10 14 14 13 12 12 11 10 9 10 10 10 10 9 7 7 6 6 7 8 8 8 8 8 8 8 9 11 14 14 15 17 19 21 22 23 24 24 26 28 30 33 36 39 41 43
8 10 10 9 9 10 8 10 12 15 14 15 13 12 12 11 11 10 9 9 8 7 7 8 8 8 9 9 9 9 9 9 9 9 10 11 13 15 17 19 21 22 22 24 25 27 29 31 33 37 39 41 42 44
4 5 5 6 5 6 12 14 14 13 11 15 13 11 11 12 11 11 8 9 8 9 9 9 9 9 10 10 11 11 11 11 12 13 14 15 16 17 18 19 20 22 23 25 27 29 31 35 37 39 40 42 43 41
3 5 4 3 4 7 10 7 8 9 9 13 11 8 10 11 11 12 11 11 12 12 13 13 13 14 14 14 14 14 15 15 16 17 17 17 17 18 19 20 22 23 25 27 29 33 35 37 38 40 41 40 38 37
4 3 4 6 6 7 8 8 7 6 7 6 7 5 5 7 8 9 11 13 14 14 16 16 17 16 16 15 16 16 17 16 16 16 16 16 18 20 20 21 23 25 28 31 33 35 36 38 40 39 37 36 34 33
4 5 4 5 8 5 5 7 7 7 6 5 3 3 4 5 5 5 9 13 15 15 15 16 17 18 18 18 17 17 16 17 16 16 17 17 18 20 22 24 27 30 31 32 34 35 37 37 36 35 34 33 32 31
8 9 10 9 8 7 7 6 5 5 4 3 2 2 1 2 3 5 7 10 11 12 13 14 15 15 16 16 16 16 15 15 15 15 17 19 21 24 26 28 30 31 32 34 36 36 35 34 33 32 31 31 31 30
9 7 5 6 6 7 6 5 4 3 3 2 2 2 2 2 3 7 8 7 9 9 10 10 11 12 12 13 14 15 16 16 17 19 21 23 25 26 27 28 30 32 34 35 35 34 33 33 32 32 31 31 30 29
4 2 2 3 4 4 4 4 4 4 3 3 3 3 4 4 4 4 3 3 5 6 6 7 7 8 10 12 14 16 18 21 22 23 24 25 26 27 29 31 33 33 34 34 34 34 34 33 32 32 31 30 29 28
4 4 4 4 3 3 4 3 2 1 1 3 2 3 3 4 3 3 4 5 6 8 10 10 11 13 15 17 18 20 21 21 21 22 24 27 29 30 31 33 34 34 35 35 34 33 33 32 31 30 29 28 28 28
6 5 5 5 4 3 1 1 1 0 1 2 3 4 5 6 7 9 10 11 13 14 15 16 17 18 18 18 19 19 19 21 23 25 26 28 30 32 33 34 33 33 33 32 31 31 30 30 29 29 29 29 29 29
1 1 1 1 2 2 2 3 4 4 6 7 8 9 10 11 12 13 14 15 15 15 15 15 16 15 15 16 18 20 22 24 25 27 30 32 33 33 33 33 33 33 33 33 32 32 31 31 31 30 30 29 29 28
3 3 3 3 3 4 5 5 7 7 8 10 11 13 14 14 13 13 11 10 10 10 11 12 13 15 16 18 20 23 25 29 32 32 32 32 32 32 33 33 33 33 33 33 33 32 31 31 30 29 29 28 27 26

GFSWCAN_700_spd_054.txt.gz
Wind_Speed
50 48 41 43 40 38 38 36 38 41 43 42 46 55 53 75 69 71 51 26 29 24 29 44 39 36 37 34 33 31 28 27 27 22 18 11 11 14 11 10 12 9 9 11 13 7 8 13 15 7 10 8 12 19
47 42 41 41 39 36 36 39 39 43 42 42 41 36 57 55 77 62 51 31 29 32 30 41 43 39 39 38 34 34 28 27 20 19 15 13 11 15 17 11 12 9 10 6 9 3 10 6 10 10 12 21 19 20
42 45 43 39 36 35 39 39 42 40 36 38 41 51 53 68 73 55 41 29 12 26 25 33 39 41 36 29 30 33 28 22 24 20 16 14 10 14 13 17 10 10 14 14 12 10 10 9 14 20 20 20 21 21
41 43 42 37 28 22 25 32 34 35 37 34 44 63 56 80 64 50 40 34 22 18 18 33 35 39 36 35 24 26 31 26 24 18 16 16 15 13 14 10 10 13 14 10 10 11 9 17 19 20 20 18 21 23
30 30 29 27 27 31 34 33 35 38 34 42 50 59 71 73 62 39 38 41 26 22 21 28 30 36 34 32 31 33 30 25 22 21 18 19 18 16 14 14 13 14 13 14 13 17 20 23 21 21 23 25 25 25
28 32 35 37 42 38 35 35 37 44 46 55 62 72 71 63 55 31 29 18 13 16 12 22 26 30 35 34 31 30 30 26 30 25 23 23 19 18 14 16 15 19 20 18 23 22 22 23 24 26 26 26 24 24
31 28 28 31 38 39 41 46 47 53 58 61 66 61 66 61 45 27 22 29 25 18 16 11 17 22 29 33 32 30 34 32 29 27 25 23 22 20 19 16 18 19 22 20 21 22 23 25 27 24 22 24 25 25
44 42 41 41 43 48 48 54 55 53 58 63 59 55 52 52 33 31 26 32 26 21 16 9 9 24 27 32 33 33 32 32 30 27 26 25 23 20 18 20 22 24 23 23 23 24 26 24 24 23 24 26 26 23
40 34 35 37 44 45 45 52 53 52 53 49 46 49 47 34 31 26 33 29 32 20 11 13 20 18 30 31 32 29 30 30 27 28 26 24 23 16 20 24 25 25 25 24 22 21 21 22 22 25 25 20 20 20
35 32 32 35 37 40 41 42 43 44 43 46 46 49 44 36 35 25 25 21 19 16 17 13 28 19 32 33 32 30 26 21 19 24 24 24 23 24 23 24 26 25 24 25 23 22 22 23 21 18 19 19 15 13
38 31 34 33 34 34 36 40 43 43 42 43 45 37 30 36 29 22 11 14 10 10 12 10 16 10 29 32 32 24 16 16 9 15 17 16 24 25 26 28 28 28 25 23 22 21 19 17 17 16 13 12 11 12
24 37 31 30 35 37 37 38 40 40 43 43 40 37 26 18 7 6 10 11 8 9 12 18 17 14 16 21 19 13 8 8 7 12 14 10 20 20 22 24 23 20 18 16 15 15 15 14 11 10 11 11 12 13
24 21 29 35 33 43 45 41 41 42 38 33 31 26 17 14 9 8 11 10 10 14 15 21 21 22 21 20 11 11 10 10 7 9 8 13 15 19 20 20 18 14 14 14 13 10 9 9 10 10 11 12 13 13
18 19 20 27 40 41 37 34 35 37 34 28 21 21 10 11 8 9 18 13 11 12 15 19 23 18 17 18 8 7 8 8 9 8 11 15 17 17 17 16 13 12 11 9 9 9 9 10 10 11 12 12 14 16
15 12 10 12 16 30 39 38 33 34 34 19 11 9 12 10 14 12 16 16 15 11 18 22 24 15 18 9 9 7 9 7 9 11 12 9 12 14 14 13 10 9 9 9 9 9 9 10 10 11 13 15 18 20
7 9 10 8 7 10 13 24 40 39 31 15 6 8 10 11 9 10 12 16 19 20 21 20 15 9 9 7 9 8 7 6 9 8 9 10 11 12 10 8 11 11 10 10 10 10 11 11 13 14 17 20 23 24
5 4 7 8 7 8 14 18 17 19 6 8 10 10 14 12 16 17 16 17 19 19 19 12 9 9 6 7 8 8 10 11 9 8 9 9 8 8 9 12 11 12 12 11 12 13 13 14 16 18 22 24 26 27
6 7 7 5 5 9 15 19 21 9 9 9 12 13 13 13 12 11 11 12 14 17 16 10 9 10 7 6 8 8 7 7 8 8 8 8 10 12 12 13 14 13 12 14 15 15 16 18 19 23 25 26 27 29
4 4 5 4 4 8 11 10 8 8 10 14 16 14 12 10 9 10 11 11 11 11 11 10 5 8 9 6 6 7 7 7 6 7 8 11 13 12 11 12 12 14 16 16 16 18 20 21 25 27 26 27 30 32
15 9 5 4 7 9 8 5 10 8 14 14 14 14 13 13 12 11 11 11 10 9 9 7 6 5 6 7 7 6 6 7 7 8 9 11 11 12 12 13 14 16 18 19 18 21 24 25 25 26 28 30 32 35
11 11 10 11 10 5 8 10 8 14 18 16 15 14 13 12 11 10 9 8 7 5 6 7 7 7 6 5 6 7 8 8 8 8 9 10 12 13 14 15 17 18 19 22 23 24 25 26 27 29 31 32 35 38
8 7 9 9 8 13 11 11 14 13 13 15 11 9 10 8 8 7 6 5 5 6 6 7 8 7 7 6 6 7 7 8 8 9 10 11 12 14 15 17 18 20 22 23 23 25 26 27 29 31 33 36 38 40
4 4 4 4 6 7 12 13 15 13 10 11 10 9 9 9 8 8 6 6 8 8 8 7 7 8 9 10 10 11 11 10 10 10 11 14 15 15 16 18 19 21 22 23 25 26 27 29 31 34 37 38 40 41
2 1 2 2 3 6 10 8 9 9 10 12 10 6 8 8 8 7 6 7 8 9 9 9 10 11 12 12 13 13 14 14 14 15 16 17 18 18 18 19 20 21 23 24 26 28 30 33 35 37 38 40 41 40
1 3 3 5 5 7 7 7 7 7 9 8 8 5 5 5 6 5 6 8 8 9 10 12 14 15 14 15 15 16 16 16 16 16 16 16 17 17 18 19 21 22 24 26 29 31 34 35 36 38 39 39 40 39
2 4 3 4 6 5 6 7 7 8 7 6 5 4 4 3 2 1 3 6 7 9 10 11 12 13 15 16 15 15 16 16 16 16 17 18 19 20 20 21 23 23 27 29 31 33 35 37 38 38 39 38 38 37
7 8 9 10 10 11 12 11 9 8 7 4 5 5 4 1 1 0 2 4 7 8 10 12 13 14 14 14 14 14 14 15 15 17 18 18 19 20 22 24 27 29 31 31 34 36 36 37 37 38 38 37 36 35
11 9 8 9 9 9 10 8 6 4 5 5 3 3 3 2 2 3 5 5 6 6 7 8 9 10 11 11 12 14 15 16 17 17 19 21 23 24 25 26 27 30 32 34 35 36 37 37 37 36 35 34 33 32
7 5 5 4 4 4 3 3 3 3 3 1 1 2 1 2 2 3 3 3 4 4 5 6 7 8 9 10 12 14 16 18 20 22 24 25 26 25 26 29 31 33 35 36 37 37 36 35 34 33 32 31 31 30
7 5 5 4 3 4 4 3 2 1 1 1 1 2 1 2 2 3 4 5 6 7 8 9 11 13 14 16 18 19 20 20 21 21 22 24 27 30 32 34 35 37 36 36 35 35 34 34 33 33 33 32 32 31
7 6 7 7 6 5 3 2 1 1 1 1 2 3 4 5 6 8 9 10 12 13 14 15 16 17 17 17 18 18 17 19 21 24 26 28 31 34 36 36 36 36 35 35 35 35 35 35 34 33 33 32 31 31
3 2 2 1 2 2 1 1 4 5 6 6 7 8 9 10 10 12 13 14 14 15 15 14 14 14 14 15 17 19 22 24 26 29 32 34 34 34 35 35 35 36 36 35 35 34 34 33 33 32 31 30 30 29
4 3 3 2 2 2 3 5 6 7 8 9 10 11 12 12 11 10 9 8 8 9 10 12 13 14 16 18 21 23 26 30 32 32 32 32 33 34 34 34 34 34 34 34 33 33 32 32 31 31 30 29 28 27

GFSWCAN_700_spd_057.txt.gz
Wind_Speed
38 39 38 35 34 38 40 40 50 43 46 46 45 46 41 54 62 66 57 52 33 25 24 30 28 42 48 48 39 35 33 40 36 31 30 18 12 18 12 17 16 12 10 15 15 9 10 14 14 13 13 13 13 13
35 36 44 43 42 41 43 43 43 40 40 40 41 42 41 55 75 74 57 39 42 22 34 36 30 44 43 43 38 33 34 33 26 28 18 21 17 20 21 13 14 15 14 9 9 4 6 9 11 11 12 13 14 18
46 45 44 46 42 41 39 38 38 38 39 40 45 39 45 55 88 63 48 42 39 21 25 37 38 48 40 44 37 37 30 27 36 36 26 21 21 18 17 19 15 19 12 13 11 8 10 16 16 16 16 18 19 19
44 43 42 42 41 39 38 39 41 43 42 42 44 42 40 61 68 62 47 38 33 28 30 40 48 45 41 38 38 40 44 24 32 26 27 21 16 15 14 9 15 17 16 16 14 17 13 16 19 19 20 21 19 19
41 42 41 40 39 38 37 38 38 41 41 37 38 36 37 66 67 63 45 36 23 8 24 28 42 41 40 31 25 15 43 29 28 26 23 20 17 14 15 16 19 19 20 19 20 21 22 22 23 24 22 22 22 21
34 35 34 32 28 27 29 28 31 36 34 34 32 32 47 57 76 71 49 18 25 20 8 23 32 32 36 31 22 17 31 15 18 20 20 19 18 17 13 20 21 21 18 19 19 18 20 22 23 23 23 24 23 22
26 27 26 26 22 25 28 27 31 34 32 34 39 52 69 55 63 45 30 11 25 28 15 21 28 32 36 36 31 24 22 27 29 24 23 23 21 20 21 21 23 19 17 20 21 21 24 24 24 23 22 22 22 21
24 24 21 20 20 23 25 30 33 36 39 41 55 61 61 58 64 33 18 18 18 18 11 16 23 34 38 38 35 33 31 30 31 30 29 27 23 23 22 25 22 19 18 21 23 24 23 21 21 22 22 22 22 23
29 24 26 29 30 33 34 38 38 40 42 47 41 46 53 58 54 26 18 27 26 16 12 12 19 22 28 31 35 33 30 28 25 29 28 24 26 23 22 21 21 21 22 22 23 23 21 20 19 20 22 23 21 17
38 36 33 33 40 42 42 44 46 51 51 49 55 57 55 23 23 21 19 22 21 21 17 16 11 13 19 28 27 30 27 20 21 27 28 30 30 28 25 22 19 21 24 23 21 20 20 20 21 22 20 14 13 12
34 37 41 44 47 49 48 45 45 57 51 51 48 37 27 28 30 14 11 12 10 12 16 18 16 15 19 24 24 23 19 20 16 19 24 24 28 27 24 24 24 26 27 25 21 20 21 23 20 13 12 11 10 10
29 31 32 37 42 44 43 46 53 58 36 24 37 26 30 21 8 8 9 8 5 7 9 16 14 17 19 30 21 21 13 13 7 13 18 14 18 21 24 25 27 26 25 23 21 20 19 14 9 10 10 9 9 10
31 33 37 37 34 34 36 36 44 29 36 32 33 21 10 5 6 9 9 9 8 12 16 18 16 15 14 18 11 12 10 10 7 8 7 15 19 20 21 22 21 20 19 20 16 11 10 10 11 9 9 9 10 10
39 36 33 37 37 39 44 41 35 28 28 24 13 15 4 6 5 8 17 15 11 12 16 17 15 13 9 7 4 4 5 6 9 9 15 13 15 17 18 18 19 17 12 11 12 12 11 10 10 10 9 9 10 11
21 41 49 50 42 40 37 34 34 30 27 14 8 6 10 11 13 10 16 18 14 13 18 24 24 15 20 9 8 7 11 8 10 12 10 10 13 15 16 15 13 11 12 12 11 10 10 10 10 10 10 10 12 15
17 19 17 20 31 37 36 34 32 29 25 10 4 5 10 11 14 13 15 14 16 13 19 23 16 8 9 6 8 8 7 6 6 5 6 7 12 14 12 12 12 10 10 10 10 10 10 10 10 10 11 13 15 18
16 15 14 14 15 24 30 26 25 27 11 12 12 13 13 12 10 11 12 11 16 16 18 12 10 8 7 7 8 7 7 6 6 7 12 13 12 8 10 9 8 10 11 11 10 11 11 12 12 12 15 17 19 23
9 13 13 11 9 12 16 25 22 7 9 17 19 16 15 14 18 18 15 15 20 22 22 11 9 9 6 5 4 5 7 10 10 9 10 10 9 9 10 10 10 11 10 11 12 13 14 14 15 17 20 24 27 28
9 12 9 8 10 12 19 16 11 8 11 14 15 16 16 16 14 12 14 16 19 21 19 13 6 9 10 8 7 8 8 7 7 10 11 9 7 9 11 10 9 12 13 13 14 16 16 17 19 21 24 27 28 29
12 8 6 10 13 16 8 9 11 12 16 18 17 17 16 15 12 10 9 9 9 10 10 6 7 7 8 9 9 9 9 9 7 7 8 9 9 10 10 9 9 11 13 15 17 19 18 19 22 25 26 26 28 30
15 13 11 9 8 12 8 11 9 14 18 16 15 15 15 12 12 11 11 11 12 10 16 14 11 10 8 8 8 6 6 7 6 5 5 9 10 10 12 13 15 16 16 17 17 19 23 25 26 27 28 29 31 32
11 11 12 11 12 11 8 10 14 16 17 19 15 16 16 14 13 12 12 9 15 16 15 14 13 11 7 6 5 6 6 7 7 8 10 11 12 13 14 16 17 18 19 21 23 24 25 26 27 29 30 31 33 36
7 7 6 9 9 9 17 18 18 18 11 15 16 14 13 13 12 9 9 15 16 14 11 11 11 11 9 7 5 5 6 6 6 8 9 10 11 13 14 16 18 20 20 22 24 26 27 27 28 30 32 34 36 37
4 4 5 4 6 8 11 10 13 12 13 13 10 9 11 11 10 8 13 13 10 9 10 11 11 10 9 8 8 8 9 10 11 12 13 14 16 17 18 20 21 22 23 24 25 26 27 29 30 33 35 36 37 38
3 4 4 6 6 8 8 10 10 10 11 10 10 9 10 8 8 8 10 9 8 7 7 7 8 9 9 11 12 13 13 13 15 16 16 15 16 16 17 19 20 22 23 24 26 27 29 32 34 35 36 38 38 38
3 6 4 5 7 5 6 8 9 12 12 9 7 8 8 6 5 5 6 4 4 4 5 5 7 8 9 11 13 14 14 13 13 14 15 16 17 18 19 20 21 23 24 26 29 30 32 33 36 37 38 38 39 39
8 9 13 11 12 12 14 13 11 10 10 7 9 9 4 4 4 5 5 2 0 2 4 5 6 7 8 9 10 11 12 12 13 15 16 17 18 19 20 22 24 26 28 28 30 33 35 36 37 37 38 37 36 36
13 13 12 12 10 11 12 11 10 9 8 8 5 5 4 4 5 3 1 1 3 4 4 5 5 6 6 7 8 9 11 13 14 15 16 17 20 22 24 24 25 27 30 31 33 35 36 36 36 35 36 35 35 34
12 10 8 8 7 6 8 9 8 8 6 4 4 4 4 3 3 2 1 1 2 3 4 5 6 7 8 9 10 12 14 16 18 20 22 22 22 23 25 27 29 32 34 36 37 37 37 36 36 35 35 35 34 33
11 8 7 6 7 11 9 8 7 6 5 4 4 3 3 3 1 1 1 2 4 5 7 9 10 11 12 14 15 16 17 18 19 21 22 24 26 28 30 33 34 35 35 35 35 35 35 35 35 35 34 34 34 33
10 10 10 9 11 9 7 6 5 6 5 4 3 2 2 1 2 3 5 7 8 8 10 12 13 13 14 14 14 14 15 18 20 23 25 29 32 34 34 34 34 34 35 35 35 35 34 34 34 34 33 32 32 31
6 5 5 5 5 4 2 3 4 3 3 4 4 3 4 5 5 7 7 8 10 10 9 9 9 11 13 14 16 18 20 23 26 28 30 30 31 32 32 33 33 33 34 34 34 34 34 34 33 33 32 31 30 29
7 6 4 3 3 3 0 2 3 5 5 5 6 7 6 5 5 4 4 4 6 7 8 9 11 13 15 18 21 24 27 27 28 29 29 30 30 31 31 31 32 32 32 32 33 33 33 33 32 31 30 29 28 27

GFSWCAN_700_spd_060.txt.gz
Wind_Speed
27 33 42 37 44 47 41 39 40 47 50 53 60 68 56 69 61 78 82 42 46 29 22 28 32 46 36 39 47 48 40 38 33 33 33 20 13 26 22 21 23 21 15 18 21 14 13 20 19 21 16 15 15 15
27 32 37 39 39 35 36 40 41 44 44 54 55 68 49 66 56 71 87 48 34 25 28 26 33 34 37 39 46 43 44 37 32 33 34 24 16 26 26 22 20 21 22 16 12 6 10 8 15 15 14 11 11 12
34 35 35 34 32 32 36 40 36 36 36 47 69 51 54 52 49 69 81 47 50 20 36 27 31 33 36 41 44 40 36 40 34 31 30 22 18 22 26 25 21 23 16 18 14 16 16 13 14 15 14 12 13 15
32 32 33 33 33 35 36 35 36 39 37 54 44 51 55 44 41 71 76 59 43 10 20 32 30 33 32 36 33 41 35 33 31 29 33 32 26 30 29 23 25 22 23 23 21 19 19 19 18 18 16 16 18 18
40 40 41 42 42 39 37 36 37 40 42 47 48 53 47 35 53 66 67 49 51 26 18 26 34 34 26 32 30 32 34 38 33 31 30 27 30 28 29 25 21 25 23 27 26 21 20 20 20 21 21 21 20 20
36 38 39 39 38 38 40 40 41 44 42 46 49 44 41 39 65 65 69 65 33 33 8 19 29 27 29 31 37 31 35 33 27 30 33 21 27 26 23 25 24 22 23 23 21 19 19 21 22 23 24 23 23 23
33 33 34 35 35 35 35 37 38 37 37 37 38 35 32 39 62 77 60 49 30 31 12 11 19 24 35 34 34 30 23 21 27 36 29 17 23 21 20 20 20 23 23 22 18 17 19 22 23 24 24 25 25 25
28 26 26 26 26 28 30 32 33 31 32 29 32 33 32 35 52 63 38 30 32 35 26 6 14 31 30 30 27 24 18 15 17 21 30 35 20 19 18 23 22 20 23 22 18 18 21 23 24 23 24 25 25 22
20 23 21 19 21 24 26 27 31 32 28 30 28 27 31 51 60 63 28 22 37 23 10 11 19 27 28 30 29 25 21 19 17 23 23 22 25 22 30 26 25 25 25 21 19 21 24 24 23 23 25 23 19 20
23 24 25 22 26 28 30 35 33 30 31 38 34 31 30 46 50 45 4 15 25 17 8 12 23 21 30 31 28 25 22 19 18 25 23 27 29 30 27 25 24 23 23 23 23 25 23 21 21 24 21 20 20 17
25 26 24 23 28 27 30 31 37 44 42 39 32 26 29 43 47 47 8 11 11 12 18 15 17 17 19 21 24 19 16 15 13 17 21 20 31 31 30 27 25 25 27 27 27 24 23 22 21 21 21 19 17 14
34 34 40 41 43 43 43 47 46 51 36 35 35 33 35 26 12 13 7 11 8 11 20 22 18 16 16 17 16 18 13 10 8 17 18 15 22 24 27 30 30 30 29 28 26 24 21 20 18 16 14 14 13 11
41 40 44 44 51 53 53 46 40 31 44 37 29 27 27 8 6 7 6 9 11 19 20 26 24 19 16 18 15 11 13 16 8 10 8 13 17 23 27 31 31 30 29 26 22 18 16 14 14 14 12 12 11 10
40 38 39 35 44 49 46 41 40 31 29 28 9 12 6 7 6 12 17 15 13 15 16 17 13 13 13 16 7 7 11 12 11 8 11 9 10 12 12 14 20 21 20 17 16 15 14 14 15 14 13 12 11 10
33 32 40 43 41 46 40 46 38 30 22 12 6 6 10 12 13 16 18 16 17 16 17 18 13 8 9 4 5 6 7 3 6 10 13 9 13 18 22 18 13 14 15 15 15 15 15 16 15 14 12 10 10 11
35 32 35 34 39 34 26 26 28 21 13 8 3 10 12 10 10 13 15 15 15 16 17 18 11 5 7 4 7 6 7 7 8 9 13 13 11 9 8 11 14 15 15 15 16 17 16 15 13 11 10 11 12 14
18 31 32 31 35 32 26 24 25 20 8 7 9 12 14 14 14 16 16 15 12 15 21 9 10 7 6 6 7 6 7 9 9 11 10 5 7 11 13 12 12 13 15 16 15 14 13 12 11 11 12 14 16 18
17 18 17 23 26 25 26 26 23 7 9 16 17 16 15 14 12 13 14 14 15 16 16 12 5 7 4 4 5 8 7 9 8 6 6 7 11 9 9 8 8 11 12 13 14 13 12 11 12 14 16 18 20 23
11 14 15 17 19 23 21 15 13 10 14 16 18 16 14 15 15 14 14 15 18 18 17 14 6 8 7 6 5 6 8 9 8 11 11 10 9 7 7 9 9 10 13 13 12 12 12 14 16 18 19 21 24 27
5 5 8 12 19 18 9 9 10 13 17 17 15 15 17 16 15 13 12 12 12 14 13 8 8 9 7 8 9 9 10 8 7 9 11 11 10 9 8 8 8 8 9 10 11 13 14 16 17 19 23 27 29 29
11 8 8 12 17 13 10 13 10 18 21 18 17 16 15 12 13 13 13 12 11 10 17 15 12 12 11 11 11 11 11 8 8 6 4 6 8 8 7 6 7 9 11 12 13 15 17 18 22 26 27 28 29 32
12 14 11 8 13 7 8 10 16 20 19 21 17 17 15 13 11 10 12 13 19 22 20 17 13 11 10 10 10 8 8 8 6 5 5 6 6 8 9 10 12 14 15 16 17 19 23 27 28 28 29 31 32 33
7 8 6 9 8 7 16 20 23 19 13 21 22 18 18 19 17 15 15 22 22 19 17 16 14 11 6 3 2 3 4 4 4 5 7 9 10 10 11 13 14 16 18 21 23 24 26 27 29 31 32 33 34 36
4 2 4 4 6 11 13 13 15 14 20 17 16 17 15 13 13 14 20 19 15 12 9 10 11 10 9 7 5 5 7 7 7 8 9 11 12 13 16 18 19 20 21 23 24 26 29 30 31 32 33 35 37 38
2 3 4 6 8 11 11 12 13 14 13 15 15 12 12 8 9 13 15 14 13 10 8 7 6 7 7 8 8 9 9 10 10 11 12 14 14 15 16 18 19 21 23 25 27 28 29 31 32 35 36 37 38 39
3 4 4 5 7 6 7 10 11 16 15 11 8 11 10 9 6 8 11 11 9 7 6 5 6 6 7 8 9 10 11 12 13 13 13 14 15 17 18 20 21 23 24 26 27 30 32 33 34 36 37 39 40 40
8 10 11 10 11 12 14 14 15 13 12 11 14 10 6 4 5 10 11 8 6 5 4 3 3 4 5 5 6 6 7 8 10 12 13 15 17 19 20 21 22 25 27 28 30 32 34 36 38 39 39 40 40 39
14 14 14 13 11 11 15 14 11 7 7 9 8 5 3 5 11 11 9 7 5 3 3 2 2 2 3 4 4 5 6 8 10 12 14 17 19 22 23 24 26 27 29 31 33 35 37 38 37 37 37 37 36 37
15 13 11 11 10 11 12 13 12 11 9 8 8 8 11 12 10 9 7 6 5 3 3 2 2 4 5 7 8 10 12 14 15 16 17 18 20 22 24 27 29 32 35 36 36 35 36 36 36 36 36 36 35 35
11 8 8 8 8 13 12 10 9 9 8 7 6 8 9 9 8 8 7 5 2 0 2 4 7 9 10 11 12 13 14 15 17 19 21 23 25 28 30 32 32 32 33 34 34 34 34 34 35 35 35 34 34 34
14 13 11 10 14 15 13 11 10 9 8 7 7 7 6 5 4 3 3 2 4 5 6 7 7 7 7 8 10 12 15 18 20 23 26 28 29 30 31 32 32 32 32 33 33 33 34 34 34 34 34 33 32 32
8 8 7 6 8 8 8 9 5 4 3 4 3 2 2 2 3 3 3 3 4 4 3 4 6 7 9 11 14 16 20 22 23 24 26 27 28 29 29 30 31 32 33 34 34 34 35 35 35 34 33 32 31 30
9 7 5 4 4 4 3 2 2 2 1 1 1 2 3 3 2 2 1 1 1 2 4 6 8 10 13 17 19 19 20 22 22 23 24 26 28 30 31 31 32 32 33 33 33 34 33 33 32 31 30 29 28 28

GFSWCAN_700_spd_063.txt.gz
Wind_Speed
18 25 35 43 43 53 47 52 55 49 43 41 44 65 64 75 69 58 62 64 45 24 39 38 41 38 34 30 42 42 33 43 40 33 34 26 18 20 24 26 31 33 25 24 23 16 13 16 19 24 20 17 13 13
30 34 35 44 44 38 50 52 49 43 41 42 56 70 61 68 69 56 70 66 49 27 39 27 33 41 45 34 23 35 42 35 37 30 28 29 16 21 28 27 30 32 34 27 19 15 17 9 7 11 17 20 15 10
29 32 33 31 37 44 45 44 42 41 43 43 55 61 58 72 64 53 72 68 42 25 35 20 30 37 41 43 33 33 32 37 37 36 33 27 25 27 20 25 27 31 26 30 23 23 21 18 14 11 12 13 15 14
31 33 35 36 38 39 39 39 37 41 40 45 48 58 55 65 57 50 68 74 39 13 27 36 23 32 38 44 43 34 33 29 35 35 36 31 33 31 32 28 31 31 32 30 28 24 20 18 17 15 13 13 14 15
27 29 30 31 33 34 35 35 36 36 38 38 42 46 68 58 57 46 61 68 37 18 10 23 28 23 23 25 33 31 27 31 34 36 36 30 29 23 24 33 39 33 35 33 28 22 19 14 13 14 15 16 18 19
36 33 31 30 32 34 32 30 31 33 34 37 44 43 50 44 55 39 51 68 52 27 5 16 26 26 23 21 29 30 26 31 35 33 28 29 30 30 22 34 34 35 33 26 23 20 16 15 16 17 18 21 23 24
36 38 39 38 37 36 33 28 30 32 36 37 45 42 48 57 54 43 47 54 46 27 3 13 13 24 23 23 27 35 32 35 37 36 34 26 26 30 30 26 21 32 29 24 22 21 19 19 19 20 22 23 24 25
30 31 34 34 33 33 36 35 42 40 40 40 42 49 37 40 33 34 41 44 45 31 15 4 6 13 26 25 28 34 34 30 32 36 37 24 20 23 31 29 16 24 23 21 23 23 22 19 20 23 24 25 26 27
24 26 28 28 30 32 31 32 35 40 40 42 43 40 30 29 32 38 29 50 35 32 23 19 11 15 24 31 34 34 32 28 24 33 28 26 36 32 40 28 22 16 17 20 20 28 25 23 24 26 26 27 27 26
23 21 22 25 26 27 28 31 31 32 33 34 31 29 32 26 35 45 26 22 21 45 18 26 27 20 25 40 34 32 27 20 11 16 15 24 25 23 20 20 22 23 24 24 27 30 29 31 28 27 26 25 25 24
23 22 24 25 27 27 27 29 30 32 29 29 31 22 27 24 34 54 18 7 12 16 30 35 23 21 24 31 30 21 13 12 9 13 18 17 29 25 21 24 24 24 28 31 31 29 32 29 25 21 23 23 22 22
28 25 22 29 31 30 29 30 30 40 39 27 31 36 31 21 14 19 13 8 11 15 21 24 28 22 22 24 17 21 13 11 8 15 21 21 27 25 23 25 29 29 31 33 32 30 27 25 20 20 20 21 21 20
27 34 35 36 38 39 36 38 43 37 31 37 30 20 25 8 12 14 14 8 10 21 27 28 26 26 25 23 12 12 11 12 10 11 10 20 20 23 27 27 29 31 32 32 30 27 24 16 18 19 18 17 17 18
37 31 31 34 34 36 48 36 26 18 18 15 14 21 7 8 9 10 16 15 19 25 29 28 26 17 16 15 7 6 8 6 10 9 14 12 19 20 22 25 26 27 28 25 22 17 14 15 14 16 19 19 20 18
43 43 41 38 44 41 32 26 22 15 14 11 11 14 5 13 15 18 18 17 19 22 25 23 19 9 11 6 7 5 6 3 4 6 10 15 13 13 12 12 13 16 17 18 18 16 15 15 17 20 21 20 15 13
34 38 39 34 25 28 27 20 16 12 16 6 9 17 21 21 21 20 19 20 21 24 25 20 10 7 6 6 7 7 8 6 6 8 9 10 11 14 13 13 14 14 15 15 13 13 18 20 20 19 15 14 14 13
32 26 24 21 19 15 9 8 9 8 5 8 17 16 16 19 21 19 18 20 23 28 21 9 8 6 8 6 8 9 8 10 14 14 11 10 10 9 8 10 12 12 12 14 17 20 19 17 15 14 14 14 14 15
23 25 25 22 18 18 17 12 8 6 13 17 15 14 12 11 13 16 19 21 26 28 18 9 7 8 6 6 6 7 6 7 9 12 10 7 7 8 9 7 10 12 13 14 13 14 13 13 13 14 14 15 16 17
19 22 21 25 23 16 14 13 9 9 14 16 16 15 14 15 14 13 13 18 19 16 13 9 2 4 5 6 7 8 8 8 7 7 7 7 6 5 7 6 5 5 7 9 10 11 12 13 14 15 16 17 19 21
7 7 14 20 24 21 13 5 8 11 16 16 15 14 14 13 12 12 13 12 13 15 10 6 8 9 8 8 8 8 8 8 5 9 14 13 11 10 8 6 5 4 6 7 9 9 10 13 15 18 20 22 24 27
8 6 6 12 13 8 6 10 8 14 18 14 14 12 12 11 11 11 11 11 11 10 19 16 13 12 10 11 13 13 13 11 10 7 8 9 9 7 5 4 3 3 5 7 10 12 14 17 20 22 24 26 29 32
12 12 4 9 10 5 5 8 14 17 16 17 13 13 13 11 10 9 11 12 18 27 23 16 13 13 12 13 14 14 13 10 8 7 5 4 2 1 3 4 7 9 11 13 15 17 19 21 24 27 29 32 32 33
7 8 6 6 3 5 13 17 20 16 11 21 20 17 17 17 16 16 14 25 27 22 21 17 15 13 11 12 10 10 10 7 4 2 1 3 5 7 9 10 11 13 15 17 19 21 23 25 27 29 31 33 35 36
5 3 3 4 4 7 13 10 13 12 18 14 14 14 11 13 13 19 26 24 21 17 14 14 14 12 11 9 5 3 3 3 3 5 6 7 9 11 12 14 16 19 20 21 22 24 26 28 30 32 34 35 36 38
5 4 4 6 6 9 9 11 12 14 15 16 16 12 10 9 10 16 18 17 15 12 11 10 9 8 7 6 6 5 5 6 7 8 10 11 13 15 16 17 18 20 22 24 25 27 29 31 33 34 36 38 39 40
1 2 2 4 7 7 8 11 11 18 18 14 9 10 9 9 6 9 14 14 12 10 8 6 5 4 4 4 5 6 7 8 9 10 10 11 13 15 17 19 21 23 24 26 28 30 32 33 35 37 39 41 42 42
6 7 8 7 7 9 12 12 14 12 9 7 11 11 7 4 5 12 14 12 9 7 5 3 2 1 2 3 4 4 5 6 7 8 10 11 13 16 18 20 22 24 26 28 30 32 35 37 38 39 39 39 39 39
10 11 11 11 10 11 15 14 11 6 5 9 11 6 6 5 11 17 14 12 10 8 6 5 4 3 2 1 1 3 4 6 9 11 14 15 17 19 21 23 25 27 30 32 34 35 36 36 36 36 36 36 36 36
17 16 14 12 10 10 11 12 10 10 10 8 6 5 10 16 18 16 14 12 11 9 7 6 4 2 2 3 5 7 9 10 12 13 15 17 19 21 24 26 29 30 31 32 33 33 33 34 34 35 35 36 36 36
11 9 8 8 9 14 13 11 10 10 8 8 7 10 13 15 15 15 13 11 9 7 5 3 3 4 5 7 7 8 9 11 13 15 18 21 23 24 25 26 27 29 30 32 33 33 34 35 35 36 36 36 36 36
16 9 10 10 16 16 15 13 11 11 10 9 12 10 8 9 9 8 7 6 4 4 3 4 5 5 5 6 8 10 13 15 18 20 21 22 22 24 26 28 30 31 32 33 33 34 34 35 35 35 34 33 33 32
9 9 8 7 10 10 9 9 6 5 5 6 5 5 5 5 5 4 4 4 3 3 3 3 3 4 6 8 10 14 15 16 18 18 20 22 25 27 28 29 30 31 32 33 34 34 33 32 31 31 30 30 30 30
9 9 7 5 5 5 4 4 3 1 1 2 3 4 5 5 5 5 5 4 4 3 3 3 5 7 10 12 13 14 14 15 17 19 21 23 24 25 26 27 29 30 31 32 31 30 29 29 28 28 28 28 29 29

GFSWCAN_700_spd_066.txt.gz
Wind_Speed
8 8 24 33 36 41 43 42 49 53 51 58 50 50 48 48 45 49 78 66 57 39 18 34 42 46 42 41 43 41 33 43 38 34 25 19 21 30 24 26 33 32 30 27 27 19 14 22 21 23 21 20 17 12
16 18 25 28 35 36 41 40 47 48 53 53 47 48 44 43 45 71 70 45 30 54 22 30 37 36 25 34 44 40 39 36 39 31 30 21 18 24 24 28 31 32 34 33 28 28 27 20 21 16 13 18 17 13
19 21 25 28 30 33 43 42 41 49 47 45 47 44 41 45 65 78 59 34 43 55 18 24 26 23 31 42 35 26 28 22 31 42 29 28 19 29 25 30 21 26 28 35 27 31 29 27 25 22 18 15 15 16
23 23 27 26 32 36 38 38 47 46 44 44 42 43 47 48 62 71 51 39 51 56 31 26 27 27 30 36 35 33 23 24 20 22 37 32 30 24 29 27 29 32 30 34 33 33 27 30 26 20 17 16 16 17
27 22 20 24 25 32 40 45 43 40 40 41 43 41 52 55 61 45 43 35 54 50 19 29 25 27 29 34 43 39 32 25 27 28 30 34 31 30 26 29 36 33 34 36 40 37 32 29 19 14 18 17 16 17
30 32 33 34 36 37 39 38 37 37 38 38 38 48 52 51 39 37 41 44 58 30 21 22 24 19 19 24 33 31 29 27 31 29 28 28 32 29 22 34 32 28 30 38 30 29 27 31 25 20 19 19 19 20
25 28 30 33 34 35 34 34 35 36 33 36 41 37 47 44 45 40 35 59 63 45 19 9 14 27 16 20 27 33 32 30 32 29 27 27 33 34 36 41 39 33 31 33 28 29 34 27 24 23 21 21 21 23
34 32 29 29 30 32 33 33 32 35 34 34 33 33 38 30 53 25 30 39 61 47 31 3 10 17 20 20 20 32 36 33 31 32 32 33 31 32 36 36 27 21 19 23 26 31 29 26 23 21 20 21 23 25
30 30 30 30 31 33 31 31 33 33 37 34 32 34 31 28 46 28 19 27 40 38 13 5 9 12 24 21 23 26 36 34 29 35 33 28 33 28 33 31 25 24 30 27 25 23 24 26 28 23 20 21 28 29
24 26 29 30 31 35 35 40 41 38 40 46 44 39 37 31 31 25 15 26 23 24 34 13 17 8 11 17 22 26 28 24 22 27 25 31 35 39 37 34 30 30 29 28 27 23 22 24 26 30 27 22 29 30
23 24 24 29 37 35 36 39 43 49 47 41 35 31 37 36 31 25 18 17 15 14 31 35 13 17 16 13 20 24 13 16 13 15 19 18 36 20 19 20 23 22 19 22 22 22 24 25 25 29 26 31 35 31
22 24 24 27 30 32 34 38 40 37 33 33 29 34 34 36 11 7 15 12 10 13 12 17 28 19 19 15 15 18 14 10 8 18 17 13 21 20 20 23 22 24 26 28 29 28 28 27 26 28 28 29 22 19
22 23 24 27 29 28 27 30 33 33 25 25 44 34 24 17 13 8 11 11 11 18 22 21 24 22 21 16 3 7 8 7 8 14 7 13 14 17 19 21 23 25 28 30 29 27 25 22 24 26 20 19 18 20
25 25 24 24 26 27 29 30 31 36 22 38 12 10 11 15 15 12 14 12 10 22 20 19 16 17 13 8 4 4 5 5 6 5 7 12 10 13 19 21 21 22 22 22 21 22 23 24 17 16 19 19 20 23
30 33 32 29 29 28 30 42 34 23 15 15 10 6 6 7 14 17 9 19 13 26 24 22 20 9 15 5 5 3 6 4 3 5 8 9 12 14 16 19 17 16 17 21 20 15 14 13 13 14 19 23 24 22
32 32 30 33 36 36 33 38 29 4 9 6 7 7 2 13 9 21 13 14 21 27 28 23 9 6 6 6 6 6 7 6 6 7 7 10 9 8 10 12 14 15 13 13 16 18 12 11 16 20 21 20 18 17
27 26 23 25 20 20 16 12 8 0 5 9 11 12 14 19 18 15 19 20 26 28 22 9 7 6 7 6 8 8 7 6 10 8 8 10 8 9 11 12 11 10 10 11 11 11 14 17 17 16 16 15 15 16
14 17 17 15 15 18 12 11 7 8 19 21 15 12 13 16 19 19 21 26 27 25 16 9 5 6 4 4 4 6 6 5 7 8 9 10 9 6 6 6 8 10 10 10 10 10 11 12 11 12 13 14 15 15
9 13 17 14 11 9 5 8 11 16 19 16 18 15 12 12 14 15 20 24 24 22 14 8 4 8 8 8 8 7 7 8 10 12 10 10 8 6 7 5 6 5 4 3 5 7 7 7 8 10 11 14 17 19
9 10 10 9 8 4 2 6 9 12 18 17 14 13 15 16 14 14 15 20 20 21 12 7 7 10 11 11 10 10 10 10 8 11 14 14 11 10 8 6 4 5 5 4 3 4 6 8 11 13 17 19 21 24
7 4 2 5 13 18 6 9 8 17 19 14 14 15 15 14 13 13 14 16 16 14 17 16 14 13 12 11 12 12 11 10 8 7 11 11 11 7 5 4 3 1 1 3 5 8 11 13 16 18 20 23 25 28
10 7 2 2 1 3 5 7 14 17 16 17 13 12 14 14 13 11 12 14 19 25 23 18 15 14 15 16 17 16 16 13 13 12 11 9 7 4 2 1 3 6 7 9 10 13 15 18 20 22 25 27 30 32
9 10 7 2 3 6 14 16 18 15 10 19 19 15 15 17 17 17 15 26 28 24 22 19 17 15 15 16 15 16 15 11 8 6 4 2 1 3 5 7 8 10 12 14 17 19 21 23 25 27 29 31 33 35
7 5 5 4 6 7 11 8 12 12 16 14 13 12 12 14 14 19 28 25 22 20 20 19 17 16 14 12 9 8 7 6 3 0 2 3 5 7 9 11 13 15 17 20 21 23 25 27 29 31 33 35 37 38
6 5 4 6 6 8 8 9 10 12 15 16 14 12 12 11 11 21 22 20 18 16 15 15 12 11 8 7 6 5 3 3 3 4 5 7 9 11 12 14 16 18 20 21 23 25 27 29 32 34 36 38 40 41
5 5 4 4 5 5 7 9 11 19 17 11 8 12 13 13 8 10 20 19 17 15 14 12 11 9 8 7 5 4 4 4 5 5 7 8 9 11 12 14 16 19 22 25 27 29 31 33 35 37 39 40 40 40
2 5 6 4 5 7 10 12 16 13 8 6 11 12 8 4 5 16 20 17 15 13 11 10 8 7 5 4 3 2 1 1 3 4 6 8 11 14 16 19 21 23 25 27 29 31 32 33 34 35 36 37 38 39
6 9 6 8 7 7 11 11 9 6 4 7 10 7 7 6 12 21 19 16 14 12 10 9 7 6 5 4 2 0 2 4 7 9 11 13 14 16 18 20 23 25 26 27 28 30 32 34 35 36 37 37 37 38
15 13 11 8 7 8 6 7 6 6 6 7 5 5 6 10 19 20 18 16 13 11 10 8 6 5 3 1 3 5 7 8 9 10 12 14 16 18 19 20 22 24 27 29 31 32 33 33 34 35 36 36 36 35
12 10 7 7 7 13 11 11 10 8 7 7 6 7 13 19 19 18 15 13 11 10 8 6 4 3 4 5 6 6 7 8 10 12 14 15 16 17 19 22 24 26 26 27 28 30 31 32 33 34 34 33 33 32
16 8 7 8 15 15 14 13 11 12 12 13 14 9 8 10 12 11 11 9 8 6 5 5 5 5 5 4 6 7 9 12 13 14 14 15 17 19 21 23 24 25 26 27 28 28 28 28 28 28 29 30 31 31
10 10 8 8 11 10 9 10 8 6 7 8 8 9 8 7 7 6 6 6 6 5 5 4 4 4 5 6 8 12 13 13 13 13 16 18 18 19 21 23 24 26 26 27 27 27 27 27 27 27 28 29 30 31
9 9 8 7 6 5 4 3 3 2 2 2 2 3 3 4 4 5 5 6 5 4 3 3 4 5 8 10 11 12 12 11 13 16 16 16 17 18 20 22 23 24 25 26 26 27 27 26 26 27 28 28 29 30

GFSWCAN_700_spd_069.txt.gz
Wind_Speed
25 20 10 11 17 24 35 47 51 47 54 53 60 61 58 61 53 55 54 53 69 41 38 40 38 34 36 53 49 44 37 39 27 29 27 18 16 22 30 21 28 32 28 25 27 21 17 23 22 25 30 25 22 16
17 18 15 14 22 28 36 41 43 48 53 51 56 54 58 53 52 51 53 46 68 60 41 27 35 42 36 39 36 40 48 40 42 30 26 20 19 19 29 39 29 24 32 30 32 27 29 24 23 24 20 24 20 17
17 11 15 19 25 28 34 36 42 48 47 51 53 53 57 48 51 48 55 43 64 67 42 32 14 47 38 38 33 33 37 35 38 45 25 28 18 33 22 34 38 40 32 31 31 35 33 31 29 26 27 26 21 18
13 15 17 19 21 24 30 39 45 41 45 50 49 51 48 49 49 49 53 41 55 53 50 30 24 38 33 37 41 38 36 34 26 24 40 32 27 29 27 32 29 31 30 30 36 35 28 27 26 26 29 26 23 20
25 20 21 18 26 33 38 39 40 44 47 48 46 43 49 46 43 43 37 37 48 44 25 45 10 33 35 36 32 30 34 26 29 20 32 34 32 25 30 30 35 36 34 32 36 32 28 30 27 36 31 24 22 20
32 37 36 35 36 36 34 41 43 45 43 43 42 42 40 41 40 33 33 50 43 29 24 25 15 22 26 33 30 33 31 32 28 27 26 29 30 28 27 32 33 25 24 24 26 28 28 31 30 27 23 25 24 23
25 27 29 32 34 38 41 37 38 39 39 40 39 37 32 33 35 34 33 43 27 14 33 11 19 25 26 28 34 30 31 33 32 29 30 28 28 31 34 36 29 29 32 28 29 29 28 31 31 27 23 26 24 25
24 27 30 33 34 35 35 35 36 35 35 34 33 37 35 31 28 34 32 31 35 24 45 10 8 24 23 27 35 35 34 31 32 34 35 33 28 28 27 30 33 32 31 28 27 29 26 34 35 28 27 25 26 26
23 22 26 28 29 30 32 33 32 34 34 34 39 35 36 29 36 31 26 26 20 27 30 5 7 9 20 32 32 33 35 34 30 37 35 29 35 25 19 25 22 19 28 31 31 36 26 29 27 26 27 24 26 27
23 25 27 27 29 29 29 33 35 35 33 35 34 36 33 34 32 19 15 21 16 21 40 7 5 8 13 18 12 19 29 29 27 29 29 38 36 35 33 26 24 21 20 23 24 20 24 27 22 21 18 17 26 25
30 28 26 25 32 32 31 34 37 40 39 38 31 24 26 40 32 18 14 12 9 15 31 37 16 4 9 16 16 12 10 15 17 24 27 19 28 31 33 25 22 20 24 24 22 24 25 28 30 32 24 23 30 30
30 34 36 42 43 40 38 38 38 40 33 33 28 29 34 37 22 8 11 16 9 14 8 21 20 8 1 1 4 8 10 7 7 22 17 13 17 16 16 23 23 28 24 25 25 25 22 26 26 26 27 25 27 31
27 30 33 38 43 39 39 41 40 42 36 33 39 20 23 13 13 8 12 18 17 14 18 18 11 14 11 7 4 6 7 6 12 14 7 12 14 12 17 21 24 24 25 25 27 28 28 25 21 22 25 27 27 25
21 25 30 35 41 40 41 44 34 30 34 34 18 13 11 7 8 4 10 15 13 10 13 15 13 11 13 7 7 3 5 10 6 8 7 9 14 17 18 20 20 19 22 23 23 21 18 18 19 21 20 20 20 22
15 16 19 24 29 30 30 28 25 23 32 9 11 9 9 9 10 10 12 13 13 8 15 20 19 10 14 6 6 5 5 3 5 5 5 5 11 12 12 9 7 8 8 10 12 14 15 13 10 10 14 19 23 23
15 14 14 17 19 22 26 28 19 14 7 5 5 14 18 13 9 9 10 8 9 25 29 23 11 7 4 6 4 3 6 3 3 3 2 4 6 8 8 7 6 6 6 9 9 9 9 11 11 14 19 22 21 19
13 13 12 14 18 28 33 26 19 6 3 4 10 16 15 12 12 14 15 17 24 29 27 13 7 4 7 4 5 5 5 5 6 6 7 9 9 9 8 7 6 6 5 7 9 11 11 9 10 12 12 11 13 16
22 25 26 23 18 22 15 13 10 2 14 16 15 15 15 15 17 18 19 21 24 22 18 11 8 8 6 5 7 6 5 5 8 9 11 12 9 7 8 8 8 7 6 6 5 4 4 5 6 9 11 11 10 10
10 14 17 18 17 16 7 4 6 8 13 14 13 12 10 12 11 14 16 20 16 12 11 9 5 8 9 12 11 9 7 7 7 9 13 12 10 7 7 7 7 7 6 6 5 4 5 6 6 6 7 9 12 15
11 14 12 10 11 1 2 6 9 10 13 14 11 9 8 10 10 12 15 15 15 14 8 6 11 15 14 13 12 11 11 11 11 13 13 14 14 12 10 8 6 6 5 5 4 3 3 4 6 9 11 14 17 19
11 9 8 10 9 5 6 6 7 13 14 11 10 8 9 10 9 9 12 15 14 11 14 16 16 16 15 13 12 12 11 10 9 9 14 16 14 9 7 6 6 5 3 1 3 5 8 10 12 14 16 19 21 24
12 9 5 3 4 6 5 6 11 13 13 12 9 8 9 9 9 8 10 12 16 21 21 19 16 16 16 16 16 15 16 15 15 14 13 12 10 8 6 3 1 3 5 6 7 9 11 14 17 19 21 24 26 28
11 10 8 7 6 6 11 13 12 10 7 13 13 10 11 11 10 12 11 19 25 22 21 20 19 17 18 19 20 20 18 14 13 11 10 6 3 2 3 4 5 6 8 10 12 15 17 19 21 24 26 28 30 32
5 1 5 5 7 7 7 6 9 9 12 12 9 10 10 11 11 15 26 26 24 23 22 20 20 20 20 19 17 17 15 11 6 4 3 1 2 4 5 7 8 10 13 15 17 19 21 23 25 28 30 32 34 36
3 3 5 6 5 7 7 7 7 8 11 11 11 11 13 11 10 21 23 24 23 22 21 21 17 16 13 11 11 9 7 6 4 3 3 4 5 7 8 9 11 13 15 17 19 22 25 27 29 31 33 34 34 36
2 4 3 4 8 6 7 8 9 14 14 9 7 10 11 11 7 11 20 22 20 19 19 17 15 12 10 9 7 6 5 5 4 4 4 5 5 6 8 10 13 16 18 20 22 25 27 28 29 32 34 35 36 36
4 7 8 6 7 9 11 12 17 15 9 5 11 14 9 5 5 17 22 21 19 18 16 15 13 11 9 8 7 5 4 4 3 2 3 5 8 10 12 14 16 19 21 22 23 25 28 29 30 31 32 34 34 35
7 9 7 8 7 8 13 15 12 8 6 8 13 10 7 6 12 25 24 21 19 16 14 12 11 10 8 7 6 5 4 2 3 5 8 9 11 12 15 17 18 19 21 23 25 26 27 28 29 29 30 30 31 31
14 12 11 8 7 8 6 6 5 6 6 9 9 6 6 8 19 25 23 20 17 15 14 12 11 10 8 6 4 3 3 5 6 7 9 11 14 15 15 16 18 21 23 24 25 25 26 26 27 27 27 28 29 30
13 13 9 7 9 14 12 11 10 8 7 5 3 5 10 18 24 23 20 18 16 15 13 11 10 7 5 4 3 4 4 6 8 11 13 14 13 14 16 17 19 20 21 22 23 23 24 25 26 27 28 29 30 30
17 12 10 11 16 16 16 15 13 13 13 14 17 12 10 14 17 17 16 15 13 12 10 7 6 5 4 3 3 5 7 9 11 12 11 11 13 14 15 16 18 19 20 20 21 21 22 22 23 24 25 26 27 28
12 13 10 10 12 11 10 12 11 10 10 11 11 12 11 10 10 10 10 10 8 7 6 5 4 3 3 5 6 8 10 11 10 10 12 13 13 14 15 16 18 19 19 19 20 21 22 22 23 24 25 26 27 27
10 10 9 9 8 7 6 4 4 4 4 4 5 5 6 6 5 6 6 6 6 5 5 4 4 4 5 7 10 10 10 10 10 13 13 13 14 14 15 16 17 18 19 19 20 21 22 23 23 24 25 26 26 27

GFSWCAN_700_spd_072.txt.gz
Wind_Speed
24 24 27 25 22 24 34 44 51 55 55 56 55 61 51 63 59 65 61 57 48 53 22 26 32 37 31 38 46 38 31 31 31 29 28 20 16 15 15 27 25 10 15 22 19 14 14 20 19 24 27 20 21 20
20 21 19 14 11 9 19 44 51 54 52 55 55 56 53 57 57 60 58 53 49 56 31 32 33 36 38 37 38 33 48 32 28 27 21 16 17 16 18 18 29 29 31 18 24 20 22 20 19 21 20 20 22 22
15 14 13 12 3 9 19 45 49 52 54 53 56 57 50 55 55 57 58 49 51 51 44 28 36 36 39 42 44 40 46 29 41 36 28 23 21 27 25 29 21 32 32 36 32 24 24 24 25 24 25 25 24 24
11 11 11 15 19 23 32 40 47 49 49 48 51 47 51 53 52 57 55 45 47 46 41 38 34 38 25 33 50 44 31 44 32 33 35 27 26 22 20 23 25 23 26 40 39 35 30 30 25 23 22 25 30 25
26 15 12 13 20 26 31 35 40 44 46 44 44 50 53 48 53 51 43 41 40 41 15 47 34 35 26 45 39 41 36 27 35 31 35 35 29 25 25 29 30 28 30 29 32 28 33 28 24 25 24 27 30 24
32 32 29 25 27 32 34 39 43 42 45 47 50 50 47 51 45 41 40 36 37 33 30 3 26 42 26 51 50 48 44 32 31 27 25 31 34 29 21 30 27 28 29 29 34 30 27 20 22 22 24 25 26 25
32 33 34 38 37 37 39 45 47 48 49 48 45 46 49 41 37 39 34 38 36 33 36 12 10 26 30 42 46 46 43 39 32 28 34 27 27 31 34 33 17 22 26 26 28 30 28 25 30 29 30 29 27 27
27 32 38 38 41 43 44 46 47 44 42 42 45 43 36 33 28 26 27 30 33 27 30 15 14 8 29 37 45 42 40 36 45 33 29 29 27 30 32 32 30 26 22 24 27 29 27 30 31 32 31 29 31 26
26 29 33 35 39 40 40 41 42 39 40 40 38 35 32 32 33 20 18 23 28 21 14 27 26 1 25 34 35 37 39 37 34 44 38 31 36 24 21 21 20 17 21 27 27 29 28 27 26 33 32 28 25 27
23 24 26 28 32 34 35 37 37 38 38 38 38 37 35 30 31 19 20 18 16 17 18 25 42 29 20 32 37 37 32 26 30 32 33 39 32 30 20 14 13 11 17 21 24 27 27 24 24 25 29 24 22 24
23 28 30 29 29 30 30 31 33 36 36 37 38 38 31 29 28 15 11 11 10 12 20 29 38 30 11 23 28 31 25 14 13 18 27 20 27 30 27 29 31 27 24 25 27 27 25 22 19 18 21 19 16 17
22 28 32 32 32 32 31 32 36 34 33 35 39 40 39 29 10 8 9 11 6 13 9 20 26 18 2 17 25 19 13 19 12 22 20 16 17 20 26 33 30 28 27 24 21 20 18 19 21 21 19 17 19 24
32 30 31 30 33 35 39 41 31 26 23 35 35 25 15 7 7 4 11 10 15 9 20 7 9 6 2 6 7 9 10 7 15 14 13 14 24 24 25 26 27 26 28 24 23 22 22 22 20 18 21 26 26 19
29 32 33 37 39 37 28 16 22 24 30 22 17 14 9 7 5 13 9 9 14 10 11 14 3 7 8 7 4 4 6 12 6 5 6 12 18 18 20 22 19 16 18 18 15 15 14 13 13 14 14 19 21 22
23 23 20 20 22 21 19 21 25 32 16 17 10 12 9 8 9 11 13 14 15 12 14 12 9 4 9 4 5 5 5 4 4 6 8 7 9 12 13 12 10 8 6 6 6 6 7 9 12 13 12 13 15 16
20 21 23 25 25 21 22 15 20 22 14 6 5 8 11 10 10 19 19 16 13 14 13 15 9 5 4 7 5 4 5 4 7 8 9 10 12 12 11 10 10 8 7 7 7 7 7 6 6 8 9 10 12 13
15 16 17 19 22 20 23 19 17 15 9 3 8 15 15 15 14 15 13 10 13 22 24 10 6 3 8 6 5 5 9 14 14 15 16 16 14 12 12 12 10 8 6 5 5 4 4 4 3 4 4 5 7 8
12 12 11 13 16 20 22 17 8 4 3 12 14 16 13 11 11 14 14 13 15 29 24 8 8 8 6 6 12 16 14 15 15 16 16 16 13 10 9 6 5 5 7 7 5 3 3 3 2 2 3 5 7 8
12 14 14 18 14 11 12 11 7 4 7 11 15 15 14 11 10 12 14 19 19 18 18 12 6 10 14 17 17 15 13 13 13 15 15 13 11 9 8 8 7 7 6 4 4 3 2 1 2 3 5 7 9 12
14 14 14 15 11 6 3 4 7 8 12 13 12 13 15 15 14 14 15 16 17 13 9 9 20 21 19 17 16 15 14 14 12 14 15 15 13 10 9 8 6 5 4 3 3 2 1 3 5 7 10 13 16 18
5 5 5 8 10 7 3 4 5 12 12 11 14 13 15 12 9 7 7 7 5 7 19 20 20 18 16 15 15 14 13 12 12 12 12 13 13 10 8 7 7 6 5 3 2 4 7 9 10 12 14 17 19 22
15 10 5 3 5 1 6 6 9 9 11 10 8 10 11 10 8 8 9 9 12 19 21 20 17 17 16 15 15 16 15 15 14 14 15 14 13 12 10 7 4 1 2 4 7 8 10 12 14 17 19 21 23 25
12 10 8 6 5 6 8 8 6 6 4 8 8 7 8 8 7 8 10 16 22 20 20 20 19 17 17 18 19 21 21 17 17 17 15 12 9 5 3 2 2 4 6 7 9 11 13 15 17 20 22 24 26 28
10 8 8 6 7 6 6 6 7 6 7 6 6 8 8 9 8 13 22 23 21 22 21 20 21 21 22 22 22 22 20 16 11 10 9 8 5 3 3 4 5 6 8 10 12 14 16 19 21 23 25 26 28 30
5 4 5 7 5 7 6 6 6 6 7 7 6 7 9 8 8 18 22 23 24 23 23 23 22 22 21 21 20 18 16 14 10 6 5 4 3 4 4 6 7 8 11 14 16 18 20 22 23 25 27 28 28 29
1 3 3 3 6 4 4 4 4 9 8 5 5 8 9 9 6 10 21 23 23 23 22 20 18 15 14 13 12 11 10 9 7 5 2 3 3 4 5 8 10 12 15 17 19 20 21 23 25 25 26 26 26 27
4 4 4 3 2 3 5 7 10 9 5 3 8 11 7 5 5 15 23 22 21 20 19 17 15 13 10 10 9 8 7 5 4 3 2 3 5 7 9 11 13 15 16 17 19 21 22 23 23 23 23 24 25 26
6 8 5 5 6 6 7 11 8 6 4 4 9 8 6 6 8 22 25 23 21 18 16 15 13 12 10 9 8 6 5 4 2 3 4 6 8 9 12 13 14 15 17 18 20 20 20 20 21 21 22 23 24 25
12 10 8 8 7 7 6 5 5 5 5 7 9 6 5 5 14 23 24 23 20 18 16 14 12 11 10 8 7 5 4 3 4 5 7 9 11 12 12 13 14 15 17 18 18 18 19 19 20 20 21 22 23 25
12 11 8 7 7 9 7 6 5 5 5 5 6 7 9 12 20 24 23 20 18 16 14 13 11 10 8 7 6 5 5 5 5 7 9 11 11 11 12 13 14 15 17 17 17 18 18 18 19 20 21 23 24 25
19 13 12 13 16 15 13 12 10 9 9 9 12 9 6 14 19 20 19 17 15 14 13 12 10 9 7 6 5 5 5 7 8 10 10 10 11 12 12 12 13 14 15 16 17 18 18 19 20 21 22 22 23 24
17 15 12 13 14 12 11 12 11 10 10 11 11 12 11 11 12 13 13 13 12 12 11 9 8 7 6 6 5 5 7 9 10 9 9 10 11 11 11 11 12 14 15 15 16 17 17 18 19 20 21 22 23 24
13 12 11 10 10 9 8 6 6 6 6 6 7 7 8 8 8 9 10 10 10 9 8 8 8 7 6 5 6 8 9 8 8 9 11 10 10 11 11 12 13 14 14 14 15 16 16 18 19 20 22 23 23 24

GFSWCAN_700_spd_075.txt.gz
Wind_Speed
36 37 32 34 36 36 39 39 42 44 46 51 49 47 52 54 58 66 69 64 62 44 21 29 22 20 28 30 41 40 32 35 32 31 32 22 21 28 25 25 31 16 17 21 21 20 14 18 18 20 22 15 16 16
32 26 24 26 29 33 31 33 33 43 47 51 49 48 51 49 58 63 65 55 52 53 30 25 35 31 31 29 33 38 52 42 32 28 23 23 18 21 23 23 23 30 21 17 19 16 17 19 22 21 18 17 18 18
28 21 22 23 24 22 31 30 34 42 47 52 48 51 50 45 57 63 60 54 52 50 43 31 28 30 30 29 43 46 43 30 34 29 20 19 20 20 22 25 19 23 24 31 27 29 23 18 17 18 18 20 22 20
25 15 12 18 23 12 15 36 38 44 49 53 48 52 51 44 54 59 58 53 50 50 33 19 30 31 32 32 44 44 37 37 21 27 28 25 25 20 23 21 25 25 17 22 25 24 24 27 28 22 20 20 21 21
19 14 7 15 19 26 32 39 42 46 52 50 47 50 53 49 55 54 50 43 44 42 26 34 21 32 29 32 43 46 37 41 27 33 36 30 20 16 17 19 23 22 23 25 21 20 23 28 27 30 32 28 29 27
22 16 15 17 27 30 35 45 43 45 45 47 45 50 51 49 56 56 50 47 42 45 29 12 23 39 36 31 29 48 42 39 28 31 31 27 24 20 19 26 23 24 22 21 21 19 21 19 18 19 26 26 22 26
25 26 25 26 29 35 38 38 39 42 44 47 49 47 44 49 45 47 37 41 41 39 33 21 13 11 28 33 29 41 43 34 28 33 31 25 27 27 30 29 22 14 20 20 25 26 27 28 28 24 23 24 26 30
28 29 30 32 35 39 41 42 44 46 45 47 44 44 42 47 49 36 29 26 35 31 22 15 8 10 24 38 36 36 54 39 32 26 23 25 24 29 28 27 33 25 18 25 24 23 24 23 25 28 28 28 30 32
30 33 35 37 39 41 42 44 45 45 46 43 44 46 44 38 36 28 19 16 18 25 15 21 15 12 7 26 31 45 41 40 29 32 25 19 27 22 19 26 18 16 22 25 29 20 23 26 26 29 30 26 29 32
27 30 34 37 40 42 43 42 43 44 42 40 40 41 39 29 23 18 13 12 17 24 17 18 19 24 16 8 33 38 30 33 32 32 24 26 24 22 16 18 19 22 23 22 20 22 27 30 28 30 32 30 28 27
24 28 29 31 32 31 33 36 38 39 40 40 40 34 33 30 27 17 12 11 10 11 13 22 18 25 26 15 29 35 27 21 20 28 25 24 23 18 27 31 19 22 20 18 19 21 22 24 27 29 25 22 19 21
26 27 27 28 31 34 35 37 38 36 37 36 33 40 34 27 6 6 11 7 8 9 6 8 15 19 25 16 16 23 23 15 10 22 24 13 27 32 29 28 31 33 31 30 30 27 25 23 23 26 24 18 18 17
27 30 30 30 30 31 30 32 30 33 32 34 42 24 12 5 4 7 7 10 6 7 10 15 17 15 6 7 7 22 11 10 15 16 12 18 25 26 26 29 32 35 38 36 32 28 26 23 23 21 20 17 19 18
27 31 33 36 35 30 30 24 29 34 34 22 12 9 6 4 3 5 10 14 9 4 16 16 2 7 8 11 8 8 9 14 12 8 10 18 24 27 24 24 26 27 28 28 26 24 20 19 16 11 9 10 12 17
28 35 36 30 25 22 18 20 27 23 20 7 6 7 7 6 6 5 9 14 19 14 8 11 7 7 3 3 5 7 6 3 5 7 16 16 16 17 17 17 16 16 17 15 13 12 11 8 8 9 12 12 9 8
21 16 14 15 16 14 12 10 12 4 10 9 4 5 5 4 5 4 10 14 20 16 9 11 8 5 4 7 5 4 5 4 11 16 16 17 17 16 16 15 15 13 12 11 8 10 9 9 6 4 3 3 4 3
11 13 17 16 18 12 8 10 7 3 2 3 1 5 6 3 4 12 14 14 17 20 19 9 5 2 6 5 4 4 10 19 19 19 19 18 16 15 13 13 13 13 12 11 10 8 5 3 2 2 2 2 2 2
9 8 8 8 8 10 13 10 6 4 9 13 8 9 7 6 7 10 11 14 18 22 21 11 4 5 5 6 11 20 19 20 20 20 20 20 20 20 17 14 12 9 8 7 5 3 2 3 3 2 1 2 4 6
7 6 7 8 9 9 13 6 8 4 3 6 9 9 6 6 7 11 14 13 14 19 16 9 4 10 16 22 20 18 18 19 20 22 22 19 16 14 12 11 9 9 8 6 6 5 4 3 2 0 2 4 7 10
11 13 12 12 8 8 5 2 4 4 7 10 10 10 10 8 5 8 13 16 16 16 11 7 19 25 24 22 20 19 18 17 17 18 18 18 16 14 13 12 11 10 8 7 7 6 4 2 1 4 7 9 12 15
9 8 7 8 9 5 3 5 4 9 10 8 11 11 12 11 9 9 12 11 11 15 25 27 25 23 21 19 19 19 19 19 19 18 17 19 18 15 14 12 11 10 9 7 4 1 3 5 7 9 12 15 17 19
10 7 5 4 1 4 6 6 9 9 10 8 6 10 10 10 10 8 8 12 21 25 25 23 21 20 19 19 19 19 17 16 18 19 18 17 16 15 13 12 9 5 3 1 3 5 7 9 12 14 16 19 22 25
13 11 8 6 7 7 9 9 8 8 5 8 7 7 8 8 9 9 10 19 24 24 23 21 19 19 19 19 20 21 22 19 18 17 17 16 14 11 8 5 3 1 3 5 7 9 11 13 16 19 21 23 25 26
13 9 9 7 8 7 9 9 9 9 7 6 6 8 8 10 8 11 20 21 20 21 20 20 21 19 20 23 24 24 23 20 19 19 16 12 8 5 3 1 2 4 6 8 10 12 15 17 19 20 21 23 24 24
9 8 8 8 6 7 7 9 9 9 10 9 9 7 6 6 7 13 17 19 20 20 22 21 22 24 23 23 24 23 21 18 13 9 8 7 4 1 2 3 4 5 8 10 12 14 16 17 19 20 21 21 21 22
4 5 4 4 4 5 4 4 6 8 6 6 5 8 9 8 5 8 18 20 20 20 21 21 20 19 20 20 19 18 16 14 10 8 5 3 1 2 3 4 7 9 11 13 14 15 17 18 18 18 18 19 21 22
2 3 4 3 2 3 4 5 6 4 3 3 7 8 4 3 3 13 21 22 22 22 21 19 17 15 13 13 12 10 9 8 6 5 4 3 3 4 6 7 9 11 12 12 14 16 17 16 16 17 18 19 20 22
3 4 2 2 2 3 4 6 4 2 1 2 6 5 4 4 6 19 24 23 22 21 19 18 16 14 12 11 10 9 8 7 6 5 4 4 5 6 8 9 10 10 11 13 14 15 15 15 16 17 18 20 21 22
8 6 4 4 2 1 1 1 1 2 2 4 7 5 3 5 11 23 25 25 23 21 19 17 15 14 13 12 11 10 8 6 5 4 4 4 6 7 8 9 9 10 11 12 13 14 14 15 16 17 18 19 20 21
10 10 7 6 4 5 5 4 3 3 3 3 5 6 6 7 15 20 24 23 20 19 17 16 14 13 12 11 9 6 5 4 4 4 5 6 7 8 8 9 10 10 11 12 13 13 14 15 16 17 17 18 20 21
16 12 10 11 13 12 10 9 8 7 5 4 2 4 4 9 16 19 18 17 16 15 14 13 12 11 10 7 6 5 4 4 5 6 7 8 8 9 9 10 10 11 12 13 13 14 14 15 16 17 18 19 21 23
15 14 11 12 12 10 8 9 9 9 8 8 8 10 10 9 11 13 14 13 12 12 11 10 9 8 6 5 5 4 5 6 7 8 8 8 9 10 10 11 11 12 12 13 13 13 14 15 16 18 19 21 22 23
13 12 10 10 9 8 6 5 5 5 5 5 6 6 7 6 6 8 9 10 10 9 9 8 7 6 6 5 5 6 7 8 8 8 9 10 10 10 11 11 11 11 12 12 12 13 15 16 17 19 20 21 22 23

GFSWCAN_700_spd_078.txt.gz
Wind_Speed
37 39 42 44 44 42 37 39 38 39 42 44 47 48 51 50 53 58 60 60 60 61 42 33 28 29 34 30 30 28 30 34 25 30 36 26 14 26 19 26 27 25 18 23 22 18 18 12 13 28 27 22 20 15
31 33 38 40 40 35 33 36 36 39 41 40 44 47 52 54 50 54 62 54 55 59 43 35 23 16 24 27 22 23 46 43 26 29 25 22 17 22 28 25 23 24 27 26 15 21 12 17 23 15 17 19 18 12
33 39 36 34 31 32 38 38 34 39 38 41 43 45 48 52 48 54 59 53 56 54 48 26 40 23 22 29 29 28 40 39 38 26 22 23 15 24 17 30 26 27 23 24 21 30 21 15 20 19 20 21 19 18
33 28 24 27 32 31 35 42 35 35 36 39 43 43 50 45 49 52 53 52 61 55 41 35 31 27 32 28 33 34 35 37 38 41 31 22 23 27 28 19 27 23 18 26 26 20 16 18 20 23 18 18 17 13
26 20 21 20 21 18 10 31 36 35 34 39 42 46 43 43 45 50 46 46 54 54 33 27 26 31 28 30 33 33 31 50 46 35 37 38 31 19 21 25 30 23 25 21 17 16 17 18 17 18 23 28 27 32
20 17 16 21 20 25 30 30 33 36 38 42 45 41 41 42 48 51 46 44 45 44 20 33 24 18 23 28 29 31 27 49 54 17 45 21 30 21 16 21 23 20 20 20 18 17 22 18 17 18 20 23 24 22
19 18 17 24 26 30 34 37 38 41 44 43 47 45 41 47 50 50 50 50 47 45 28 13 13 21 27 26 24 33 27 37 48 28 20 35 28 31 22 23 22 16 18 19 22 21 25 25 26 23 21 18 18 19
18 22 22 23 30 34 39 42 42 41 45 48 45 40 46 49 49 45 34 34 32 38 25 11 8 7 15 29 28 30 25 37 43 29 15 26 25 33 31 33 32 27 22 14 19 21 29 28 26 22 20 21 25 26
24 23 28 29 31 34 36 38 43 46 46 45 48 41 39 40 45 36 26 26 36 30 23 20 16 12 13 26 24 22 26 30 41 34 26 21 31 22 23 23 25 20 24 28 21 25 31 27 26 22 22 23 24 25
31 32 31 33 34 36 41 42 43 41 41 41 37 42 35 30 36 30 20 18 23 30 20 19 17 21 17 6 21 25 22 26 16 37 32 26 25 28 6 16 24 25 22 22 25 26 24 27 28 26 27 27 26 27
28 30 35 38 39 37 36 37 36 34 32 37 36 28 32 31 26 13 10 11 10 10 22 19 17 15 25 25 18 22 17 19 18 22 25 9 20 18 26 26 23 25 26 23 23 24 24 20 19 20 21 23 26 25
25 28 34 35 35 32 29 29 28 32 34 32 33 30 28 15 8 6 9 8 7 8 11 18 20 17 18 19 15 15 23 14 12 23 17 14 23 25 29 31 31 27 23 26 25 22 18 16 19 22 23 22 24 27
24 27 30 34 35 31 31 34 32 30 31 35 39 25 7 5 5 6 8 7 7 10 14 15 15 13 11 13 7 13 15 20 14 18 17 27 31 29 33 34 31 26 26 28 25 25 26 26 24 23 23 25 26 23
26 25 24 23 24 26 22 27 29 28 37 19 12 6 5 5 5 5 10 10 9 8 10 10 8 6 9 16 9 11 18 21 11 14 16 24 33 28 27 32 32 32 30 28 29 30 30 29 27 27 25 20 14 10
34 34 28 23 17 19 24 24 24 25 20 12 5 4 5 7 9 7 8 11 16 8 3 6 6 9 10 9 8 5 8 10 6 8 17 22 25 28 28 29 28 27 26 24 23 21 23 23 20 15 10 7 6 4
22 20 17 24 25 24 21 21 28 17 10 5 2 6 6 4 3 5 10 13 15 13 8 8 5 4 6 7 6 5 9 5 7 14 19 23 23 22 20 20 18 17 16 15 14 13 13 12 9 5 3 3 2 2
10 12 16 19 17 13 9 10 14 11 6 1 2 2 2 4 10 8 12 14 14 13 12 7 2 2 2 3 4 4 7 16 19 19 20 21 21 21 20 19 18 16 17 16 14 11 8 6 5 4 2 3 2 2
12 12 10 8 8 8 10 7 6 5 1 5 5 6 7 5 8 11 13 12 12 11 11 7 5 1 5 5 8 19 18 19 20 21 23 23 23 23 22 21 20 17 14 12 10 8 6 6 6 5 4 3 1 2
6 5 4 3 3 2 1 3 4 4 3 3 6 5 3 5 6 9 11 13 14 15 12 4 2 13 17 15 13 17 19 20 24 27 28 26 24 22 20 18 16 14 11 10 9 8 7 6 5 4 3 2 4 6
4 3 5 3 1 3 3 2 1 5 7 8 7 5 4 4 4 6 8 9 8 6 7 3 14 18 18 14 13 16 18 20 22 25 26 24 22 19 17 15 13 12 10 10 9 8 7 5 2 1 4 6 10 12
7 4 4 5 7 5 4 4 5 8 8 9 8 6 7 5 4 2 5 8 10 8 16 23 21 19 15 16 19 19 20 21 20 18 19 20 19 16 16 14 12 12 11 9 7 4 2 2 4 7 9 11 13 16
6 5 5 4 5 8 8 8 9 9 10 9 7 7 7 7 9 8 6 10 15 19 20 20 19 17 16 16 16 16 17 17 18 18 19 18 18 17 15 15 13 9 7 4 2 2 4 6 7 9 12 15 17 19
12 11 10 10 9 8 10 10 9 9 4 6 6 5 6 6 5 7 9 17 23 22 19 18 17 17 16 17 17 17 17 17 17 18 18 17 16 15 12 10 7 5 2 1 3 5 6 8 11 14 15 17 18 19
14 10 11 8 9 10 11 11 12 9 7 6 5 7 7 8 7 11 18 18 18 18 17 18 16 15 16 18 18 20 22 19 17 18 18 15 12 10 7 5 2 0 2 4 5 7 9 11 13 15 17 18 19 19
10 9 10 10 8 10 10 12 12 11 11 9 8 6 4 5 7 10 13 14 14 15 15 15 16 17 17 20 22 22 22 19 18 17 15 12 8 5 3 1 2 2 4 6 7 9 11 13 15 16 17 17 17 18
6 7 6 6 7 7 5 6 7 8 7 6 6 6 6 5 4 5 13 15 14 14 15 16 15 16 18 19 19 20 19 16 13 8 7 6 5 3 2 3 3 4 6 8 10 11 13 14 14 14 14 15 16 18
4 5 6 4 4 3 5 6 5 3 3 3 6 5 2 1 2 9 15 15 16 16 16 17 17 16 17 17 17 16 14 12 10 9 8 6 3 3 3 4 5 7 8 9 10 11 12 13 13 13 13 15 16 17
2 3 3 3 2 2 2 2 1 2 2 1 3 3 1 3 4 14 19 19 20 20 19 19 18 17 16 15 14 13 12 11 10 8 5 3 3 3 4 6 7 8 9 9 10 11 11 11 12 12 13 14 16 18
6 5 5 5 5 4 4 4 4 3 2 1 2 1 2 3 5 17 21 22 21 20 19 18 17 15 14 13 11 11 10 9 6 3 3 4 4 5 7 7 8 8 9 9 10 10 10 11 11 12 14 15 17 18
9 9 7 6 7 9 9 8 7 6 4 3 3 3 5 5 8 14 18 19 17 15 14 12 11 10 10 9 9 9 7 4 3 3 4 5 6 7 8 8 8 8 9 9 10 10 10 11 12 14 15 16 18 19
14 11 11 12 14 14 12 12 12 11 10 8 5 3 3 5 11 14 16 16 15 13 12 11 10 9 8 8 8 6 4 4 5 5 6 7 8 8 8 8 8 9 9 10 10 10 11 12 13 15 16 17 18 20
14 14 12 13 13 11 11 12 11 11 11 10 9 7 6 6 7 9 11 12 12 12 11 10 10 9 9 8 6 5 5 6 6 7 8 8 8 8 9 9 9 10 10 10 10 10 11 13 15 16 16 18 19 20
12 11 10 10 9 9 9 8 8 7 7 6 6 6 5 4 3 6 8 9 9 9 9 9 8 8 7 6 6 6 6 7 7 8 8 8 9 9 9 10 10 10 10 10 10 11 12 14 15 16 17 18 19 20

GFSWCAN_700_spd_081.txt.gz
Wind_Speed
36 39 39 40 40 40 40 41 45 47 47 44 44 45 48 52 49 51 53 56 47 53 53 54 55 37 33 35 35 28 32 30 27 33 31 22 20 23 23 13 21 22 19 19 19 9 9 12 11 24 21 23 25 26
35 36 38 42 45 47 48 49 47 46 46 46 48 48 47 46 50 51 52 51 51 42 47 42 52 37 36 32 33 28 28 26 27 31 31 28 19 20 27 20 16 29 25 18 21 21 4 15 22 11 20 13 11 19
31 32 36 38 36 37 37 38 37 36 38 39 39 42 50 47 45 47 50 49 46 43 51 50 47 53 29 33 31 33 29 26 30 33 29 28 17 26 19 29 27 17 20 19 19 17 25 28 17 27 26 18 21 20
31 32 31 30 31 33 36 36 35 37 34 34 36 39 45 48 46 48 50 49 45 45 38 42 41 43 29 26 36 31 29 28 25 28 37 26 22 15 32 23 21 25 21 22 20 21 11 19 14 22 33 21 25 19
25 24 23 25 24 24 26 29 38 41 35 30 33 38 42 46 46 48 46 41 46 38 35 45 34 39 40 17 27 33 27 27 27 32 35 30 26 19 24 32 34 27 28 18 18 16 19 17 16 13 15 20 21 21
22 17 18 19 15 19 17 25 28 37 30 32 36 37 39 43 47 45 39 36 42 40 27 34 34 28 27 27 23 33 31 29 28 30 38 50 29 28 12 26 28 31 26 19 17 14 17 19 18 17 14 19 23 25
18 15 18 17 16 22 26 31 33 32 32 34 37 37 39 43 46 44 42 41 38 35 28 22 19 25 28 28 30 27 27 31 32 32 39 43 38 27 31 29 25 19 24 25 23 21 18 17 21 24 20 17 16 16
19 16 21 24 23 27 30 33 35 37 38 38 40 44 43 42 38 38 38 34 41 48 30 11 14 27 30 23 21 20 23 26 32 31 33 52 28 32 36 38 34 26 28 29 16 24 24 24 25 26 25 24 24 21
21 21 23 27 30 33 34 35 38 42 44 41 43 45 43 43 35 31 30 33 35 29 16 19 20 16 18 21 23 21 18 22 20 25 30 39 25 29 27 21 34 33 31 25 20 22 18 20 20 24 26 22 21 19
23 30 27 27 29 32 36 38 41 40 38 44 50 55 42 48 34 28 30 42 38 34 20 20 23 17 10 10 23 24 24 18 16 22 20 30 48 23 12 19 26 32 34 33 33 31 29 29 28 26 26 25 22 20
26 30 33 34 32 35 38 37 33 36 40 41 44 41 43 38 35 23 15 15 15 15 24 23 24 19 18 13 15 15 13 13 12 14 16 16 25 23 25 24 23 27 27 25 25 27 26 25 26 21 17 18 20 20
26 27 25 25 27 28 29 30 31 27 30 34 43 43 37 26 10 7 9 9 7 10 11 24 22 20 18 15 14 9 13 12 8 19 15 9 18 27 33 35 25 24 22 20 22 21 22 21 17 14 13 16 18 17
28 27 22 21 19 23 22 30 28 32 33 35 34 22 11 6 5 6 8 9 9 15 18 20 27 24 21 19 13 10 13 12 12 17 13 19 24 23 29 29 29 19 20 18 17 20 20 20 20 18 19 20 19 20
21 23 25 26 26 22 21 19 21 29 28 20 11 10 6 5 6 6 10 13 13 13 13 12 14 15 17 11 10 6 6 8 7 6 12 20 24 26 27 29 26 24 25 26 22 23 25 26 24 23 23 18 20 20
19 16 17 18 20 22 22 23 28 25 17 9 6 7 7 9 9 13 11 14 13 13 14 11 12 11 12 9 8 7 10 7 13 17 13 29 23 31 33 30 26 27 30 31 32 29 24 22 23 23 24 21 16 13
20 20 16 14 18 20 20 20 26 19 9 6 7 10 9 7 8 9 10 12 16 9 8 12 8 5 7 5 7 7 6 7 13 19 23 19 26 25 27 25 22 20 23 22 20 20 20 18 15 15 16 13 10 8
18 20 22 19 14 9 14 20 17 14 5 5 7 8 6 4 1 5 8 11 11 10 10 7 4 4 3 3 4 5 7 9 13 18 22 26 24 23 22 21 22 20 18 18 18 19 19 17 14 12 9 9 7 6
16 17 15 12 11 14 14 10 8 5 8 10 9 6 5 7 0 6 10 10 12 11 11 6 4 4 4 1 1 9 12 15 17 19 20 21 22 22 21 22 22 22 23 23 20 18 15 13 12 10 8 8 6 5
7 8 8 6 6 6 7 8 8 6 8 7 7 9 11 7 6 8 6 7 9 8 10 4 5 15 13 9 10 12 14 17 22 24 24 25 26 27 28 27 26 23 21 19 16 15 13 13 10 9 7 5 4 4
5 4 3 3 2 4 4 4 7 6 6 6 5 0 3 8 7 5 4 4 4 5 4 9 19 17 15 7 7 13 16 18 22 28 30 29 29 28 27 24 22 20 17 17 15 14 12 9 6 4 3 3 4 6
5 3 2 3 5 3 3 5 6 10 9 8 9 10 12 8 5 2 3 4 6 6 21 21 16 13 11 10 12 15 18 21 23 24 27 29 27 23 23 21 19 18 16 15 12 9 7 4 2 3 4 5 8 10
5 4 3 7 8 10 10 10 12 13 13 11 10 9 9 10 12 11 9 6 18 22 23 19 16 13 14 15 16 16 18 19 21 23 25 25 25 23 21 20 17 14 11 9 6 3 1 2 2 4 6 9 12 14
14 13 14 17 12 9 12 12 10 8 5 7 6 8 9 12 11 7 11 20 21 19 17 15 15 14 12 13 11 13 15 16 19 21 22 21 20 19 16 14 12 9 6 3 1 0 1 3 6 8 10 12 12 13
17 16 14 9 10 10 12 13 11 10 9 9 11 14 14 13 9 12 18 18 16 14 14 14 13 12 13 12 13 16 18 17 18 19 18 16 15 13 12 9 7 4 2 0 1 3 5 7 8 10 11 11 12 12
11 10 12 12 10 13 14 14 14 14 14 11 11 8 7 6 8 10 13 13 11 11 11 11 11 12 11 13 16 20 22 19 17 17 18 14 10 8 6 4 2 1 1 2 4 6 7 9 10 10 10 10 10 11
8 10 8 7 8 8 7 8 8 10 9 8 8 8 6 5 4 6 11 12 12 10 10 12 11 10 11 14 17 18 17 16 14 10 9 8 7 6 4 2 2 3 4 5 7 8 9 9 10 10 10 11 12 13
8 9 11 9 10 8 8 10 9 8 7 5 6 4 4 3 4 9 13 13 12 12 12 13 14 15 15 17 18 18 18 17 14 11 9 8 6 4 2 2 4 5 6 7 7 8 9 9 9 10 10 12 13 14
8 9 10 10 9 10 9 7 8 7 7 6 5 4 4 4 4 8 11 11 12 12 13 13 14 15 15 15 15 14 12 10 9 8 7 5 3 1 3 5 7 7 8 8 8 8 9 10 9 10 10 11 12 13
9 9 9 9 8 8 9 11 10 8 7 7 6 4 3 2 2 9 12 13 12 13 13 13 12 12 10 9 8 7 7 6 6 6 4 3 2 4 6 7 8 8 9 9 9 9 10 10 10 10 11 12 13 14
12 13 11 9 11 16 15 13 13 12 10 8 6 5 3 2 2 8 12 13 12 12 11 10 9 9 8 7 7 7 7 8 7 6 5 5 6 7 8 8 9 9 9 10 10 10 10 9 10 10 12 13 13 14
16 13 13 15 17 16 14 14 14 12 12 11 9 8 6 4 4 8 9 11 10 10 9 9 9 8 8 8 8 9 9 7 6 5 6 7 7 8 9 9 9 10 10 10 10 10 9 9 10 11 12 13 14 16
15 16 15 15 16 14 13 14 13 12 13 13 12 11 9 7 5 5 7 7 8 9 9 8 8 7 7 6 7 7 5 4 4 6 7 7 8 9 9 10 10 10 11 11 10 9 9 9 11 12 12 13 15 16
14 13 12 13 12 13 13 12 11 9 9 9 9 8 7 6 3 2 4 5 6 6 7 7 7 6 6 6 5 4 5 6 7 7 8 8 9 9 10 10 10 11 10 10 9 8 9 10 12 12 13 15 16 17

GFSWCAN_700_spd_084.txt.gz
Wind_Speed
28 30 33 36 36 36 37 37 38 39 39 39 40 42 46 46 44 48 47 47 53 57 49 42 45 53 44 29 33 22 15 25 28 29 26 27 18 26 19 13 19 9 13 15 17 12 9 14 6 18 24 19 18 11
31 32 33 35 37 37 38 39 40 41 40 40 39 41 45 47 50 47 50 52 48 47 43 33 35 40 43 37 31 26 26 12 23 18 25 24 23 16 25 20 21 16 22 18 16 13 17 15 16 19 11 22 21 20
28 30 32 34 37 39 41 42 42 44 47 48 45 41 43 44 48 50 48 48 45 46 51 38 31 34 37 46 34 22 28 24 21 21 19 22 27 30 19 29 21 19 16 27 20 17 13 7 19 22 17 14 21 26
27 29 30 30 30 33 35 38 38 38 42 42 43 45 44 43 42 46 49 50 43 43 40 45 29 32 35 37 45 46 38 28 26 18 27 26 28 30 29 26 22 25 26 21 17 20 15 17 14 29 28 26 22 20
24 24 23 26 27 27 30 34 37 34 34 36 39 39 43 45 42 43 48 47 41 40 25 44 30 33 31 33 37 31 34 31 29 25 25 27 29 26 25 29 33 35 26 29 28 14 18 20 13 14 10 13 26 29
19 17 19 17 17 20 21 19 25 32 32 35 38 38 39 41 45 46 43 37 41 42 12 24 29 28 34 34 38 35 38 25 27 28 29 27 30 28 19 28 32 31 32 23 20 10 15 18 10 14 14 16 14 8
13 15 13 14 14 17 16 26 31 33 35 33 33 35 37 41 49 50 47 40 36 46 42 16 26 31 30 30 36 20 14 24 26 26 28 26 24 22 34 34 12 15 17 23 27 24 17 15 16 15 16 13 11 13
14 19 20 22 17 20 25 31 32 31 32 30 32 34 39 45 44 43 36 29 35 35 43 7 17 27 37 29 27 25 23 23 28 33 31 29 27 25 36 44 31 19 20 14 16 21 23 19 17 18 16 15 15 15
17 17 21 24 27 29 30 32 31 34 35 37 38 43 45 43 40 35 29 24 34 40 14 12 27 25 23 23 23 20 19 21 26 27 25 26 29 26 36 31 34 37 29 22 19 18 22 21 23 20 19 19 19 17
23 22 24 27 31 35 35 38 40 36 43 41 43 44 42 37 37 33 23 33 29 32 7 15 22 18 22 28 27 23 19 15 12 20 17 27 36 34 31 34 35 27 39 32 35 29 25 20 18 19 16 16 17 17
26 28 29 32 32 33 36 36 40 45 47 50 40 46 50 35 32 28 15 16 11 11 15 20 19 17 19 19 15 13 9 8 8 14 17 11 21 25 25 35 14 21 26 29 33 32 31 30 26 22 20 18 17 16
23 26 27 28 28 31 29 35 40 44 43 40 51 44 46 24 10 7 10 7 8 9 12 21 21 18 17 14 12 16 10 7 8 11 16 13 18 17 23 30 33 21 18 24 26 28 24 21 20 17 17 17 15 15
16 19 22 24 22 23 25 35 34 32 42 36 33 22 10 6 6 6 9 9 9 17 15 23 25 21 18 17 14 8 8 12 7 10 9 19 19 19 20 20 28 23 23 23 19 21 20 18 15 12 14 18 15 15
23 24 23 24 24 28 35 36 41 31 22 19 13 9 5 4 5 9 14 16 13 18 21 19 23 23 22 18 11 7 14 9 14 11 15 16 22 22 18 17 24 22 23 15 14 13 13 14 14 16 19 20 16 15
23 19 21 21 21 24 28 29 24 11 9 7 6 6 9 11 12 10 10 13 12 11 15 15 16 22 14 14 11 11 7 7 12 14 16 20 27 25 23 24 25 22 20 19 17 15 16 17 17 19 19 19 20 22
13 15 15 19 20 22 25 23 11 7 15 10 8 13 12 9 11 9 9 12 13 11 13 15 8 8 12 8 8 8 5 9 13 18 18 25 24 24 25 25 25 23 23 21 21 23 23 19 19 20 23 21 15 12
16 17 16 12 10 12 15 16 10 4 4 7 10 13 10 7 6 8 11 15 17 14 14 7 6 7 6 6 6 5 5 7 12 16 23 22 20 20 23 24 22 19 16 15 15 16 15 15 13 15 17 18 14 12
14 14 14 12 11 9 14 14 10 5 11 13 8 7 5 5 10 11 12 13 15 16 14 15 8 8 4 3 5 5 6 7 10 12 14 16 18 19 18 16 14 16 17 17 18 20 21 20 18 16 14 12 10 7
10 12 11 10 11 10 12 11 7 5 9 8 6 5 6 6 8 9 9 9 13 15 16 10 4 3 4 4 2 6 8 12 15 17 17 17 18 20 22 21 20 21 23 25 24 21 20 18 15 13 11 8 7 3
7 7 7 7 8 9 7 7 7 8 8 9 8 8 4 3 5 7 9 9 9 10 7 8 14 11 10 7 3 4 7 9 11 16 19 21 21 22 25 27 28 27 25 24 21 18 17 14 11 9 6 4 2 2
7 5 7 6 7 6 6 7 8 11 11 11 13 9 9 7 4 3 5 8 9 10 23 18 12 8 6 7 7 7 11 13 17 20 26 30 30 29 29 27 24 22 20 19 16 15 12 9 6 4 3 1 3 6
4 2 5 7 5 11 11 10 12 12 13 11 8 8 12 14 13 13 13 14 24 25 21 14 11 10 10 12 12 12 14 16 21 25 28 27 27 25 24 23 21 19 16 13 11 8 6 4 3 1 2 4 7 9
10 11 13 14 10 8 13 12 10 9 5 5 4 6 9 8 7 5 12 23 24 21 18 14 9 9 8 11 12 14 16 16 21 23 24 24 23 22 21 20 17 13 10 8 6 5 3 1 2 3 6 8 9 10
19 19 16 9 9 11 11 11 11 8 8 8 10 14 13 12 9 15 22 19 18 16 15 14 11 8 7 9 10 14 16 16 17 20 20 18 18 18 16 13 11 9 7 4 3 1 1 3 5 6 7 7 8 9
12 12 12 10 9 11 10 12 11 12 14 12 11 8 4 5 6 9 15 16 14 12 12 12 10 8 7 10 13 17 19 19 17 18 19 16 13 12 11 9 7 5 3 1 1 3 4 5 6 7 7 7 7 8
9 10 8 8 9 8 7 8 9 10 7 7 7 6 5 4 4 6 10 11 11 11 10 12 11 10 10 12 16 18 19 19 17 14 14 14 12 10 8 6 4 1 1 3 4 5 6 7 7 7 7 7 9 10
11 12 17 16 15 12 13 13 12 9 7 6 6 5 4 3 5 8 9 9 8 8 8 10 12 13 12 15 17 18 19 18 15 11 10 9 8 6 5 4 2 3 5 6 7 7 8 8 8 9 9 8 9 10
11 12 12 13 12 12 10 8 10 9 8 7 6 4 3 3 5 7 8 8 8 8 9 9 9 11 10 11 12 12 12 11 10 8 7 6 5 4 3 3 4 6 7 8 7 7 8 9 9 9 9 10 10 11
13 12 13 11 9 11 15 17 13 12 10 9 7 6 6 5 6 9 10 10 10 10 11 11 12 13 11 11 9 8 7 6 7 8 8 7 6 5 5 7 8 8 8 8 8 8 8 8 9 9 9 10 11 13
18 17 14 14 17 21 18 16 15 14 13 11 10 8 6 6 7 9 11 11 11 10 10 10 9 9 9 8 8 8 8 8 9 9 9 7 6 5 7 8 8 8 9 8 9 9 10 10 10 9 10 11 13 14
19 15 15 17 20 19 17 16 15 14 14 12 12 12 10 9 7 9 9 9 9 9 9 8 8 8 8 7 7 7 8 9 9 7 5 4 5 7 8 9 9 10 10 10 10 10 10 10 10 11 12 12 12 13
19 18 17 18 18 16 15 14 13 13 13 13 12 12 11 10 8 6 7 8 7 7 7 7 7 6 6 5 5 6 6 6 5 4 4 7 8 9 9 9 9 10 10 11 11 11 10 10 10 11 13 13 14 15
16 15 13 14 14 13 12 12 10 9 9 9 8 8 8 7 5 4 4 5 5 5 5 5 6 6 5 5 5 5 4 3 4 6 7 8 9 9 9 10 10 10 11 11 11 10 9 10 11 12 12 13 14 15

GFSWCAN_700_spd_087.txt.gz
Wind_Speed
26 26 28 30 31 32 33 34 35 36 36 36 35 34 34 37 39 41 46 49 53 55 49 40 46 44 39 36 29 25 19 21 13 24 25 25 15 14 16 19 11 17 9 6 7 6 9 13 10 8 20 25 6 15
26 28 31 32 33 34 35 35 36 37 37 36 36 36 39 37 39 38 43 46 48 42 48 46 46 27 36 35 32 34 23 2 11 12 20 14 20 16 11 21 22 22 17 17 22 10 13 5 11 18 4 19 22 9
27 27 29 30 31 33 34 36 36 37 37 37 36 37 38 39 45 46 42 40 43 38 40 50 45 38 34 32 31 34 37 30 17 16 13 16 22 19 24 31 25 25 16 14 9 17 18 12 12 15 21 13 26 15
25 26 29 29 30 33 34 36 37 38 42 42 41 38 39 43 43 46 46 46 44 43 41 39 37 42 29 30 36 35 33 30 27 23 22 22 21 17 22 22 29 22 16 16 16 18 14 11 14 16 17 23 13 12
24 24 26 26 28 31 32 33 37 41 42 41 45 43 43 39 36 44 47 49 44 42 23 37 48 39 34 30 36 38 36 37 30 31 30 26 25 27 27 24 33 28 27 19 25 22 23 23 14 23 14 16 23 27
20 18 20 19 18 18 24 27 34 40 38 40 41 44 46 43 36 42 39 46 47 40 39 33 20 30 36 35 38 35 33 31 33 36 34 32 30 18 16 26 28 24 31 25 26 23 20 10 11 19 16 15 16 20
13 12 14 11 11 12 13 13 13 31 36 39 37 39 44 43 44 45 41 40 44 34 33 28 12 33 28 23 31 32 31 31 31 31 38 30 26 24 28 34 28 20 21 24 28 32 30 20 16 16 16 11 8 15
13 14 12 11 11 16 19 19 22 30 28 32 39 41 41 47 43 43 36 30 28 38 32 23 10 23 36 33 33 33 28 34 25 28 18 22 20 24 29 35 25 26 23 21 22 20 20 24 20 18 18 14 11 12
13 15 15 15 14 17 23 29 30 34 37 43 46 43 44 43 41 44 28 18 20 38 29 20 8 22 34 34 33 29 25 27 15 17 19 19 27 28 33 27 24 19 26 21 19 20 15 17 18 21 15 16 15 16
20 20 22 24 23 23 26 29 34 37 39 45 48 50 43 41 40 41 15 17 25 34 23 25 22 13 32 31 19 16 22 14 10 14 13 27 40 38 32 29 24 20 24 27 26 25 20 19 13 15 18 18 15 15
23 23 25 27 26 29 31 33 36 39 42 42 42 34 39 35 34 30 12 17 15 15 23 27 19 22 25 25 20 17 10 8 6 11 15 13 28 28 25 28 25 22 21 27 29 33 29 23 19 17 17 15 14 15
20 21 25 28 31 33 34 32 36 42 45 45 44 42 37 34 10 7 16 11 8 13 14 13 16 26 28 26 16 17 8 8 4 8 9 11 21 21 24 21 24 23 21 18 29 26 21 22 24 21 20 17 15 15
20 19 22 24 28 31 32 29 29 31 34 38 39 29 12 8 7 6 7 8 11 23 24 26 26 23 24 18 9 9 9 9 7 8 9 21 16 17 22 20 21 20 19 17 11 17 21 27 26 21 21 17 14 14
17 18 17 25 28 24 24 25 36 35 18 17 6 6 5 5 5 9 14 14 22 21 26 28 24 19 15 14 7 5 8 6 7 10 21 19 17 18 20 17 11 11 18 17 13 16 23 26 25 20 19 21 15 14
19 18 19 23 20 25 28 22 14 15 11 5 5 6 9 11 14 13 14 13 12 15 20 22 23 18 14 8 7 8 6 8 9 14 22 17 18 15 17 21 17 5 11 14 10 19 23 19 17 10 12 10 10 13
13 14 19 25 27 28 21 13 12 9 8 4 6 14 14 13 12 9 11 11 11 9 16 15 9 7 10 7 8 11 7 9 9 12 16 18 21 21 25 21 16 13 13 13 11 9 5 7 11 12 11 12 15 17
13 14 14 16 22 22 14 4 9 8 6 8 10 11 11 10 10 10 14 14 12 13 16 10 8 9 8 8 9 9 9 13 14 14 15 18 24 25 24 22 17 15 16 15 13 11 12 13 11 13 16 17 15 15
13 11 11 10 10 10 8 2 2 6 14 15 8 7 5 5 7 8 11 16 17 18 15 10 6 8 6 5 7 11 12 13 13 14 16 18 21 24 24 20 18 17 14 15 17 14 13 13 14 16 18 19 17 15
8 8 10 10 10 11 9 9 4 6 10 9 5 1 2 7 8 9 10 12 16 18 17 13 6 2 3 4 4 7 8 10 10 13 16 20 20 19 17 17 18 19 19 17 15 19 23 22 20 20 18 16 11 7
5 5 5 6 6 8 5 6 3 6 8 7 4 4 6 6 7 9 9 10 10 11 8 4 8 7 6 6 5 3 0 5 7 12 16 17 15 15 17 17 16 18 23 27 26 24 22 20 18 15 11 9 7 5
7 7 5 5 6 8 5 7 6 10 11 12 11 8 8 5 0 3 6 7 8 8 20 15 10 10 8 8 9 8 6 6 7 8 15 21 23 23 28 30 29 28 26 24 22 21 17 13 10 9 7 6 3 0
10 8 9 9 5 6 7 8 9 10 12 11 10 10 13 13 11 11 13 16 26 23 18 14 13 11 8 11 12 11 12 12 16 21 26 28 30 30 28 27 24 23 21 18 15 12 10 9 6 5 3 2 1 3
10 14 13 11 10 9 13 10 9 8 4 4 2 5 7 5 7 8 11 23 25 21 16 11 10 11 10 11 11 13 16 17 22 25 26 25 25 25 24 24 20 15 13 11 10 9 7 5 3 2 1 2 4 5
17 16 11 6 7 9 9 11 11 10 8 8 9 12 12 11 7 14 21 19 18 17 14 12 9 7 8 10 11 14 17 17 18 21 22 20 21 22 20 17 15 12 11 8 6 5 3 1 2 3 4 5 6 7
11 11 10 9 8 9 9 11 11 11 12 7 8 7 5 6 6 10 14 14 13 12 11 10 9 8 7 9 13 15 17 18 17 18 20 19 15 14 13 11 10 9 7 5 3 1 2 3 4 5 6 6 7 7
12 10 9 9 10 9 8 9 9 10 9 7 6 6 6 5 5 7 10 10 9 9 9 8 9 8 8 11 13 16 18 19 17 16 17 17 15 13 11 10 8 5 4 2 3 3 4 5 5 6 7 8 9 9
12 13 16 15 14 12 13 13 11 9 8 6 6 5 4 3 4 9 11 10 10 9 9 8 9 10 10 10 13 14 16 17 16 12 11 11 10 9 8 7 6 5 4 4 5 5 6 6 6 7 8 8 8 8
12 15 15 15 13 12 10 11 10 8 7 7 6 4 3 3 6 8 9 9 9 9 11 11 12 13 11 11 11 12 12 12 12 10 9 9 9 8 7 6 5 4 5 6 6 6 6 7 7 7 8 9 9 10
16 15 14 12 12 15 18 18 14 14 12 10 9 7 8 9 9 10 9 8 8 9 10 11 12 13 12 12 11 11 10 10 10 10 11 11 10 7 6 4 4 6 6 7 7 7 8 8 9 9 9 10 10 11
18 17 14 13 15 20 17 15 14 13 12 11 10 8 7 8 8 9 9 9 10 10 11 11 10 9 9 8 7 7 7 7 8 9 10 9 7 6 4 4 5 6 7 8 8 9 9 10 10 10 10 11 12 12
19 14 14 16 20 19 17 15 14 14 13 12 12 12 10 8 7 7 8 7 7 7 7 7 7 6 6 6 5 5 5 6 6 6 6 5 4 3 4 6 8 8 9 9 9 10 10 10 11 10 10 12 13 14
20 18 16 18 19 17 15 14 12 13 13 13 12 11 10 9 7 6 6 7 7 7 6 6 5 5 5 4 4 4 5 5 6 6 5 4 4 5 8 9 10 10 9 10 10 11 11 11 11 11 11 12 13 14
16 16 14 14 14 12 11 10 9 8 9 8 7 7 7 6 5 4 4 5 4 5 5 5 5 5 5 4 4 5 5 5 4 3 4 6 7 8 8 9 9 10 10 10 11 11 11 11 11 12 13 14 14 15

GFSWCAN_700_spd_090.txt.gz
Wind_Speed
36 33 30 30 29 30 30 31 32 33 31 32 35 37 39 38 40 42 47 51 53 55 54 48 48 46 37 33 37 28 22 23 12 22 21 18 13 13 13 18 18 9 7 16 23 14 7 7 13 9 3 11 14 5
25 25 25 27 28 31 32 33 33 33 33 32 31 30 31 31 35 38 45 46 47 50 49 47 48 42 36 32 31 30 30 12 12 13 15 11 13 11 12 11 10 18 17 10 9 11 15 7 5 10 16 14 12 9
26 27 26 26 27 29 30 31 32 33 34 35 35 34 34 32 33 36 39 40 39 43 43 45 44 37 37 35 29 30 31 28 31 13 5 16 16 11 15 19 22 23 18 23 20 7 3 8 10 16 13 17 17 7
23 24 25 26 28 30 31 31 33 33 34 35 35 35 36 35 37 38 39 40 39 39 38 26 17 30 26 28 29 31 25 26 27 31 30 25 11 11 19 19 21 18 22 23 28 23 19 7 11 18 11 19 17 17
24 23 23 25 24 26 31 31 34 35 34 35 37 35 37 37 39 42 40 41 38 37 13 37 37 31 17 25 26 31 33 29 27 31 31 24 16 20 27 28 26 24 24 27 27 15 15 18 17 13 13 13 17 22
18 16 19 19 22 22 23 26 29 32 36 42 37 43 38 35 39 41 38 42 41 36 34 30 18 10 16 29 27 29 34 34 31 32 37 32 26 25 19 24 25 21 25 22 27 25 26 22 15 13 18 12 21 12
14 14 14 12 10 12 17 22 27 32 36 36 43 36 43 35 41 47 42 44 39 31 30 26 25 30 31 30 38 36 31 35 37 37 36 34 28 25 35 43 32 19 17 21 23 29 32 28 23 15 17 18 12 15
12 11 8 4 8 11 12 10 13 26 37 39 42 38 43 35 38 40 40 27 29 37 31 24 16 15 17 25 32 38 37 36 38 36 33 33 30 28 35 34 29 21 19 24 27 25 25 21 22 24 18 15 11 17
14 11 8 8 8 14 17 8 12 25 41 40 41 41 42 42 43 42 35 25 16 26 33 20 22 20 20 28 27 27 30 30 33 34 39 30 33 28 34 32 26 17 16 15 29 24 21 15 16 23 18 18 6 13
16 16 16 18 17 18 22 17 27 32 40 41 46 47 47 45 41 39 18 16 18 19 32 28 22 27 21 28 28 20 31 28 18 31 15 23 36 32 32 29 28 26 21 14 20 22 19 15 12 12 10 12 15 15
19 20 23 23 22 22 27 32 36 36 35 43 43 39 46 39 37 23 12 14 13 10 20 30 30 28 15 24 29 28 9 19 11 14 17 12 31 27 24 28 29 25 21 18 18 22 19 19 16 13 12 11 12 13
22 28 31 27 24 23 26 30 41 46 45 46 44 46 38 36 17 6 10 8 8 10 8 13 24 27 21 24 11 11 6 10 7 12 13 11 27 19 18 18 19 18 18 21 22 21 24 24 23 21 18 18 15 19
16 23 25 24 25 26 23 20 26 31 36 39 42 27 17 8 8 8 11 9 9 14 19 9 12 17 19 12 9 8 8 6 7 9 7 13 11 13 14 14 16 18 19 20 19 11 21 24 22 21 19 18 21 21
14 17 19 18 24 23 23 28 35 36 27 24 17 8 5 6 7 7 13 15 14 20 21 17 14 16 13 16 6 5 7 6 5 7 8 14 14 14 13 12 14 17 17 19 27 18 15 23 25 24 23 22 23 27
13 16 17 16 27 25 22 25 25 19 3 6 6 4 5 9 13 14 13 13 18 18 25 24 22 11 16 6 5 5 5 5 7 9 16 18 17 19 15 12 9 10 12 15 19 15 15 22 22 22 25 28 29 19
12 14 13 20 20 15 18 12 7 1 1 5 7 17 18 16 15 14 12 15 14 18 23 25 13 7 8 6 7 8 5 8 9 12 15 15 13 17 14 12 17 19 14 14 9 8 9 18 26 23 17 18 14 13
9 11 14 17 19 15 12 10 6 3 3 7 10 13 15 15 14 13 13 13 14 16 22 11 10 10 7 7 9 9 10 13 14 15 14 11 9 13 15 15 16 17 9 8 9 17 10 13 14 11 7 11 12 15
11 10 12 14 13 6 1 5 6 7 14 14 8 8 7 7 9 12 16 17 17 20 19 12 6 10 6 5 8 11 13 14 14 13 15 15 16 17 15 17 19 16 15 15 15 17 14 7 10 14 14 16 17 17
7 7 7 7 6 5 3 1 5 5 8 7 4 2 2 5 7 9 11 15 17 15 13 9 5 2 2 4 7 9 10 12 12 11 11 15 16 17 15 13 12 12 12 14 16 16 15 15 15 18 20 20 16 15
3 4 4 5 4 4 2 1 3 5 5 4 2 2 2 4 6 7 8 10 12 13 11 3 6 6 5 3 3 3 3 6 6 5 7 12 13 12 11 9 8 10 12 15 19 21 23 23 23 21 18 15 12 8
4 4 3 3 5 6 3 5 3 6 7 8 8 6 6 4 2 4 7 9 10 9 18 15 11 9 9 7 8 8 6 4 3 5 6 12 13 13 14 15 17 21 24 26 24 24 21 18 16 14 12 10 7 5
6 5 4 5 5 4 4 5 7 8 11 10 10 13 15 14 12 13 13 15 23 24 20 15 13 11 9 9 10 10 9 8 8 10 15 20 25 27 30 30 28 27 25 23 20 17 16 14 13 10 7 5 3 2
11 10 7 5 5 6 10 9 6 7 3 4 3 5 6 7 9 7 12 23 23 20 17 14 13 11 9 10 12 13 16 16 19 23 26 27 28 27 26 26 23 20 18 17 15 13 12 11 7 6 4 2 1 1
10 11 5 4 4 7 8 6 7 7 7 7 9 12 13 11 9 15 20 18 17 15 13 12 12 10 10 11 12 15 18 19 21 23 24 23 23 25 24 22 19 17 15 12 11 9 7 5 3 2 1 1 2 3
10 9 9 7 7 9 7 8 9 10 10 8 10 8 7 7 7 11 12 12 10 9 8 8 10 10 10 10 12 14 15 15 15 16 20 21 19 18 17 15 14 12 11 10 7 5 3 2 2 2 2 3 3 4
9 8 9 9 9 8 7 8 9 10 8 7 6 7 7 6 5 7 9 8 7 7 5 4 5 8 9 10 10 13 15 16 16 15 17 17 16 14 13 11 9 8 7 4 2 2 3 3 3 3 3 4 5 6
12 12 15 14 14 12 14 13 10 8 6 5 5 5 3 3 4 7 7 6 6 6 6 7 7 9 9 9 10 11 12 14 15 12 11 12 11 10 9 9 9 7 6 4 4 4 4 4 5 5 6 6 7 8
14 14 13 12 11 11 10 10 9 8 7 7 5 3 2 3 9 11 9 8 7 6 6 6 7 10 11 11 11 12 13 13 13 11 10 9 9 8 8 7 7 5 4 4 4 5 6 6 7 8 8 8 9 9
15 15 15 15 15 16 16 16 13 11 9 7 5 3 7 11 13 13 11 10 8 8 8 8 9 10 11 10 10 9 9 9 9 10 10 9 9 8 8 7 5 4 4 5 6 7 7 8 8 9 9 9 9 10
18 16 14 13 15 19 16 14 13 12 11 11 10 9 9 11 11 11 10 9 9 9 8 8 8 7 8 7 6 6 6 5 5 6 6 7 8 8 8 7 6 5 6 7 8 8 8 9 9 10 10 10 10 11
19 14 14 17 20 19 17 15 14 14 14 13 13 12 10 9 9 9 9 8 8 8 7 6 6 5 4 4 4 4 4 5 5 5 6 7 7 7 7 6 5 6 8 9 9 9 9 9 10 10 11 11 11 12
20 18 16 18 19 17 15 14 12 13 13 13 11 10 8 7 5 5 5 5 4 4 4 4 3 3 3 4 4 4 4 4 5 5 6 6 6 5 4 5 7 8 9 9 9 9 10 10 10 10 10 11 12 13
18 17 15 16 15 13 10 8 7 8 9 8 8 8 7 5 3 3 1 2 2 1 1 1 2 1 2 2 2 2 3 3 3 3 3 3 4 6 7 8 8 8 9 10 10 10 11 11 11 10 10 12 13 14

GFSWCAN_700_spd_096.txt.gz
Wind_Speed
30 33 34 34 34 33 33 33 35 35 33 31 32 33 32 32 31 35 32 33 38 40 35 35 32 20 10 16 20 10 10 17 12 14 16 12 10 12 16 13 6 7 8 9 15 12 17 11 16 6 10 9 15 15
32 29 26 24 22 23 24 24 25 27 30 36 37 35 33 33 33 32 36 34 32 38 33 26 31 33 31 29 26 25 19 14 11 9 11 7 9 9 13 15 12 20 19 10 11 11 12 16 18 8 8 14 18 14
21 22 22 22 22 22 23 23 24 25 26 27 28 27 28 31 35 40 43 39 37 38 38 38 37 26 26 23 19 26 22 17 22 21 18 11 10 8 10 13 17 14 13 13 11 9 11 20 15 10 14 18 18 6
19 19 21 23 23 24 25 25 25 26 26 28 31 30 28 30 30 33 41 44 40 41 46 39 26 17 13 26 28 24 18 19 15 18 21 21 20 13 13 14 17 12 11 10 14 15 16 13 13 19 16 12 15 11
19 20 21 25 24 23 24 25 26 26 27 29 31 32 32 30 28 28 35 41 41 38 10 21 33 35 28 16 16 26 24 24 25 24 25 25 25 23 26 21 23 16 15 18 22 17 18 19 20 16 16 14 14 10
22 17 17 19 21 21 20 22 24 26 26 27 28 29 29 26 27 27 32 36 36 34 37 28 12 5 17 26 19 24 26 21 26 32 31 31 26 18 14 19 19 18 18 18 20 17 19 19 17 12 15 14 15 12
16 15 18 18 17 17 17 19 22 25 29 26 28 29 30 31 31 33 27 33 31 31 30 27 20 16 14 19 20 17 17 25 28 33 36 35 29 26 32 33 28 26 26 23 25 24 25 17 19 13 15 16 16 19
11 10 9 9 10 13 16 17 18 20 26 30 29 31 28 34 37 32 29 19 24 27 31 9 8 16 16 16 17 17 25 28 27 33 37 35 35 35 32 27 31 29 23 22 15 17 21 19 18 15 13 17 16 16
6 7 9 12 11 12 18 23 23 23 25 29 30 28 35 36 40 32 31 17 18 27 27 17 15 13 15 18 21 22 25 27 25 30 38 29 33 25 25 26 28 22 17 18 20 22 18 19 19 16 15 13 17 16
10 11 14 9 8 7 8 15 24 30 34 37 34 36 35 41 37 37 15 19 18 20 29 25 18 22 16 12 17 18 20 19 20 31 25 30 40 33 32 33 28 32 25 20 21 20 19 19 19 19 19 17 17 17
14 17 15 12 17 13 8 15 32 35 46 47 43 39 38 35 31 33 15 17 15 10 18 24 25 23 19 15 14 12 6 12 8 15 14 17 30 32 31 35 33 28 25 25 25 27 27 25 23 20 21 21 17 16
18 21 19 13 16 17 24 35 46 47 53 32 48 37 41 32 20 9 16 15 9 14 11 16 26 28 24 17 10 11 12 6 7 10 10 11 17 19 23 25 29 28 26 27 30 34 33 31 28 24 24 24 20 15
18 20 23 31 22 26 29 35 42 46 31 40 38 25 25 11 9 11 14 11 12 10 15 14 18 25 23 22 12 6 7 10 10 7 7 14 18 17 17 21 23 29 30 28 28 29 29 27 26 26 27 33 22 17
18 24 27 31 38 37 34 31 30 44 40 35 18 14 11 8 8 9 19 20 17 13 11 13 15 19 21 18 11 7 9 7 7 5 7 12 15 16 21 26 22 20 21 22 23 24 25 24 23 27 26 25 22 23
19 21 32 25 26 39 44 42 29 25 21 16 11 8 8 11 16 13 18 17 17 11 12 11 15 13 20 11 11 8 6 5 6 8 12 14 15 16 17 19 22 23 22 21 21 21 22 22 23 25 25 25 26 25
16 19 21 20 19 19 20 14 11 7 13 5 7 11 14 16 15 14 16 14 13 14 19 17 7 5 6 6 7 8 6 7 9 10 11 12 14 14 18 20 20 20 21 18 14 12 13 17 20 21 21 23 21 24
11 19 20 17 14 14 11 4 7 6 1 5 13 16 16 15 13 13 11 12 13 18 20 12 7 7 5 5 7 7 8 10 12 14 14 13 17 22 21 17 11 9 10 11 12 13 17 17 19 21 23 25 28 29
8 17 14 16 9 9 8 3 4 3 6 17 15 16 15 14 13 13 12 14 16 25 18 19 9 12 7 6 7 10 12 14 16 18 19 19 17 17 16 14 12 10 10 12 11 11 10 9 14 16 18 23 24 26
10 9 5 3 1 4 5 6 7 8 12 10 13 13 13 12 13 12 11 15 16 20 23 22 10 9 10 9 9 10 13 15 16 17 17 15 14 14 14 13 10 10 8 6 5 4 8 11 11 17 20 23 23 24
9 8 6 5 5 4 3 6 10 8 9 9 8 9 11 13 14 14 14 13 15 19 19 14 10 9 7 7 8 9 12 14 15 15 15 13 11 10 9 7 6 8 10 11 13 16 18 21 22 23 23 23 22 22
7 6 4 4 3 2 3 6 7 8 8 6 5 6 7 8 9 10 12 14 16 17 12 12 9 6 4 5 7 9 11 12 12 11 10 10 9 9 9 10 11 14 16 18 20 23 25 26 27 26 23 20 18 15
5 4 3 4 4 5 6 7 8 10 14 14 13 12 12 10 7 6 7 10 11 16 13 10 7 4 1 3 5 7 8 7 6 7 8 9 10 13 16 18 19 21 24 25 26 26 26 24 22 20 17 15 13 11
5 3 4 3 2 4 10 11 7 6 5 7 7 6 8 8 9 8 11 17 18 14 12 9 6 4 3 2 2 1 1 3 5 7 10 14 17 20 24 26 27 25 25 25 23 20 19 17 16 14 13 11 9 8
7 5 3 2 3 7 8 7 9 8 8 7 7 9 9 11 10 14 20 17 15 13 9 8 8 8 8 9 10 11 13 14 15 18 21 23 25 27 27 26 25 23 21 20 19 17 16 14 12 10 9 9 7 6
6 4 6 7 7 9 7 8 9 10 12 10 11 10 9 8 7 11 14 13 11 9 7 7 8 9 9 10 12 14 16 18 18 18 22 22 21 22 21 20 19 18 17 16 14 14 11 9 8 8 7 6 6 6
4 4 6 7 10 8 9 10 10 12 10 8 8 10 12 7 4 6 10 9 8 6 5 5 6 7 8 9 10 11 13 14 15 14 16 18 17 16 14 12 12 12 11 11 13 12 11 9 8 6 5 5 5 6
9 11 13 13 14 14 15 14 11 9 7 5 8 6 4 3 4 9 10 8 7 6 5 5 5 6 6 6 7 9 10 13 14 9 9 10 10 10 10 10 10 10 10 10 9 8 7 6 5 5 6 8 9 9
16 18 17 17 16 14 13 11 9 7 6 5 3 2 2 3 9 12 10 8 6 6 5 5 5 5 6 7 7 7 8 10 11 10 8 7 6 6 6 7 7 7 7 8 7 6 6 6 6 7 9 9 10 10
20 19 17 16 16 18 19 19 15 13 11 9 7 6 8 12 12 11 10 8 7 6 6 6 5 5 5 6 6 7 7 6 6 7 6 5 5 5 5 5 6 6 7 6 6 6 6 7 8 9 9 9 10 11
17 15 15 15 17 22 19 17 17 16 15 15 13 12 11 11 11 11 9 8 6 6 6 6 6 5 5 5 5 5 5 5 5 4 4 5 5 5 6 6 6 6 6 7 6 6 7 8 9 9 10 10 11 11
21 17 17 20 24 22 19 17 17 16 15 14 14 13 11 10 9 8 9 8 7 6 5 5 4 4 4 3 3 3 3 2 3 3 3 4 4 5 5 6 6 6 6 6 6 7 8 9 10 10 10 11 11 12
24 22 22 25 24 21 18 18 17 16 15 14 12 11 9 7 6 4 4 4 4 3 3 2 2 2 2 1 1 1 1 1 2 2 3 3 4 4 5 5 5 5 6 6 8 9 9 10 10 11 11 12 12 12
25 23 22 22 21 18 14 12 11 11 11 11 9 8 7 6 4 3 2 2 1 1 1 1 1 1 1 1 1 1 0 1 1 2 2 2 3 3 4 5 6 7 8 9 9 10 10 11 11 11 12 12 12 12

GFSWCAN_700_spd_099.txt.gz
Wind_Speed
27 25 27 29 31 32 30 31 32 31 31 31 29 28 28 34 36 35 32 33 33 34 31 23 24 21 11 24 21 13 12 11 13 13 10 12 11 8 12 15 9 15 17 15 18 10 11 9 12 13 13 16 18 16
26 27 29 28 26 25 26 27 27 28 30 34 33 31 32 32 32 32 33 30 29 33 25 21 28 28 22 19 22 19 22 10 7 9 12 10 11 7 8 8 10 9 13 6 11 8 9 12 12 17 18 18 11 13
28 26 23 22 21 20 21 21 21 24 24 26 31 35 33 34 34 33 30 28 30 32 32 33 24 15 26 31 32 32 23 17 20 18 20 13 8 5 6 8 13 9 8 8 11 9 9 13 19 27 10 10 14 20
22 21 21 20 20 21 23 23 23 22 24 25 26 28 34 35 32 33 33 30 31 31 33 29 17 15 8 11 18 24 21 17 16 17 18 21 19 11 11 10 10 8 8 8 12 10 12 8 10 21 19 19 19 21
20 20 19 20 23 25 26 25 24 25 25 27 25 27 27 28 30 32 34 36 37 34 9 13 19 9 24 29 22 12 20 21 19 23 23 24 18 18 20 19 19 12 13 13 12 14 13 13 14 16 16 13 17 16
17 19 19 21 23 21 21 21 22 24 25 26 28 27 30 29 26 26 34 39 36 35 38 36 15 10 10 11 24 23 14 22 25 29 29 29 25 20 15 18 14 11 10 12 15 15 15 18 19 17 16 16 14 15
17 19 19 21 21 24 22 21 21 22 25 27 27 28 34 30 28 31 23 34 27 27 34 31 27 27 25 19 15 19 17 21 25 29 31 29 25 21 28 27 23 21 20 19 20 20 22 17 16 16 14 18 15 15
15 14 10 8 12 14 15 17 19 19 21 27 27 29 29 27 26 31 27 22 21 29 32 19 13 16 13 13 12 16 17 17 26 28 30 32 28 24 29 23 20 19 18 18 17 15 16 16 14 12 14 16 16 16
3 5 9 12 13 15 16 19 19 21 27 25 27 28 28 31 31 30 18 17 15 25 25 20 20 11 9 11 12 13 15 17 20 24 29 25 22 20 18 17 21 22 19 17 15 16 13 16 14 12 13 15 17 17
5 7 8 6 10 12 15 20 25 23 28 27 33 38 34 37 31 23 19 19 18 25 15 25 19 18 11 16 16 12 11 13 11 17 14 25 30 30 31 27 25 21 20 29 26 24 18 11 16 16 14 14 17 19
6 8 6 10 10 8 17 24 31 32 37 36 42 31 31 35 31 24 12 16 15 13 20 27 24 20 18 18 17 11 7 6 7 12 12 10 14 11 15 22 25 34 34 32 28 26 27 27 23 26 23 20 17 19
14 16 8 7 8 7 19 31 41 41 44 45 42 36 36 34 22 9 15 13 9 13 10 18 19 20 18 18 11 11 12 6 8 10 8 6 14 16 15 18 24 27 29 30 30 27 24 25 28 31 29 27 20 19
17 15 15 13 14 24 33 42 43 46 35 37 37 30 20 13 11 13 15 11 12 14 16 18 19 25 20 19 10 5 7 9 10 7 7 11 14 15 17 20 22 23 24 25 28 29 29 28 28 30 29 27 23 22
23 22 17 22 26 29 34 40 44 35 43 34 16 16 11 9 12 10 14 19 21 18 10 10 12 16 20 16 10 6 8 6 5 6 9 17 17 15 18 20 22 24 23 19 19 21 22 22 23 24 25 25 24 26
15 22 22 22 27 28 33 40 42 30 31 16 13 11 10 9 15 13 20 22 21 16 10 12 13 12 18 8 9 8 5 6 6 8 15 14 15 16 17 17 18 18 18 18 18 19 18 19 21 22 24 24 24 24
15 18 24 31 31 25 26 26 28 21 13 16 11 10 16 19 17 17 18 17 17 15 14 15 11 7 10 8 8 10 6 5 10 13 15 16 16 16 14 14 19 19 17 16 17 18 17 16 17 20 23 24 22 21
15 13 14 16 10 8 10 10 10 10 10 8 11 12 18 20 20 18 17 17 16 16 18 11 7 9 7 6 6 8 10 15 14 15 14 14 17 20 24 27 25 20 16 14 13 14 14 16 16 17 19 21 20 23
15 14 15 11 13 9 6 6 1 3 6 10 14 16 15 16 15 15 16 17 18 23 25 16 6 11 8 6 7 13 14 15 18 18 19 20 22 23 24 23 19 16 14 13 12 13 13 14 16 19 20 18 17 19
14 15 15 9 8 7 2 5 9 8 12 13 15 15 14 13 13 13 13 15 16 19 23 19 10 12 14 15 16 17 18 18 19 20 21 22 23 22 21 19 16 14 12 11 11 12 11 11 11 10 11 12 14 19
9 7 4 2 5 4 2 6 9 10 13 13 12 12 12 13 13 13 13 15 18 18 22 20 17 13 13 15 16 17 17 18 19 20 21 21 21 20 19 17 13 10 9 9 9 9 9 11 14 16 19 21 22 23
7 7 6 6 4 2 4 6 6 9 11 9 10 10 10 12 14 14 14 15 16 17 16 14 13 12 12 12 13 14 15 16 17 18 18 18 16 15 13 11 8 7 9 12 15 18 20 21 23 24 24 23 23 21
5 4 4 4 3 3 4 6 8 9 10 9 7 7 7 6 6 6 7 10 10 10 10 9 7 6 7 9 11 12 13 13 13 12 11 10 10 9 10 10 12 14 17 19 21 22 24 24 24 23 21 17 16 15
5 4 4 4 3 4 11 14 7 6 5 9 8 7 7 7 7 5 6 10 13 11 8 6 3 1 2 4 6 7 7 7 6 5 4 5 8 9 12 16 18 19 20 22 23 22 21 20 19 17 17 15 12 10
7 4 3 2 3 6 8 6 9 8 8 7 6 6 7 7 8 9 15 14 11 9 7 5 4 2 2 4 4 3 2 3 5 6 8 11 13 16 19 21 23 22 21 20 19 16 14 14 15 13 12 11 10 9
5 3 3 5 6 9 7 7 8 10 12 12 11 10 10 8 6 8 11 10 9 7 5 5 4 4 5 5 6 8 10 12 13 15 18 20 19 20 21 20 19 18 16 15 15 15 14 11 9 8 9 8 8 6
3 3 4 7 10 8 8 10 11 14 12 7 7 9 11 7 3 6 9 7 6 5 5 5 5 5 5 5 6 7 9 11 12 12 13 14 16 15 13 12 11 11 12 13 14 13 13 12 12 11 10 9 7 6
6 7 9 9 11 12 13 13 11 8 6 4 9 8 4 2 3 9 10 8 5 4 4 3 4 5 6 6 6 6 8 10 11 8 8 9 9 8 8 8 9 9 10 10 10 9 10 10 9 8 6 6 7 8
14 16 15 16 16 15 15 13 9 5 5 4 4 4 4 4 7 12 10 8 6 5 4 4 4 4 5 6 6 6 7 9 10 9 8 6 5 5 6 8 8 8 9 10 10 11 10 9 7 7 7 8 8 9
20 18 17 15 15 16 16 16 13 11 9 6 4 3 4 9 11 10 9 7 6 5 4 4 4 4 4 5 5 6 7 6 6 7 7 6 6 6 6 6 7 7 7 7 8 7 7 6 6 6 8 9 10 11
18 16 15 15 17 20 17 16 16 15 13 13 11 10 10 9 9 9 8 7 6 5 5 4 4 3 3 3 4 4 5 5 5 5 5 5 5 5 6 7 7 7 7 6 6 7 7 7 8 9 10 11 12 13
20 17 17 19 23 21 17 17 16 15 14 13 13 12 10 9 7 6 6 6 5 5 4 3 3 3 3 2 2 2 2 2 3 3 4 4 5 5 6 6 6 6 7 7 7 7 8 9 10 11 12 13 13 14
23 21 20 23 23 20 16 18 16 14 13 13 11 10 9 7 6 4 4 3 3 2 2 2 2 1 1 1 1 1 2 2 2 3 3 4 4 4 5 5 5 6 6 6 7 8 9 10 11 12 13 13 13 14
25 22 21 21 19 16 13 12 11 11 10 9 8 7 6 5 3 2 1 1 0 0 1 1 1 1 1 1 1 2 2 2 2 2 2 3 3 4 4 4 5 6 7 8 9 9 10 11 12 12 13 13 13 13

GFSWCAN_700_spd_102.txt.gz
Wind_Speed
31 29 30 31 30 27 26 27 28 29 29 28 27 25 24 25 26 29 26 28 27 29 28 21 22 25 18 18 16 14 10 13 18 14 8 10 10 10 13 15 12 24 22 22 19 13 15 10 11 6 9 12 19 19
29 30 31 30 28 28 27 27 25 24 25 27 29 30 27 26 27 30 31 29 28 29 25 21 27 27 24 19 21 21 16 17 6 5 8 6 12 16 13 7 7 5 18 12 13 11 11 5 9 15 16 23 19 13
30 30 29 29 27 24 22 22 21 21 23 23 26 31 31 29 27 28 28 29 28 27 26 28 19 11 19 25 22 24 20 14 16 14 16 15 14 14 8 5 9 6 18 10 8 6 8 5 11 15 15 15 7 13
30 29 30 25 22 20 20 19 18 19 21 24 24 27 31 31 30 27 29 26 27 25 28 16 8 11 12 18 23 25 23 22 22 20 20 22 19 12 14 13 14 11 11 7 6 9 9 2 5 11 15 14 8 13
28 29 25 22 20 19 20 21 22 21 22 22 23 24 26 32 30 30 28 28 27 26 10 11 13 13 21 22 20 18 16 19 21 19 20 23 22 18 18 19 19 10 10 11 12 12 11 12 12 14 18 15 17 18
26 23 21 20 20 21 23 24 25 26 24 23 24 24 24 27 31 31 31 31 31 28 29 31 14 11 7 6 10 12 18 15 18 23 25 24 19 16 17 15 12 11 13 12 15 11 13 14 16 15 14 16 22 18
20 19 19 20 23 25 24 21 18 20 23 22 24 25 25 26 30 36 34 32 29 29 34 33 32 19 17 14 9 11 16 19 19 23 29 28 25 22 27 26 23 20 17 16 17 17 14 14 16 11 14 20 19 15
17 19 20 19 22 20 22 22 21 20 19 23 24 27 26 27 27 32 31 10 13 30 34 22 20 19 15 10 10 8 14 15 19 24 26 24 23 22 20 23 24 21 17 13 9 10 13 12 10 9 10 19 22 13
14 14 14 17 17 15 15 15 18 16 16 25 27 27 27 30 31 22 21 19 17 19 34 19 26 15 10 9 8 8 9 13 16 19 21 19 21 15 12 17 14 10 13 16 18 16 13 11 11 11 18 17 21 16
11 13 15 17 18 17 15 18 19 23 19 29 34 35 33 33 28 21 19 21 21 27 26 30 22 25 8 9 10 6 6 10 9 15 12 16 24 24 22 23 26 24 24 25 22 22 23 20 12 9 13 19 16 17
12 15 17 17 21 19 16 19 24 25 24 39 41 35 33 28 25 22 14 22 15 9 20 26 22 20 15 12 13 8 6 4 4 6 11 5 4 11 16 19 23 25 29 32 31 31 31 30 26 20 24 28 23 18
7 7 3 11 18 22 24 28 32 33 39 43 44 29 28 28 13 9 14 11 9 13 9 16 21 18 18 16 11 8 9 5 6 7 8 4 13 14 16 18 18 19 22 25 27 28 31 30 23 23 24 25 23 24
14 16 12 3 12 26 30 32 35 36 40 38 36 31 22 16 10 11 13 11 12 12 16 15 18 23 19 13 9 4 5 7 7 6 4 10 12 13 15 16 20 23 23 24 24 25 25 24 23 24 26 24 23 22
12 13 16 17 22 33 39 39 35 35 41 36 19 19 11 9 11 11 14 16 21 20 6 12 15 13 16 14 8 5 7 6 5 5 9 16 15 14 17 15 17 18 18 19 20 22 21 18 18 21 21 20 20 20
16 18 20 22 33 39 39 38 45 46 43 20 12 12 11 12 12 15 17 19 18 16 15 10 13 15 15 9 8 7 5 6 6 8 15 16 12 12 13 14 13 13 16 17 16 17 17 16 15 16 17 18 18 18
20 20 22 23 29 33 27 25 37 36 25 17 9 11 15 17 19 19 16 20 19 18 15 12 13 6 8 7 7 9 6 6 9 15 16 15 16 14 13 13 17 21 22 20 18 16 15 16 16 16 16 16 18 18
16 18 18 28 24 24 24 24 21 16 10 10 13 15 22 23 24 22 17 17 17 18 18 9 8 9 7 8 8 7 9 17 16 17 17 17 17 17 17 19 22 26 25 20 17 17 15 14 16 17 15 12 13 13
10 7 5 9 17 22 23 20 12 6 10 14 15 15 17 16 19 18 19 19 23 24 23 17 7 9 8 7 7 12 15 17 20 21 22 22 22 23 23 22 24 23 21 19 17 16 14 15 16 17 17 16 15 15
12 9 7 4 7 3 4 8 8 8 10 14 13 15 15 15 15 14 16 18 22 21 25 19 10 12 14 14 15 17 18 18 19 21 22 23 24 25 25 24 23 22 20 19 20 18 16 16 15 13 12 11 12 12
10 8 9 6 7 8 2 5 10 7 13 12 12 13 13 13 13 13 14 15 16 18 21 23 20 14 13 15 17 19 21 20 20 19 24 25 24 24 25 23 22 20 17 16 17 16 13 12 11 9 8 9 11 14
9 6 4 3 1 1 3 7 6 10 15 12 12 11 11 11 12 13 14 14 17 19 18 16 18 18 17 17 17 17 18 19 20 21 21 25 23 21 19 18 16 15 13 11 10 8 7 8 10 13 16 18 19 18
5 4 4 4 3 3 4 6 8 10 9 9 8 8 7 7 8 10 11 13 13 12 12 11 11 10 11 11 13 15 15 16 17 16 16 15 16 13 11 9 9 8 7 7 9 12 16 18 19 20 20 19 18 16
4 3 4 4 3 4 10 11 7 6 4 8 8 6 5 5 5 6 5 6 9 8 7 6 5 4 5 7 8 10 10 10 10 10 10 9 8 7 5 4 6 9 11 14 16 17 18 19 19 17 14 12 11 11
5 2 2 2 3 5 10 7 8 8 8 7 6 5 5 5 5 6 10 10 8 7 5 4 2 1 1 3 5 6 6 5 4 3 3 1 2 4 8 11 14 16 17 17 17 16 14 12 11 11 12 13 11 9
4 1 2 4 5 8 7 8 7 7 8 7 8 7 8 6 5 6 8 8 7 5 4 3 2 1 2 3 4 5 5 6 6 5 6 10 11 13 14 15 16 17 16 13 11 10 9 10 10 9 8 8 7 6
1 2 3 6 10 7 9 9 9 12 11 6 6 8 9 6 4 5 9 7 6 4 3 2 2 2 1 1 0 1 3 5 7 8 8 8 11 12 11 10 9 8 8 9 10 11 11 10 9 9 9 10 10 10
4 5 8 7 9 11 12 15 11 7 5 4 9 8 3 1 2 7 10 7 5 4 3 3 2 3 3 3 3 3 4 5 6 6 6 6 6 4 3 3 3 5 7 8 9 9 9 9 9 9 9 9 8 6
11 14 14 14 14 14 14 12 8 5 5 5 4 3 2 3 3 9 8 6 5 3 3 2 2 3 3 4 4 4 4 5 6 5 5 4 4 3 3 4 6 7 8 8 8 8 8 8 9 9 9 7 7 7
20 19 15 14 13 13 14 14 12 11 8 5 4 3 2 4 8 9 7 5 4 3 2 2 2 2 2 3 3 4 5 5 5 6 6 5 5 5 6 6 6 6 6 7 7 8 8 8 8 7 7 7 7 8
18 17 15 14 15 17 16 14 15 14 12 12 11 10 10 9 7 5 4 3 2 2 1 1 1 1 1 1 2 3 4 4 5 5 5 5 5 5 5 5 6 6 7 7 7 7 7 6 6 6 7 8 10 11
18 16 16 17 22 21 19 17 16 15 15 14 14 12 10 9 7 5 4 3 2 1 1 0 0 0 1 1 1 2 2 3 3 3 4 4 4 5 5 6 6 6 6 6 7 7 7 7 8 8 9 10 11 12
20 18 16 20 22 18 17 17 15 14 13 12 11 10 8 7 5 4 3 2 1 1 2 2 2 2 2 2 2 2 3 3 3 3 4 4 4 4 5 5 5 5 6 6 6 7 7 8 9 10 11 12 13 13
23 22 20 20 19 17 14 14 13 12 11 9 9 8 7 7 5 4 3 3 2 2 2 3 3 3 3 3 3 3 3 3 3 3 4 4 4 4 5 5 5 6 6 7 8 9 9 10 11 11 12 12 13 13

GFSWCAN_700_spd_105.txt.gz
Wind_Speed
30 27 26 27 25 24 23 23 23 23 23 24 24 22 22 22 21 22 20 22 22 25 23 21 19 17 19 16 17 11 10 5 16 14 9 8 9 9 13 18 21 19 23 22 22 10 13 15 8 6 5 9 15 19
28 26 26 26 24 24 23 22 22 24 26 26 26 26 27 24 23 23 23 21 20 23 22 16 15 16 19 21 23 18 16 13 7 10 2 4 12 13 17 13 12 10 19 14 17 17 8 12 6 4 7 12 18 11
27 26 26 25 23 24 22 23 23 21 21 20 21 23 26 28 25 25 19 19 22 24 25 22 18 18 22 17 18 22 18 14 13 17 21 15 9 13 14 15 24 19 24 12 19 19 16 15 15 11 7 14 15 5
27 27 26 23 23 23 23 21 21 19 19 19 20 21 23 28 27 24 22 18 23 24 26 24 16 11 13 16 18 19 18 19 20 18 19 18 19 11 21 24 18 16 9 9 17 6 9 11 3 4 13 17 14 12
27 27 24 23 23 23 21 21 19 18 18 16 16 19 21 25 27 24 22 21 21 22 11 8 12 16 19 18 15 13 15 14 8 11 17 17 19 22 21 18 13 12 11 9 8 10 6 7 12 13 12 12 15 16
26 24 23 23 23 21 20 20 19 19 19 20 19 18 20 22 27 25 24 25 23 21 21 26 14 8 8 9 14 13 9 17 16 16 16 19 17 16 13 11 13 11 15 17 11 14 16 14 11 11 11 11 15 16
23 22 23 21 20 21 21 20 18 17 19 22 20 21 22 24 29 30 26 25 23 21 22 20 20 7 1 5 9 10 11 14 17 18 18 20 20 22 28 29 17 20 20 13 6 11 8 9 12 8 9 10 12 14
19 18 18 18 19 20 21 21 22 20 18 19 21 22 23 24 25 31 26 15 15 21 23 17 17 18 16 16 5 3 7 13 16 17 17 17 17 19 20 23 20 18 14 11 7 14 10 13 8 10 11 12 13 12
17 19 20 21 20 22 20 20 19 19 18 19 23 27 25 27 30 26 27 26 11 19 21 27 29 20 11 12 9 9 7 9 11 15 16 11 13 16 20 16 9 11 13 15 11 11 17 12 7 11 18 21 18 12
15 13 15 16 17 19 18 15 14 16 18 22 35 36 32 31 24 22 25 26 21 25 24 24 21 25 19 15 8 7 7 7 6 10 6 10 15 17 18 22 23 21 22 22 19 21 19 21 19 19 18 20 18 19
12 14 16 18 18 19 20 19 20 19 28 39 44 31 28 27 24 18 12 19 16 10 21 25 20 22 16 15 14 4 1 2 4 3 5 4 7 14 13 13 15 16 17 19 22 23 25 27 29 27 27 22 21 18
9 14 19 22 22 22 20 23 29 30 36 41 44 27 30 27 13 10 14 12 9 13 9 11 16 15 19 16 10 4 6 5 5 5 5 5 16 15 15 15 16 15 17 19 20 22 22 22 23 24 22 20 18 15
4 4 12 19 24 29 26 24 29 25 39 41 33 31 21 19 10 13 16 11 12 11 15 16 13 21 18 15 8 5 6 7 4 5 4 8 9 12 13 13 16 16 17 18 19 20 23 23 23 23 22 20 19 20
6 0 7 19 27 31 32 26 32 35 45 38 17 23 11 11 11 10 15 24 22 14 6 9 12 13 19 12 8 5 7 5 4 5 9 13 14 15 15 15 14 15 15 12 16 18 20 21 19 18 18 19 18 17
17 16 21 31 35 35 36 35 33 38 45 15 13 13 13 13 13 15 14 14 16 19 14 11 14 15 12 8 6 7 5 5 7 9 13 12 11 13 13 14 13 11 14 18 21 22 22 22 19 17 15 16 17 16
17 23 32 35 37 37 37 31 43 42 31 15 8 13 15 16 12 20 17 16 16 16 16 15 10 6 9 6 7 7 4 7 10 14 10 12 13 13 15 14 14 16 17 21 25 22 21 21 19 17 17 15 15 14
21 30 28 28 27 28 31 43 38 28 15 9 15 15 16 16 19 19 20 17 18 18 20 11 8 6 5 6 9 8 9 13 15 14 15 19 21 20 19 18 20 22 22 22 22 20 19 19 19 19 16 15 14 12
25 23 27 24 25 27 41 32 31 8 12 18 19 20 22 19 21 21 20 18 19 22 22 13 9 14 8 9 10 16 17 18 18 18 18 20 21 22 23 24 25 25 24 22 20 20 19 19 18 17 16 16 16 16
10 10 12 22 23 24 21 16 10 11 15 18 18 17 17 15 15 14 15 16 19 21 23 20 9 10 15 13 14 15 17 18 18 21 23 25 25 25 26 25 25 24 24 22 20 19 19 18 16 15 13 12 12 12
9 9 10 6 10 12 15 12 13 8 15 14 13 14 14 13 13 14 14 15 18 21 23 25 24 17 14 14 16 18 19 21 21 20 25 27 26 26 27 27 26 24 22 21 19 19 17 14 11 10 9 8 9 10
15 15 14 12 12 9 6 11 11 10 15 14 14 12 12 12 12 12 14 15 17 22 24 21 22 22 21 20 19 18 18 20 20 21 21 25 27 24 22 21 19 17 14 13 13 11 8 4 2 4 7 11 15 17
8 8 6 7 4 6 6 7 10 13 13 14 12 11 9 9 11 12 12 13 15 16 15 15 15 14 12 11 12 14 15 18 19 19 18 17 19 17 14 12 12 9 6 4 3 4 7 10 13 15 18 18 18 16
5 3 5 6 4 5 11 13 9 7 6 9 9 7 6 6 6 7 7 7 9 9 8 8 7 6 6 7 9 10 12 12 13 12 11 11 11 11 9 6 3 1 5 9 12 13 14 16 17 17 15 13 11 9
3 1 1 2 4 7 13 10 10 9 9 8 7 6 6 5 5 5 7 8 7 6 5 4 3 2 1 3 5 7 8 7 7 6 4 3 4 3 1 3 6 10 13 14 15 15 14 13 11 10 10 10 12 13
1 1 3 4 6 10 8 10 9 7 8 9 8 7 7 4 4 5 8 7 7 5 4 3 2 2 1 1 3 5 7 8 8 8 8 6 7 7 8 9 11 13 14 12 11 9 6 5 5 7 9 10 9 8
1 2 2 6 10 8 9 10 9 13 13 9 7 9 8 6 3 5 8 7 6 4 3 2 2 2 2 1 2 3 4 4 5 7 7 8 8 8 8 7 6 5 3 3 4 4 5 6 8 8 7 7 8 8
3 4 7 7 9 12 13 16 13 9 6 6 11 10 5 3 3 8 10 8 6 4 3 2 3 2 2 2 2 2 2 1 0 1 2 3 3 3 2 1 1 2 3 5 6 7 7 7 7 7 7 8 9 9
9 13 14 15 16 16 15 13 9 6 6 7 6 4 2 2 3 9 9 6 4 2 2 2 2 3 3 3 3 3 3 3 4 4 3 3 2 2 2 3 4 4 5 5 6 6 5 6 6 8 9 10 10 9
21 20 18 17 15 15 16 15 13 13 10 7 7 5 5 6 8 8 6 4 2 1 1 2 2 2 3 3 3 3 4 5 5 5 6 6 6 6 5 5 5 6 5 5 5 6 6 7 7 7 7 7 7 7
19 18 17 16 16 19 18 16 16 16 14 14 13 12 12 11 9 7 5 3 2 2 2 2 2 2 2 2 2 3 3 3 4 4 5 5 5 5 5 4 4 5 5 5 6 6 6 6 6 6 5 5 6 7
20 18 16 17 22 22 21 19 18 18 17 16 17 15 13 12 10 8 6 5 4 3 3 3 3 3 3 2 2 3 3 3 3 3 3 4 4 4 4 4 4 5 5 5 5 5 5 5 5 5 6 7 8 9
20 17 16 19 22 20 19 19 17 16 16 14 13 12 10 9 8 7 6 5 4 3 4 4 4 4 4 4 4 3 3 3 3 3 4 4 4 4 4 4 4 5 5 5 5 5 5 6 7 8 10 11 11 11
23 22 20 21 21 20 18 17 16 14 13 11 11 10 9 8 6 6 5 4 3 3 3 4 4 4 4 4 4 4 4 4 4 4 4 4 4 4 4 5 5 5 6 6 7 7 8 8 9 9 10 11 11 12

GFSWCAN_700_spd_108.txt.gz
Wind_Speed
39 37 33 30 26 24 23 21 18 17 17 15 19 19 22 21 20 20 15 18 19 22 19 16 14 15 15 13 15 15 13 5 10 13 8 8 10 8 12 19 19 12 17 20 21 13 13 13 7 8 2 6 11 11
39 36 33 30 26 24 24 20 18 18 17 18 21 23 24 23 23 23 19 18 20 23 19 13 11 9 10 10 13 15 14 17 10 10 10 7 10 8 14 8 22 11 2 9 15 14 15 13 9 6 2 9 15 10
38 36 33 29 26 25 23 20 18 17 17 18 19 21 25 26 26 25 20 17 20 22 22 20 16 13 16 16 16 18 13 13 14 13 18 12 10 16 11 15 28 26 4 7 12 16 17 15 15 12 11 10 10 11
38 35 32 29 26 25 22 20 19 18 17 17 17 17 19 23 27 26 22 18 20 19 22 19 13 11 14 13 12 14 13 13 13 15 15 16 15 8 17 23 21 19 17 7 16 14 12 13 6 6 3 5 9 11
37 34 30 29 27 24 22 21 19 19 17 16 16 18 19 19 21 24 23 21 19 19 14 8 7 6 11 14 10 10 9 8 9 12 12 15 17 15 17 17 10 12 21 29 13 13 13 14 8 7 6 8 5 10
32 31 31 28 25 24 23 22 20 20 18 17 15 15 18 17 18 23 25 25 22 17 17 20 9 6 11 4 5 5 9 11 13 19 16 16 12 12 9 5 11 16 15 11 15 13 8 3 6 10 10 8 8 10
31 31 28 26 25 24 23 22 22 22 19 18 18 18 17 19 23 28 22 18 19 17 17 13 8 5 5 4 12 13 15 15 15 15 19 19 14 16 22 24 15 16 12 6 9 10 7 3 7 9 8 6 5 9
30 28 26 24 24 24 23 23 23 22 18 19 21 21 21 21 22 26 21 11 15 17 18 10 10 9 7 10 10 6 7 13 16 18 19 14 14 15 10 15 15 12 8 6 6 11 12 11 12 13 9 10 12 13
26 24 24 24 23 22 22 23 23 23 20 18 21 21 26 27 28 24 22 12 9 14 11 15 17 14 5 6 8 6 5 5 10 14 13 10 10 7 12 15 17 15 13 12 14 11 11 13 15 16 14 14 16 16
22 23 24 21 23 22 22 21 23 21 21 19 29 35 33 33 23 21 22 20 13 19 23 22 17 16 12 14 15 5 7 8 4 5 5 10 12 19 21 22 21 19 18 19 20 21 22 23 24 22 22 23 23 23
21 20 21 20 22 23 22 19 18 23 25 26 41 39 31 26 22 22 12 16 12 13 17 23 24 16 11 13 12 6 3 3 3 3 4 4 10 15 14 13 11 11 12 13 15 16 16 16 17 18 21 25 26 25
18 20 21 22 25 22 21 22 24 28 32 34 40 36 27 25 14 14 14 12 9 16 11 8 9 11 14 14 9 5 4 4 2 4 5 4 13 16 16 16 14 11 14 14 15 17 19 21 23 23 19 18 21 23
13 15 21 23 24 23 24 24 26 21 35 44 31 35 21 18 14 11 14 13 15 10 17 18 7 14 14 12 7 4 5 4 3 5 5 10 11 11 9 13 16 14 14 13 12 11 14 17 19 20 20 22 22 19
14 20 18 21 26 30 25 29 28 29 43 39 25 22 12 11 11 10 18 14 20 20 5 5 10 12 15 10 6 4 5 5 4 5 8 10 9 11 13 13 14 14 14 13 15 18 20 22 20 19 18 18 18 15
10 20 22 24 34 34 30 32 34 31 47 14 12 13 11 14 13 16 14 17 20 18 12 8 12 13 8 8 6 6 5 4 7 8 13 10 10 10 11 12 14 15 14 15 18 20 24 25 22 20 18 15 17 14
21 29 30 35 41 35 39 38 31 38 34 13 10 13 13 18 15 20 17 17 18 21 16 15 9 6 9 5 7 7 4 7 6 11 11 10 11 11 15 19 18 17 18 21 23 22 23 22 20 18 18 16 15 16
26 36 35 34 36 34 35 34 34 44 9 9 14 16 14 17 17 21 19 19 17 17 20 12 8 7 6 6 8 9 9 11 12 14 16 18 20 20 19 19 20 21 22 23 24 24 22 21 21 19 17 16 15 15
30 30 28 32 36 39 31 34 33 12 19 13 16 17 18 20 20 20 21 20 21 21 19 17 11 13 8 10 13 16 19 19 19 18 18 19 21 22 23 25 27 27 27 26 24 23 22 21 21 19 17 15 15 16
28 28 26 28 24 29 29 31 16 12 20 23 19 19 21 17 14 14 16 19 20 21 21 20 10 14 20 17 14 14 16 18 19 21 23 25 27 28 29 28 29 30 30 29 26 25 23 21 21 18 16 15 14 13
19 22 25 23 25 27 17 17 19 11 18 20 19 17 12 13 12 12 13 16 19 19 21 22 23 18 14 15 16 17 18 21 23 25 27 28 29 29 30 30 29 28 27 26 24 22 20 17 15 13 12 11 10 9
20 19 22 26 26 26 14 13 12 8 17 18 17 14 13 13 12 13 13 15 17 21 24 24 25 25 24 23 23 23 24 24 24 24 25 27 26 25 24 23 22 19 17 16 15 13 11 9 8 6 6 7 8 11
16 16 18 17 20 19 12 15 14 15 15 17 16 14 12 12 12 13 13 14 17 19 20 21 21 20 18 17 17 17 18 19 20 20 20 21 20 17 15 15 15 14 11 7 5 4 5 7 8 10 11 13 14 14
9 9 10 10 8 8 14 15 13 13 10 14 13 12 10 11 12 12 11 13 15 15 14 13 13 10 10 10 10 11 12 13 13 13 12 12 12 11 10 8 7 5 2 2 6 10 13 15 16 16 15 14 12 11
6 3 5 5 5 9 16 12 12 12 12 13 11 7 9 9 9 10 9 9 9 9 8 7 6 4 5 4 4 5 7 8 8 6 6 5 4 3 5 6 5 6 8 10 11 13 13 13 11 10 10 10 10 10
0 2 4 5 7 13 12 15 14 9 13 13 12 8 8 7 6 6 8 9 9 7 6 4 3 2 2 2 3 4 4 5 6 7 9 8 8 9 10 9 8 9 10 10 9 7 5 5 5 6 7 8 9 10
2 2 3 6 12 10 10 13 10 12 15 11 8 9 9 6 5 5 9 10 8 6 5 4 4 3 3 3 3 3 2 2 3 5 6 6 8 8 8 7 6 5 3 2 1 1 1 2 3 5 7 8 9 10
3 4 8 9 9 13 14 16 16 13 8 6 11 12 8 4 5 8 11 9 7 5 3 3 3 4 4 4 4 3 3 2 2 0 1 1 1 2 1 0 0 1 2 2 3 4 5 6 6 6 6 7 8 9
8 12 14 16 16 17 17 15 11 6 6 9 8 5 3 3 4 9 9 7 5 3 2 2 2 3 3 4 4 4 4 4 4 4 4 4 4 4 4 4 4 5 5 4 4 4 4 4 4 5 6 8 10 11
20 21 19 19 15 14 12 11 11 11 10 8 5 5 4 7 9 9 7 4 2 1 1 1 2 2 3 3 3 4 4 4 5 6 6 6 6 7 7 6 6 5 5 5 5 5 5 5 5 6 7 8 8 8
21 20 18 19 18 18 16 15 16 15 14 15 12 11 12 12 12 10 8 6 4 3 3 3 2 2 3 3 3 3 4 4 4 5 5 5 5 5 6 6 5 5 4 4 4 5 5 6 6 7 8 8 8 8
20 19 19 19 22 23 20 19 20 20 18 17 18 16 14 13 11 9 7 6 4 3 2 2 2 3 3 4 4 4 4 4 4 5 5 5 4 4 4 4 4 4 4 4 4 5 5 5 5 6 5 6 7 8
22 18 17 20 24 24 23 21 19 18 18 16 15 13 11 10 8 7 5 4 3 2 2 2 3 3 3 4 4 4 4 5 5 5 5 5 5 5 4 5 4 5 4 4 4 4 5 6 7 7 8 9 11 12
22 22 21 23 24 23 21 20 18 16 14 12 11 9 7 6 5 4 4 3 3 3 3 3 3 4 4 4 4 4 4 4 4 4 4 4 5 5 5 5 5 6 6 6 7 7 7 8 9 10 10 10 10 11

GFSWCAN_700_spd_114.txt.gz
Wind_Speed
40 37 37 36 32 31 31 27 24 24 20 19 19 18 18 16 14 14 13 15 14 17 13 18 15 14 12 10 14 12 10 8 8 9 5 6 6 10 8 15 12 11 8 5 5 8 8 4 2 6 11 10 7 7
38 38 39 38 35 32 30 27 26 24 21 19 19 20 19 15 15 16 16 16 16 18 14 12 9 7 9 11 11 13 13 9 7 7 8 6 13 10 17 10 16 8 18 12 6 6 9 6 7 12 12 4 2 5
36 36 36 37 34 33 31 29 27 25 22 21 21 20 20 17 18 17 17 17 17 20 22 16 11 15 16 12 15 16 10 9 8 9 10 9 8 14 12 14 23 26 28 6 1 8 14 14 11 11 15 1 1 4
38 37 38 38 35 33 32 30 28 26 23 22 21 21 21 19 22 20 20 20 20 21 25 16 14 12 15 17 16 13 12 13 14 13 13 13 14 13 20 20 24 20 22 24 10 16 5 2 9 12 10 5 5 5
32 32 32 36 35 34 33 31 29 27 24 22 21 20 18 17 20 22 22 24 21 20 22 15 13 11 19 14 16 16 13 11 11 15 16 14 19 21 16 17 10 20 24 21 23 19 20 11 8 5 4 5 5 3
35 36 36 31 35 35 33 32 31 27 24 22 21 19 17 18 17 17 19 16 15 20 22 26 10 7 14 15 13 13 14 16 17 16 17 17 13 13 10 12 17 19 13 12 18 16 15 19 17 11 7 3 3 3
35 34 34 38 32 36 35 34 31 27 24 22 21 19 19 19 21 20 12 8 7 13 18 16 7 4 6 8 13 16 15 17 15 16 21 20 17 18 21 22 16 8 6 10 13 10 10 12 15 14 16 19 14 13
31 34 34 32 33 34 36 34 31 27 24 22 21 21 18 20 20 22 16 11 9 9 14 10 9 5 7 6 8 10 16 19 23 23 22 19 15 13 9 14 9 9 12 16 14 14 16 17 16 15 16 17 17 17
29 28 30 29 29 31 33 35 31 27 23 22 22 18 17 24 27 18 9 16 16 12 10 11 9 2 5 9 7 5 9 12 12 13 13 9 11 7 11 10 15 19 15 12 13 13 14 15 14 16 18 20 20 21
27 29 30 28 28 27 29 29 28 25 24 22 17 18 24 25 20 17 15 19 17 20 23 24 17 13 8 9 4 7 3 7 4 6 6 7 13 19 18 16 14 13 10 5 5 6 8 12 13 15 16 18 20 20
26 29 31 28 28 29 30 30 27 27 25 27 27 24 19 19 24 16 14 13 9 10 18 22 19 17 15 16 12 5 4 2 3 3 4 4 9 11 10 12 12 12 9 9 10 9 10 9 11 15 18 19 21 20
28 31 29 29 30 30 29 29 29 32 34 22 28 24 18 21 13 14 11 12 11 13 11 4 5 10 12 14 7 4 4 3 4 5 4 4 10 10 10 10 6 10 10 11 12 12 11 12 15 19 22 22 22 21
26 26 26 28 28 29 29 31 34 38 23 30 29 30 13 16 13 14 19 18 21 10 13 13 13 6 7 14 8 6 5 5 4 5 4 9 9 8 7 7 9 8 7 10 13 13 11 13 17 20 22 22 23 20
23 24 25 27 28 29 32 35 41 35 34 31 26 17 14 12 13 19 26 29 26 22 11 6 8 8 9 11 7 4 5 5 4 4 6 7 7 7 9 9 8 9 11 14 14 14 16 19 21 20 23 21 21 19
23 25 26 28 33 33 33 37 38 35 37 22 24 13 19 15 12 10 18 15 20 21 16 12 9 7 8 7 6 6 5 4 6 7 9 9 9 9 10 11 12 14 19 17 14 16 18 19 20 22 22 19 17 18
23 23 26 29 32 37 39 42 41 43 26 26 15 14 19 16 12 13 17 14 18 16 16 14 8 5 8 5 7 8 4 7 8 10 10 11 12 12 13 15 19 22 21 22 23 25 25 25 25 24 24 22 19 18
29 31 33 38 34 38 34 35 34 33 15 15 14 12 17 20 15 12 17 21 18 20 21 16 7 8 5 6 7 9 14 16 14 14 15 15 17 19 21 22 23 25 25 26 30 32 33 33 32 30 28 26 24 21
32 32 38 37 37 34 37 32 25 14 9 17 19 15 13 19 21 19 18 17 19 21 23 24 16 12 9 10 14 14 14 14 14 16 18 19 20 22 24 26 29 31 32 34 35 36 35 34 32 31 29 27 26 23
34 34 35 35 34 40 39 31 19 10 11 20 19 19 17 13 13 17 16 15 19 22 22 23 13 13 18 22 19 17 17 17 17 17 19 22 24 27 30 32 33 34 34 33 34 34 33 32 30 29 27 26 24 22
37 36 39 35 35 35 19 22 16 12 15 16 18 20 15 10 11 11 12 15 21 23 22 27 29 25 21 18 17 17 17 17 18 21 25 28 30 29 30 30 31 31 31 30 29 27 26 25 22 20 21 20 18 18
37 35 32 33 31 28 17 19 16 11 15 17 16 16 16 15 13 12 15 17 20 25 27 27 26 24 24 24 23 23 23 24 24 25 25 25 26 27 26 25 24 23 22 21 21 20 20 18 15 13 11 11 11 11
31 28 31 32 30 8 8 18 16 12 10 13 18 20 19 17 16 17 16 18 20 24 26 27 27 26 24 24 23 22 22 21 21 21 21 21 21 20 19 17 16 15 14 13 12 10 8 8 6 4 1 3 5 6
26 27 27 26 21 14 8 12 15 18 11 11 14 17 16 16 16 15 13 15 19 20 20 20 20 20 19 18 17 16 15 15 15 14 14 14 14 13 10 8 7 6 6 6 7 8 10 10 10 8 7 6 6 7
20 25 33 17 15 14 14 16 16 15 15 14 14 15 12 15 15 14 16 16 15 15 15 16 16 15 14 13 11 10 9 8 8 9 10 9 7 5 4 3 4 5 6 7 8 8 9 8 7 6 5 5 5 6
12 13 10 12 15 14 16 16 18 17 15 16 14 13 9 11 11 12 13 13 15 14 13 11 11 10 8 8 7 6 6 5 5 6 6 5 5 4 3 2 4 4 3 4 4 5 5 5 5 4 2 0 2 3
3 6 8 11 13 14 12 15 15 14 12 12 12 9 8 8 7 6 7 9 9 8 7 6 6 5 5 6 6 6 7 6 6 5 5 4 3 4 4 4 4 5 5 6 6 5 4 4 4 4 4 4 5 5
3 4 8 10 12 11 13 14 11 13 11 9 8 9 6 4 5 5 6 8 8 7 5 5 5 6 6 6 7 7 8 8 8 8 7 7 7 7 8 8 8 9 9 9 9 9 8 8 7 6 7 8 8 8
4 8 11 12 12 12 12 13 12 9 7 6 8 8 4 4 3 5 8 8 7 5 5 4 5 5 5 6 7 7 7 8 8 8 9 10 10 10 11 10 10 10 10 10 10 9 8 7 6 5 5 4 4 4
11 14 16 14 15 16 14 10 6 6 8 8 5 3 1 2 5 7 7 6 4 3 2 3 3 4 4 4 5 6 6 6 7 7 8 8 8 9 10 10 10 10 9 9 9 8 8 7 7 7 7 7 7 8
18 18 20 18 14 11 11 11 12 11 9 9 8 7 8 9 7 6 4 2 1 0 0 1 2 3 4 4 5 5 5 6 6 6 6 6 7 6 7 7 7 8 8 8 8 7 7 7 6 6 6 6 7 7
20 18 16 15 17 18 17 16 15 15 13 11 13 13 11 10 8 6 5 3 1 1 2 2 3 4 4 5 5 5 5 5 5 6 6 6 6 6 6 7 7 7 7 6 7 7 7 7 7 7 7 7 7 7
17 16 18 17 20 21 21 19 17 16 16 14 13 12 11 9 7 6 4 3 4 4 5 6 6 6 6 6 6 6 6 5 5 5 5 6 6 6 7 7 7 7 7 7 7 7 7 8 8 8 9 9 9 10
19 19 18 20 23 22 21 21 19 16 14 13 12 11 9 7 6 5 5 5 6 6 7 8 8 7 7 7 7 6 6 6 6 6 6 6 7 7 7 7 8 9 9 9 9 8 8 8 8 8 9 9 9 10

GFSWCAN_700_spd_117.txt.gz
Wind_Speed
29 31 30 30 29 27 26 24 23 22 20 19 16 15 13 12 11 9 9 9 9 9 9 11 10 9 12 11 11 12 11 8 8 9 6 8 7 11 12 20 14 11 9 4 7 8 7 7 2 2 6 15 19 15
39 36 32 30 30 29 26 24 24 22 22 21 18 16 14 12 11 10 10 10 11 12 11 11 10 7 10 10 12 12 10 12 9 9 10 8 17 10 21 10 18 11 21 12 6 7 8 8 11 13 12 21 3 4
29 33 35 35 34 32 29 27 25 24 23 22 19 16 14 13 12 11 12 12 12 17 19 11 8 15 15 13 14 13 8 9 9 9 13 13 12 15 14 16 25 24 23 16 8 12 11 11 16 17 12 11 2 5
30 28 31 30 32 32 31 29 27 26 24 23 20 17 15 14 13 14 13 12 13 18 22 15 14 12 13 17 19 18 13 12 14 14 16 20 20 14 20 25 22 13 23 24 18 21 7 3 9 10 9 9 10 7
34 33 29 29 30 31 30 29 28 27 26 24 21 18 16 16 15 14 16 15 16 16 22 13 7 12 16 18 16 11 12 16 16 15 17 19 20 16 18 16 14 22 26 20 17 24 23 22 19 15 8 2 4 3
36 35 36 34 31 31 30 29 28 28 27 24 21 18 16 15 15 14 15 15 16 16 19 22 9 9 14 9 11 12 14 14 15 18 20 22 16 16 13 12 22 20 18 18 21 13 18 15 15 17 16 16 13 9
38 34 33 33 33 30 30 31 30 29 27 24 20 17 16 17 15 12 7 4 3 7 11 11 8 2 6 7 10 15 16 15 18 21 22 19 18 19 21 23 15 12 13 17 21 18 14 16 16 15 15 14 13 13
40 34 35 34 33 33 27 27 32 31 26 23 19 18 17 18 17 17 12 8 8 5 7 7 7 4 5 4 7 7 12 15 17 18 23 23 19 15 10 13 12 12 17 22 24 20 18 16 14 15 16 16 15 15
35 34 33 33 32 32 28 27 27 25 24 22 20 19 17 17 19 14 18 12 9 10 7 11 9 3 3 8 10 9 10 12 14 19 17 10 10 7 13 13 13 18 14 12 10 9 11 12 14 15 16 17 18 18
33 31 31 29 29 30 32 29 28 25 21 21 22 19 19 18 14 17 14 13 15 16 23 25 16 15 8 9 8 11 5 7 5 7 7 9 15 16 16 17 16 13 12 9 8 8 9 12 10 13 15 18 18 18
29 27 28 27 26 26 29 31 29 26 24 25 22 18 14 14 17 20 8 15 12 12 19 17 12 12 15 16 14 6 4 3 3 3 4 4 8 8 10 12 12 11 9 10 9 9 9 9 9 12 16 19 20 19
28 28 27 27 27 29 32 31 30 31 31 31 19 20 14 14 10 13 10 12 11 12 12 3 6 10 10 13 9 6 5 3 3 4 4 4 9 11 10 10 7 8 10 8 9 11 11 10 12 15 19 20 23 22
27 27 28 31 30 30 28 30 32 29 30 30 23 21 17 13 13 12 19 16 16 12 6 8 10 5 4 11 8 5 4 5 3 5 5 10 9 8 9 9 9 9 8 9 13 15 14 13 15 18 20 21 23 21
27 27 33 34 31 30 31 31 30 37 37 25 17 23 14 10 13 27 26 28 23 13 8 1 6 7 8 9 7 4 5 4 4 4 6 7 7 8 9 11 10 10 10 14 17 15 14 15 18 19 20 21 21 20
30 34 35 34 32 31 32 31 35 40 32 10 18 16 21 14 10 8 13 18 13 17 19 10 6 7 9 6 5 6 4 5 6 6 7 6 7 9 10 11 12 13 16 20 19 19 21 22 23 23 23 23 22 21
27 28 31 31 31 32 32 35 35 34 34 14 16 15 18 20 14 9 12 13 10 15 16 13 10 6 7 5 6 7 4 5 5 5 7 10 11 12 14 16 19 21 22 23 24 25 27 29 30 30 29 26 24 22
25 27 28 33 36 34 33 37 35 29 31 11 18 19 11 16 16 12 13 14 13 17 19 13 8 8 6 6 7 8 12 13 13 12 13 14 15 17 18 20 22 24 27 30 33 34 34 34 33 32 30 28 26 23
22 27 33 31 41 43 39 37 39 20 13 15 17 17 13 13 16 16 15 13 16 18 18 19 14 11 8 8 11 12 13 13 15 16 17 18 19 20 23 25 27 31 34 34 35 36 36 36 35 32 30 28 26 24
22 27 35 46 42 47 43 35 28 14 14 19 20 17 15 13 15 18 18 13 14 18 18 19 13 17 22 23 21 18 17 17 18 19 21 22 23 25 29 32 32 33 34 35 34 33 32 30 28 26 23 22 21 20
32 33 37 41 45 43 24 24 14 13 15 16 20 23 19 16 13 12 11 11 12 16 22 24 28 24 20 18 17 17 19 20 21 22 24 26 28 28 29 30 31 31 30 27 25 25 25 24 23 21 18 16 15 14
35 33 34 39 45 24 12 25 16 13 19 18 16 17 17 14 10 11 12 13 16 20 23 23 24 25 25 23 22 21 21 23 23 24 24 25 26 25 26 26 23 22 21 19 17 16 15 16 16 14 11 8 7 7
37 33 34 37 33 19 11 23 16 10 13 14 14 17 17 16 16 17 14 15 18 20 22 25 26 25 24 24 24 25 24 23 23 22 21 21 20 20 18 17 16 14 13 11 10 10 11 12 13 11 8 6 3 1
32 30 28 28 19 11 13 15 15 13 9 13 14 18 17 17 18 16 15 15 18 19 20 21 21 22 22 21 20 20 19 18 17 16 15 14 13 12 11 10 8 7 6 6 7 8 11 12 12 11 10 9 7 6
22 27 25 21 9 8 10 14 19 18 16 14 13 13 12 15 16 15 17 18 17 16 16 17 17 18 17 17 15 14 13 11 10 9 9 9 8 8 7 6 4 3 4 5 7 9 9 9 8 9 8 6 6 5
22 17 12 13 14 12 13 13 16 16 15 16 15 13 10 10 11 12 13 13 15 15 15 14 14 13 11 10 9 9 8 8 8 8 7 7 7 6 5 4 4 4 6 8 9 9 9 8 7 7 6 5 4 2
11 11 12 11 18 16 14 16 17 17 16 15 13 11 12 10 8 7 8 10 12 12 10 8 7 6 6 7 7 8 8 9 9 9 9 9 9 9 8 8 8 9 10 10 11 10 10 9 8 7 6 5 5 4
8 8 14 14 15 16 15 15 14 14 14 10 12 11 8 5 6 6 6 7 7 7 6 5 5 5 6 7 7 8 9 9 10 10 10 10 11 11 11 11 11 12 12 12 11 11 11 10 9 8 7 7 7 7
7 8 11 14 14 13 12 15 14 12 10 7 7 9 5 4 3 4 4 6 6 5 3 3 3 4 5 6 7 7 7 8 9 9 10 11 11 11 12 12 12 12 12 12 12 12 11 10 9 8 7 7 6 5
9 12 15 15 14 13 12 12 8 9 8 9 7 6 2 2 4 6 6 5 3 2 1 2 2 3 4 5 5 6 6 7 8 8 9 10 10 10 10 11 11 10 10 10 10 10 9 9 8 7 7 7 7 7
14 16 17 17 17 12 12 9 11 13 11 10 9 8 9 10 10 9 7 5 3 2 1 2 3 3 4 4 5 5 6 6 7 7 8 8 8 8 8 8 8 8 8 8 8 8 8 7 7 7 6 6 6 6
17 18 19 16 13 16 17 17 17 16 14 13 14 13 12 10 9 7 5 4 2 2 2 3 4 5 5 6 6 6 7 7 7 7 7 8 8 8 8 8 8 8 8 8 7 7 7 7 6 7 7 7 7 7
18 17 14 17 20 20 21 20 19 17 16 14 13 12 11 9 8 6 5 3 3 3 4 5 6 6 6 6 6 6 7 7 7 7 7 7 7 7 8 8 8 8 8 9 9 9 9 9 9 10 10 10 10 10
17 17 18 19 22 22 22 23 21 18 15 14 12 11 10 8 6 5 4 4 4 5 6 6 7 7 8 7 7 7 7 7 7 7 7 7 7 8 8 9 9 9 9 9 9 9 9 9 9 9 9 9 9 9

GFSWCAN_700_spd_120.txt.gz
Wind_Speed
31 30 27 24 26 25 26 24 23 20 19 18 16 13 11 8 7 6 5 4 3 4 5 5 8 8 7 7 7 9 9 8 8 9 6 8 7 10 11 19 14 11 12 5 3 5 3 7 8 2 6 13 17 18
32 29 32 29 28 28 27 25 24 22 20 19 17 15 12 10 8 6 6 6 7 6 4 5 7 9 10 11 11 9 6 10 8 8 7 9 10 11 18 9 19 8 19 15 8 12 10 16 18 16 15 14 19 16
36 38 34 30 28 28 29 24 23 23 21 20 19 16 14 12 10 7 8 9 9 8 5 6 7 13 12 13 14 11 8 11 11 9 14 12 11 13 13 14 22 22 24 18 16 16 12 9 7 14 15 15 19 16
42 40 38 35 32 28 28 27 24 22 21 21 20 18 15 13 12 8 9 10 9 10 12 6 8 9 12 14 16 15 15 16 15 13 14 16 13 11 15 21 20 15 22 24 22 24 18 23 9 5 5 7 11 8
31 29 31 32 32 31 30 29 26 25 23 23 21 19 16 14 13 9 11 11 11 9 11 11 6 9 13 16 18 16 15 14 15 18 16 16 14 16 15 16 10 21 23 20 18 20 20 21 18 15 14 16 8 3
40 34 33 29 26 28 28 30 29 27 25 25 22 20 17 16 14 10 9 8 10 10 13 11 4 11 14 11 8 10 13 14 15 17 18 18 16 13 11 11 19 19 19 19 24 23 19 18 19 13 11 12 12 12
45 39 38 33 30 29 27 28 26 26 26 25 24 21 19 17 13 13 7 4 5 2 7 7 1 3 5 5 7 10 14 15 15 20 22 19 13 16 18 15 19 16 16 20 24 20 14 13 12 13 14 13 13 14
47 44 39 38 35 34 29 26 27 28 27 26 23 21 18 16 17 15 12 8 7 3 4 3 1 3 4 7 6 6 8 13 17 20 20 17 16 16 8 13 13 15 16 20 15 12 11 11 13 14 13 14 15 16
47 47 38 37 37 35 33 26 25 26 27 24 23 20 21 20 17 14 16 12 7 8 5 6 3 3 4 5 5 8 10 12 12 18 17 10 10 8 12 14 17 18 18 17 15 12 11 12 10 12 14 16 17 18
46 44 39 35 33 33 33 28 24 27 26 26 24 24 21 16 13 16 14 15 15 16 21 22 14 14 9 5 3 6 4 9 7 8 7 9 15 18 17 17 16 14 14 13 12 12 12 12 11 12 14 17 20 21
46 42 35 32 31 32 33 29 29 33 30 31 28 20 15 16 16 16 10 11 9 8 15 17 16 14 16 14 11 5 5 5 4 5 5 4 9 10 9 11 12 12 10 11 11 11 12 13 12 13 16 19 20 21
38 37 35 31 29 31 34 31 37 38 36 29 25 18 17 18 9 10 12 10 10 9 11 4 7 14 14 13 10 6 6 4 4 5 4 4 13 10 10 11 10 9 9 9 9 12 13 14 13 14 16 16 18 20
35 33 31 31 30 30 31 32 38 35 29 27 22 23 14 14 12 13 19 14 13 10 4 5 8 5 10 11 8 6 5 6 4 5 4 11 11 11 11 10 8 9 10 8 9 12 14 13 13 15 18 19 19 19
31 31 31 31 29 29 35 38 39 35 35 35 14 25 12 10 13 21 20 24 18 6 4 3 7 8 10 8 7 4 6 5 4 4 7 8 7 7 8 9 10 10 11 12 15 18 19 19 21 22 23 23 23 24
30 30 29 31 31 35 38 37 35 37 39 15 13 10 19 11 9 7 11 16 15 15 16 12 5 6 8 6 6 6 4 5 5 7 7 6 6 9 10 11 13 14 16 19 21 22 23 24 25 27 29 29 29 27
31 30 31 33 36 35 35 33 31 38 45 11 7 11 15 17 14 7 6 9 13 13 16 15 11 5 7 5 6 7 4 5 4 4 6 8 10 12 14 16 18 20 21 23 25 27 30 32 33 32 32 31 30 28
33 35 39 39 32 33 32 33 31 32 17 19 9 14 11 13 14 13 12 11 15 16 20 14 8 9 6 6 7 8 12 13 12 13 11 12 14 16 18 20 22 25 27 29 32 34 34 35 36 36 36 34 33 30
35 38 39 36 32 33 31 26 31 20 23 14 19 15 15 12 12 16 17 15 15 18 21 19 11 12 7 9 13 11 10 11 13 15 16 18 20 22 23 24 26 30 31 32 33 34 35 35 33 31 29 27 25 24
36 38 40 40 38 37 37 32 31 14 18 22 22 20 19 16 16 15 16 15 12 18 20 21 11 15 23 24 21 20 20 16 16 17 20 22 24 25 27 28 29 30 31 31 31 30 28 26 25 24 23 21 20 19
38 38 38 40 39 36 24 18 31 26 11 18 24 25 22 20 17 14 15 15 13 14 23 24 25 22 16 15 16 17 19 22 23 21 22 24 26 27 27 27 27 28 27 25 23 22 21 20 20 19 18 15 13 13
40 40 41 41 38 29 22 14 25 24 23 14 17 18 19 19 17 15 15 14 15 18 21 25 26 25 26 28 27 26 23 22 22 25 27 26 25 25 24 24 23 21 18 16 15 13 13 14 14 14 14 11 9 7
47 47 47 47 38 15 22 18 12 17 17 14 15 15 17 17 16 14 13 15 18 20 21 21 22 23 23 23 23 24 24 25 25 23 21 21 20 19 18 16 15 12 10 9 8 8 10 11 12 13 13 12 9 6
43 45 49 35 11 8 13 22 18 12 11 15 18 18 19 20 20 17 16 17 18 19 21 22 22 23 23 23 23 22 21 20 19 17 16 14 13 12 11 9 8 7 6 5 7 9 10 11 11 11 11 11 9 7
47 39 32 25 14 11 14 18 20 17 13 16 19 17 14 19 19 18 20 21 20 20 20 20 20 20 19 19 18 17 16 14 12 10 9 9 8 8 7 7 6 6 6 7 9 9 10 10 11 10 9 9 8 7
23 17 13 13 14 14 12 17 20 19 19 17 16 16 13 14 14 16 17 17 19 20 19 18 17 16 15 14 13 11 10 9 9 9 9 9 8 8 7 7 7 8 8 9 10 10 10 11 10 10 9 7 6 6
13 9 13 13 19 15 15 15 17 18 18 17 14 14 14 13 11 9 12 13 15 15 14 13 11 9 8 7 7 7 8 9 10 10 10 10 10 10 10 10 11 11 12 12 12 12 12 11 11 11 10 8 7 6
12 10 17 18 19 20 22 21 18 17 16 13 14 14 10 7 7 8 8 8 8 7 7 6 5 5 5 6 7 8 8 9 9 10 10 10 11 11 12 12 13 13 13 13 13 13 12 12 11 11 11 10 9 9
15 17 15 15 19 17 16 16 17 15 14 11 11 9 6 6 4 4 3 5 5 5 4 3 4 4 5 5 6 7 7 8 8 8 9 9 10 10 11 11 11 11 12 12 11 11 11 10 10 10 10 9 8 8
13 14 15 16 17 16 14 14 12 12 10 10 11 9 6 5 4 6 7 7 6 4 3 2 2 3 3 4 5 6 6 7 7 8 8 9 9 9 9 9 9 9 9 9 9 9 9 9 8 8 8 8 8 8
12 15 18 18 17 13 13 13 11 12 13 11 9 9 9 10 10 9 8 7 5 3 2 0 1 3 4 5 6 6 7 7 7 8 8 8 8 8 9 9 9 9 9 9 9 9 8 8 8 8 7 7 7 8
16 17 17 17 16 15 15 16 17 16 16 16 16 14 11 11 11 9 7 5 3 1 0 2 4 5 5 6 7 7 7 8 8 8 8 8 8 8 8 8 8 9 8 8 9 9 9 9 9 9 9 9 9 9
19 19 20 17 17 19 20 20 20 19 18 17 16 15 12 11 9 8 6 4 2 0 2 3 4 5 6 6 7 7 7 8 8 8 8 8 8 8 8 8 8 9 9 10 10 10 10 10 10 10 11 11 11 11
20 18 16 19 22 24 24 24 22 19 17 16 14 12 11 9 7 5 4 3 2 3 4 5 5 6 6 7 7 7 7 7 7 7 7 8 8 8 8 8 9 9 9 9 9 9 9 9 9 9 9 10 10 10

GFSWCAN_700_spd_123.txt.gz
Wind_Speed
23 25 23 24 25 27 29 30 28 28 25 23 19 17 13 10 8 6 4 5 4 4 4 7 10 10 5 3 3 9 4 7 6 8 7 10 9 10 10 19 11 14 17 14 9 6 2 23 11 13 16 14 17 19
31 26 25 24 23 23 24 25 28 28 26 24 21 18 14 12 9 7 6 5 4 4 6 6 9 14 13 12 8 5 5 8 5 7 7 7 13 11 17 12 16 8 17 17 12 14 16 19 15 18 16 18 21 17
27 34 24 30 25 23 26 25 25 27 25 24 22 18 16 14 11 9 7 6 4 5 6 10 9 13 16 14 11 7 4 9 4 9 11 9 9 12 14 15 18 18 17 17 12 24 13 24 19 13 12 7 10 6
34 30 32 34 29 27 30 31 27 26 24 23 22 20 17 15 12 10 7 6 4 5 6 6 11 10 12 14 13 10 11 16 13 11 11 11 12 10 17 19 21 16 17 18 13 25 22 20 21 19 18 14 11 8
39 39 33 31 30 28 29 29 27 24 24 23 23 22 19 16 13 11 9 7 6 6 7 8 8 12 12 12 11 12 13 15 10 12 12 11 11 13 12 15 12 15 21 20 19 25 21 18 20 18 14 13 12 12
46 39 34 33 29 30 28 25 28 27 24 23 23 21 19 17 14 11 9 7 7 8 8 2 9 10 11 10 12 13 14 13 11 14 12 10 11 12 10 11 14 21 19 18 23 23 17 14 14 13 14 14 14 15
44 44 37 35 36 31 30 30 29 28 25 25 23 21 20 18 16 12 8 7 8 8 5 3 1 8 6 7 6 8 9 11 12 17 17 13 10 15 17 14 17 16 17 19 21 16 12 12 12 12 14 17 19 19
42 42 38 36 34 32 30 29 29 30 27 25 26 23 22 19 18 15 11 9 8 7 5 3 3 3 4 5 5 6 7 9 13 15 12 11 11 12 8 15 15 15 18 20 18 15 13 12 12 12 14 16 18 20
51 44 40 33 37 33 32 28 26 25 27 27 26 23 19 20 19 14 13 13 10 10 4 6 6 3 5 7 8 7 7 10 8 12 11 7 9 8 14 18 19 19 17 15 14 12 12 12 12 12 12 15 18 20
39 55 46 37 35 33 33 29 26 24 28 26 26 26 28 21 16 13 12 13 13 16 18 16 10 7 6 6 4 3 5 5 7 11 5 10 13 19 19 20 20 16 14 12 11 10 10 11 11 11 13 17 19 20
30 47 50 45 35 37 34 33 26 27 31 33 32 25 15 18 13 13 8 11 8 7 13 12 14 13 10 12 8 4 4 4 5 7 6 5 9 11 10 12 13 13 12 10 10 10 13 14 14 14 15 17 18 20
32 48 47 41 37 37 34 31 30 35 39 34 26 19 18 18 10 10 10 8 9 6 9 7 7 14 16 16 8 5 6 5 5 4 4 5 13 11 11 11 10 10 10 11 11 11 13 15 16 16 18 19 21 23
37 46 45 39 38 33 33 33 29 36 37 30 26 20 14 14 12 12 15 11 9 9 9 5 6 12 13 11 8 6 5 7 6 5 4 12 14 12 10 9 9 9 12 13 14 16 18 20 20 21 22 24 25 25
43 42 39 35 34 35 38 35 37 39 36 27 25 17 15 10 13 14 13 14 14 5 9 4 12 7 9 11 6 5 7 5 4 5 8 14 12 10 8 8 10 11 12 14 16 19 21 23 24 25 27 28 29 30
37 35 32 32 31 35 38 36 42 37 34 31 15 14 20 8 11 12 12 15 12 18 12 8 7 8 8 7 6 7 4 5 5 7 8 7 7 8 10 12 14 16 18 19 20 22 25 27 29 32 33 34 34 34
36 34 34 34 32 35 37 34 37 38 41 13 8 7 19 21 11 7 8 11 13 15 14 13 11 6 9 7 7 8 4 5 6 5 6 10 11 12 14 16 19 21 24 26 28 30 32 34 35 36 37 37 37 36
35 36 36 35 34 37 40 40 41 39 29 14 6 8 11 18 19 15 10 6 8 15 18 10 9 9 6 8 8 8 11 13 12 12 13 12 14 17 19 20 22 24 25 28 31 32 33 34 36 36 34 33 31 29
32 32 35 35 40 37 35 31 37 29 28 30 20 5 9 14 14 14 13 13 14 14 18 16 12 14 10 8 10 10 8 10 11 16 15 15 17 20 23 25 26 28 29 30 31 32 33 31 31 29 28 27 26 24
31 33 38 42 41 39 34 32 32 19 27 28 22 11 10 14 15 15 18 16 16 14 17 21 12 14 18 19 18 18 19 20 20 17 18 23 23 24 27 29 30 30 30 29 30 29 27 24 22 22 23 23 22 21
34 39 32 36 37 33 23 14 25 21 21 27 27 25 23 20 20 19 17 14 14 13 15 22 25 23 20 17 17 18 17 17 20 24 26 24 25 28 29 29 28 28 27 26 24 20 18 16 17 18 19 19 18 16
36 36 30 27 29 25 13 13 21 26 22 18 16 20 19 19 20 19 15 15 17 20 20 22 23 26 27 26 25 24 26 25 24 24 25 28 28 27 26 25 23 22 19 17 15 13 12 13 15 16 16 17 16 14
36 36 36 30 31 17 15 11 19 26 24 27 22 13 16 17 18 18 17 18 20 21 20 21 21 22 23 25 26 26 25 25 25 25 25 24 23 22 20 17 15 14 12 10 9 10 11 13 14 14 15 15 15 14
36 32 32 32 28 19 15 21 16 25 20 20 20 18 15 14 16 16 18 18 17 18 20 21 22 23 24 25 25 24 23 22 21 21 20 19 16 14 13 12 10 9 8 9 9 10 12 12 13 13 13 13 12 12
40 38 36 21 20 13 17 21 21 16 12 10 13 19 18 21 20 19 23 23 23 23 23 23 23 23 23 23 22 21 20 19 18 15 13 12 11 10 10 9 9 9 9 10 11 12 12 13 13 13 12 12 11 10
37 26 19 21 22 13 11 17 21 21 21 20 18 19 16 15 14 18 21 21 20 22 22 22 21 20 20 19 18 16 15 13 11 11 10 10 11 11 11 11 11 12 12 13 14 14 14 14 14 14 13 12 11 10
16 15 20 17 16 14 15 14 20 21 19 20 19 20 19 18 15 11 19 19 19 19 18 17 16 15 14 13 11 10 9 10 10 10 11 11 12 12 12 13 13 13 14 14 14 14 14 15 14 14 14 13 12 11
12 9 20 27 20 22 23 22 18 16 17 16 18 17 14 9 10 16 15 13 14 12 11 10 9 8 7 7 8 8 9 9 10 10 10 11 11 11 12 13 13 13 13 14 14 14 14 14 14 13 13 12 12 12
20 20 17 17 21 21 22 23 23 22 21 19 18 14 8 9 9 9 8 7 7 7 7 6 5 5 5 6 7 7 7 8 9 9 9 10 10 10 10 11 11 11 11 11 11 11 11 11 11 11 11 11 11 11
20 19 20 23 22 22 23 24 23 21 19 17 16 15 13 11 9 7 6 7 6 5 4 3 2 3 4 5 6 6 7 7 8 8 9 9 9 9 9 9 9 9 9 9 9 9 9 9 10 10 10 10 10 10
21 20 20 22 22 23 21 20 18 17 15 14 13 12 10 9 9 8 8 7 6 5 3 2 1 3 4 6 7 7 8 8 9 9 9 9 9 9 9 9 9 9 9 10 10 9 10 10 10 10 10 10 10 10
23 21 21 21 22 20 15 15 15 14 15 15 13 13 12 11 11 10 9 7 5 3 1 2 3 5 6 8 9 9 9 10 10 10 10 10 10 10 10 10 10 10 10 10 10 11 11 11 11 11 12 12 12 12
18 20 19 18 18 16 16 16 17 17 17 18 17 16 15 13 11 9 7 6 4 3 2 3 4 6 7 8 9 10 10 10 10 10 10 10 10 10 10 10 11 11 11 11 11 11 11 11 11 11 12 12 12 12
20 20 19 17 17 19 20 20 20 19 19 18 17 16 14 12 10 9 7 5 3 2 2 4 5 6 7 8 8 9 9 9 9 9 9 9 9 10 10 10 10 10 10 9 9 9 9 9 10 10 11 11 11 12

GFSWCAN_700_spd_126.txt.gz
Wind_Speed
22 21 21 22 23 25 28 29 31 31 31 28 26 23 20 17 15 12 11 9 7 9 3 9 9 18 4 6 3 7 2 6 6 7 6 8 8 11 11 16 15 13 15 15 12 10 6 32 20 15 17 18 21 22
24 22 21 21 24 25 28 30 31 31 31 28 26 23 20 18 14 11 9 7 6 7 7 4 7 14 18 19 17 6 2 6 5 6 6 6 7 8 15 9 15 9 23 16 10 11 19 14 21 18 17 15 19 19
24 23 24 22 22 23 25 28 29 30 30 29 27 24 21 18 15 13 9 8 7 5 5 6 7 11 15 15 13 4 5 8 7 6 9 6 6 10 11 12 19 22 14 17 14 13 20 11 18 18 19 16 11 9
30 28 28 25 24 23 22 24 26 28 28 28 26 25 22 19 16 12 10 8 7 5 3 4 7 9 9 14 15 11 15 12 13 11 9 8 10 9 13 18 17 16 12 19 13 22 17 13 17 18 20 19 16 15
36 35 31 32 28 21 21 23 23 22 25 26 26 24 21 18 15 13 11 8 8 6 6 6 8 9 10 7 10 12 13 14 12 10 10 10 8 10 10 11 9 12 17 18 18 22 17 16 16 16 16 16 16 16
35 29 35 30 31 29 24 24 26 22 21 23 24 23 20 19 17 14 9 6 7 9 7 2 10 9 8 8 9 10 10 10 11 12 11 10 6 9 9 8 14 17 17 18 21 19 13 14 13 12 13 15 17 18
35 30 25 37 36 31 24 22 23 25 20 21 21 21 20 19 16 11 7 8 9 9 6 3 3 6 7 7 7 7 7 11 9 12 15 15 10 11 15 13 14 18 17 19 18 16 12 11 12 12 13 16 19 21
43 36 31 32 31 28 26 22 19 21 22 20 19 22 21 21 17 13 11 8 7 8 5 3 4 3 4 4 7 7 7 7 10 14 11 7 6 12 8 11 15 14 17 19 16 14 13 13 12 14 14 15 18 20
39 41 37 31 31 29 24 21 22 23 25 21 22 22 21 21 16 12 10 11 10 10 4 5 6 2 5 6 8 10 8 9 9 9 6 5 8 8 12 16 16 18 18 14 12 11 11 11 13 14 14 15 16 17
38 38 35 36 31 27 26 24 25 23 24 23 25 22 21 17 12 11 9 11 11 13 15 13 9 8 3 7 7 5 6 6 6 10 3 11 12 17 19 19 19 16 14 13 10 9 10 11 13 14 14 15 16 18
37 38 38 36 34 32 29 29 27 27 24 27 29 21 13 16 9 9 6 7 6 6 10 10 15 16 9 11 9 3 4 4 5 5 10 5 9 11 9 11 12 11 11 11 11 11 12 13 14 15 17 19 21 23
30 43 39 41 36 38 34 33 31 28 28 30 22 18 14 15 8 8 8 7 7 4 7 6 5 9 13 13 12 7 6 5 6 4 4 4 9 9 10 11 10 11 11 11 13 13 15 16 18 21 22 24 26 26
30 37 49 42 33 37 33 41 30 21 31 27 20 20 13 12 11 10 12 8 8 8 13 13 9 15 17 16 11 7 5 7 5 5 4 9 9 10 8 9 9 9 11 12 13 15 18 21 23 24 26 28 29 31
33 33 51 46 37 32 35 35 28 31 36 27 20 18 11 9 11 13 11 10 9 9 10 9 8 9 11 10 8 5 6 5 4 5 6 9 9 8 6 7 11 10 13 16 18 20 22 24 27 29 31 32 33 33
34 34 49 46 39 34 36 32 30 35 36 25 17 9 16 8 11 14 14 13 12 15 13 8 6 9 8 6 6 6 5 5 5 5 7 5 7 8 8 10 13 16 19 21 22 24 25 29 31 33 33 34 36 36
34 40 43 43 40 37 36 32 32 37 34 18 10 7 11 18 10 13 15 17 12 13 15 12 10 6 8 7 8 8 6 5 3 3 6 10 13 13 13 16 18 20 22 25 28 30 32 32 34 35 36 35 35 34
43 45 38 37 37 41 38 33 37 32 24 19 17 13 9 21 20 13 6 8 12 14 18 10 7 8 6 8 10 11 12 11 9 10 9 13 15 15 16 19 21 24 27 29 31 32 33 32 33 33 32 30 30 27
35 39 40 39 42 38 36 37 39 25 25 29 17 8 3 6 20 19 14 12 12 14 13 16 12 11 8 8 8 12 8 8 9 12 15 17 15 18 22 24 25 27 30 31 30 31 31 31 29 27 25 24 24 23
35 39 40 40 42 41 39 23 30 20 27 28 34 19 6 3 8 12 12 14 17 16 17 18 14 13 17 18 17 13 14 16 19 20 21 19 21 24 25 25 28 31 29 28 28 27 26 23 21 20 19 20 21 21
33 35 36 40 42 22 10 20 32 23 23 32 30 33 28 14 11 12 14 15 17 18 22 21 25 23 19 16 17 18 16 17 20 21 26 27 24 25 26 28 29 27 27 25 22 19 17 16 15 16 18 19 20 21
32 32 36 35 36 21 9 15 26 28 23 13 26 31 32 19 21 19 18 18 19 21 22 21 18 18 22 24 26 26 26 26 25 26 27 29 29 29 28 26 25 22 20 17 16 14 13 13 14 15 16 17 18 18
36 36 33 31 27 19 12 8 14 19 19 21 14 20 28 20 15 16 16 18 19 19 20 20 20 20 21 21 23 24 26 26 26 26 27 27 26 25 23 21 18 16 14 13 12 12 12 13 14 14 15 16 16 16
30 29 28 27 23 17 13 14 13 12 16 19 24 27 26 22 19 13 15 17 17 16 17 16 17 19 21 23 24 25 26 26 26 25 24 23 22 19 16 15 13 13 12 12 12 13 13 14 14 15 15 16 15 15
29 25 24 16 18 15 12 9 16 16 15 20 20 20 20 20 18 17 19 20 18 19 20 21 22 24 24 25 25 24 24 23 22 21 20 18 15 13 13 13 13 13 14 14 14 15 15 15 16 16 16 15 15 14
26 19 13 14 17 17 15 16 18 19 16 15 17 16 12 11 13 15 18 18 17 20 21 22 23 23 24 22 20 20 19 18 17 14 13 13 14 14 15 15 15 15 16 16 16 16 16 16 16 16 16 16 15 14
18 12 12 9 18 20 19 13 15 21 21 20 20 21 18 14 13 11 18 22 21 20 19 19 18 18 18 16 14 13 11 11 11 11 12 13 14 15 15 15 17 14 15 16 16 16 17 16 16 16 15 15 14 14
17 15 24 23 19 24 22 17 14 15 16 16 19 17 16 10 12 20 22 21 17 15 14 12 11 9 9 7 7 8 9 10 11 12 12 12 13 13 14 14 14 14 15 15 15 15 15 14 14 14 14 14 13 13
14 14 12 22 28 26 22 21 22 22 21 19 19 17 11 12 18 16 15 14 11 9 7 6 4 5 5 6 7 7 8 9 10 11 11 12 12 12 13 13 13 13 12 12 13 12 13 12 12 12 12 12 12 12
19 15 14 17 18 19 22 24 25 24 23 23 24 22 22 22 20 15 11 9 7 6 5 4 4 3 4 4 5 7 8 9 10 11 12 13 11 11 12 12 12 12 12 12 12 12 12 12 12 12 12 12 12 12
32 29 25 23 22 24 26 26 24 22 22 21 19 19 16 14 13 11 9 9 7 6 5 4 3 2 3 5 7 8 10 11 11 12 12 12 12 12 12 12 12 11 11 11 11 11 11 12 12 12 12 12 12 13
34 35 31 29 27 26 25 24 23 21 19 18 17 16 13 12 12 11 10 9 8 7 4 3 3 4 5 7 8 9 10 11 12 12 12 12 12 12 12 12 12 12 12 12 12 12 12 12 13 13 13 13 13 13
26 26 27 29 28 25 24 23 21 19 17 17 16 15 15 15 15 13 12 10 8 6 5 4 4 5 7 8 8 9 10 10 11 11 11 11 11 11 11 11 11 12 12 11 11 11 11 11 11 11 11 11 12 12
25 25 24 23 21 19 18 18 18 17 17 17 18 18 19 18 15 14 11 9 8 7 5 4 5 6 7 8 8 9 9 9 10 9 9 9 9 9 9 10 10 10 10 10 9 10 10 10 10 11 11 12 12 13